Date StartTime U_cm/s V_cm/s W_cm/s Ustd_cm/s Vstd_cm/s Wstd_cm/s Uvar_(cm/s)^2 Vvar_(cm/s)^2 Wvar_(cm/s)^2 KE_(m/s)^2 TurbulentKE_(m/s)^2 HorizWindSpeed_cm/s FrictionSpeec_cm/s DragCoef SpeedOfSound_m/s SonicTemperature_C Pressure_mb 
07/11/2014  00:00:00     -121.113     -100.970       -0.732       89.921       80.205       41.138     8085.784     6432.870     1692.364        2.053        0.811      157.681       50.612        0.103      347.628       26.733      860.043
07/11/2014  00:01:00     -114.650      -78.156        4.947       84.528       50.460       39.424     7144.928     2546.181     1554.232        1.526        0.562      138.755       42.276        0.093      347.624       26.726      860.052
07/11/2014  00:02:00     -184.783     -122.705       -3.054       71.860       52.294       36.858     5163.856     2734.621     1358.477        2.923        0.463      221.814       32.884        0.022      347.633       26.740      860.056
07/11/2014  00:03:00     -100.821      -81.979        7.747       69.740       47.001       32.025     4863.627     2209.059     1025.607        1.252        0.405      129.944       36.657        0.080      347.577       26.646      860.059
07/11/2014  00:04:00     -162.814     -120.189       -8.602       67.258       64.588       32.362     4523.631     4171.650     1047.286        2.538        0.487      202.370       32.364        0.026      347.590       26.668      860.047
07/11/2014  00:05:00      -80.954      -85.993       15.000       69.732       69.574       37.096     4862.617     4840.583     1376.107        1.262        0.554      118.103       34.559        0.086      347.558       26.614      860.047
07/11/2014  00:06:00     -150.678      -92.753       -5.190       59.812       56.711       29.366     3577.494     3216.184      862.375        1.949        0.383      176.938       25.524        0.021      347.548       26.595      860.047
07/11/2014  00:07:00     -108.527      -74.728       -4.031       61.600       56.332       31.690     3794.523     3173.243     1004.226        1.267        0.399      131.767       21.865        0.028      347.538       26.577      860.043
07/11/2014  00:08:00     -110.657      -45.249       -1.549       39.422       34.632       19.394     1554.108     1199.349      376.108        0.871        0.156      119.551       16.261        0.019      347.519       26.546      860.047
07/11/2014  00:09:00     -109.037      -47.161       -5.695       62.007       51.737       27.831     3844.816     2676.754      774.582        1.072        0.365      118.799       32.101        0.073      347.503       26.516      860.038
07/11/2014  00:10:00     -139.329      -41.329       -2.592       93.924       73.379       40.289     8821.792     5384.542     1623.214        1.848        0.791      145.329       37.234        0.066      347.487       26.490      860.031
07/11/2014  00:11:00     -111.952      -12.622        6.406       89.541       65.981       47.818     8017.635     4353.464     2286.522        1.369        0.733      112.661       53.380        0.224      347.453       26.432      860.028
07/11/2014  00:12:00     -270.501        9.156      -30.315       83.566       70.784       42.781     6983.271     5010.351     1830.205        4.400        0.691      270.656       36.784        0.018      347.477       26.469      860.027
07/11/2014  00:13:00     -191.837      -58.598       -8.956      125.976       81.986       46.464    15869.887     6721.688     2158.922        3.253        1.238      200.587       59.247        0.087      347.405       26.348      860.035
07/11/2014  00:14:00     -187.663      -32.476        2.749       91.925       87.718       44.778     8450.135     7694.513     2005.051        2.721        0.907      190.453       43.295        0.052      347.370       26.288      860.047
07/11/2014  00:15:00     -237.895      -23.390       -9.139      118.097       81.042       45.216    13946.968     6567.754     2044.447        3.989        1.128      239.042       54.427        0.052      347.363       26.277      860.046
07/11/2014  00:16:00     -234.917      -75.343      -13.076      144.263       93.157       52.578    20811.766     8678.240     2764.434        4.664        1.613      246.704       64.822        0.069      347.332       26.220      860.051
07/11/2014  00:17:00     -325.870      -54.714      -10.261      111.810       64.251       47.433    12501.417     4128.150     2249.925        6.408        0.944      330.432       50.573        0.023      347.341       26.236      860.040
07/11/2014  00:18:00     -312.478     -118.690      -15.002      114.557       73.338       46.926    13123.290     5378.445     2202.069        6.633        1.035      334.260       35.854        0.012      347.330       26.216      860.026
07/11/2014  00:19:00     -307.338      -66.632       -1.958      129.813      107.466       65.065    16851.298    11548.892     4233.460        6.576        1.632      314.478       68.144        0.047      347.324       26.205      860.022
07/11/2014  00:20:00     -287.380      -50.935       -2.393      113.359       93.672       54.434    12850.326     8774.449     2963.086        5.488        1.229      291.859       52.637        0.033      347.324       26.207      860.015
07/11/2014  00:21:00     -279.001      -27.404       -5.746       98.622       93.925       51.147     9726.366     8821.854     2616.032        4.989        1.058      280.344       49.580        0.031      347.298       26.162      860.010
07/11/2014  00:22:00     -298.750       -9.623       -6.556      146.843      100.312       61.463    21562.924    10062.587     3777.670        6.239        1.770      298.905       68.147        0.052      347.309       26.181      859.986
07/11/2014  00:23:00     -252.678      -88.845       -3.654       98.065       85.136       52.462     9616.660     7248.180     2752.280        4.568        0.981      267.842       54.838        0.042      347.287       26.143      859.968
07/11/2014  00:24:00     -291.286      -90.850       -4.676      134.860       92.525       57.361    18187.262     8560.818     3290.255        6.157        1.502      305.125       59.560        0.038      347.265       26.104      859.965
07/11/2014  00:25:00     -322.631      -34.961      -14.764       99.660       82.457       45.771     9932.098     6799.161     2094.974        6.217        0.941      324.519       47.184        0.021      347.269       26.111      859.938
07/11/2014  00:26:00     -290.888      -77.576       -8.056      117.707      100.887       51.328    13855.017    10178.193     2634.614        5.868        1.333      301.055       57.419        0.036      347.251       26.081      859.915
07/11/2014  00:27:00     -252.360       -3.704       -4.260      117.584      102.662       57.815    13825.987    10539.446     3342.538        4.571        1.385      252.387       57.484        0.052      347.245       26.069      859.894
07/11/2014  00:28:00     -208.258      -26.618        0.892      124.405       80.602       49.657    15476.509     6496.692     2465.813        3.425        1.222      209.952       60.801        0.084      347.216       26.021      859.876
07/11/2014  00:29:00     -214.289      -38.419        1.639      118.771       84.959       51.807    14106.490     7218.000     2683.931        3.570        1.200      217.706       61.565        0.080      347.223       26.033      859.863
07/11/2014  00:30:00     -278.412       -8.215      -11.307      123.330       77.466       55.381    15210.288     6000.918     3067.069        5.099        1.214      278.533       63.484        0.052      347.211       26.013      859.838
07/11/2014  00:31:00     -215.750      -48.771       -9.911      100.192       85.321       43.531    10038.364     7279.695     1894.988        3.412        0.961      221.194       44.419        0.040      347.183       25.965      859.825
07/11/2014  00:32:00     -194.007      -85.454      -12.693       80.545       83.693       41.715     6487.555     7004.484     1740.151        3.016        0.762      211.993       44.369        0.044      347.163       25.930      859.825
07/11/2014  00:33:00     -295.665      -59.727       -6.523      109.876       91.350       49.360    12072.809     8344.882     2436.362        5.694        1.143      301.638       51.143        0.029      347.134       25.881      859.814
07/11/2014  00:34:00     -336.395      -58.479       -8.818      109.566       79.575       54.527    12004.652     6332.238     2973.178        6.898        1.066      341.440       57.211        0.028      347.122       25.860      859.801
07/11/2014  00:35:00     -339.792      -36.204      -27.360      101.309       74.130       48.567    10263.610     5495.197     2358.732        6.781        0.906      341.715       50.252        0.022      347.092       25.804      859.808
07/11/2014  00:36:00     -163.414      -67.257        0.048      101.729       84.571       37.712    10348.714     7152.249     1422.210        2.507        0.946      176.713       37.542        0.045      347.043       25.724      859.798
07/11/2014  00:37:00     -241.400      -68.207      -14.194       80.309       58.268       35.804     6449.487     3395.128     1281.909        3.712        0.556      250.851       29.807        0.014      347.056       25.744      859.803
07/11/2014  00:38:00     -174.778      -55.235       -3.525       88.612       47.146       36.766     7852.001     2222.749     1351.714        2.252        0.571      183.298       40.568        0.049      347.023       25.689      859.810
07/11/2014  00:39:00     -110.908      -44.118       -3.921       64.187       42.791       38.027     4119.960     1831.076     1446.073        1.083        0.370      119.361       41.039        0.118      347.020       25.687      859.814
07/11/2014  00:40:00     -184.438      -80.142      -11.252       37.908       57.693       29.827     1437.029     3328.455      889.675        2.311        0.283      201.097       22.940        0.013      347.041       25.721      859.817
07/11/2014  00:41:00     -133.497      -21.193      -12.417       30.214       45.240       29.919      912.911     2046.624      895.139        1.114        0.193      135.169       27.393        0.041      347.029       25.700      859.817
07/11/2014  00:42:00      -50.626        5.934       -0.737       30.724       33.635       18.740      943.942     1131.319      351.186        0.251        0.121       50.973       15.839        0.097      347.001       25.651      859.823
07/11/2014  00:43:00      -29.598       -2.721       -3.538       34.475       30.278       16.721     1188.505      916.763      279.608        0.164        0.119       29.723       15.948        0.288      346.992       25.639      859.810
07/11/2014  00:44:00      -70.647      -23.250       -2.545       71.965       24.113       25.043     5178.993      581.447      627.161        0.596        0.319       74.374       29.635        0.159      347.010       25.669      859.797
07/11/2014  00:45:00     -105.573      -42.423       -2.775       51.028       35.522       25.113     2603.881     1261.840      630.671        0.872        0.225      113.778       27.157        0.057      346.969       25.599      859.800
07/11/2014  00:46:00     -111.251      -76.462       -2.532       44.255       42.774       24.647     1958.486     1829.577      607.473        1.131        0.220      134.994       27.384        0.041      346.960       25.584      859.779
07/11/2014  00:47:00      -57.609      -45.007       20.770       87.803       56.372       37.684     7709.306     3177.809     1420.064        0.904        0.615       73.105       51.095        0.489      346.942       25.553      859.761
07/11/2014  00:48:00      -79.815      -61.791        8.038       53.608       41.495       28.845     2873.809     1721.841      832.063        0.784        0.271      100.939       24.707        0.060      346.901       25.482      859.748
07/11/2014  00:49:00      -75.694      -61.574       -1.027       76.455       37.488       26.708     5845.410     1405.343      713.330        0.874        0.398       97.575       36.337        0.139      346.956       25.576      859.746
07/11/2014  00:50:00      -85.563      -74.479        4.087       48.285       51.784       32.363     2331.427     2681.632     1047.370        0.947        0.303      113.438       25.869        0.052      346.950       25.566      859.739
07/11/2014  00:51:00     -131.309      -57.849       12.356       76.618       47.566       35.988     5870.259     2262.508     1295.112        1.508        0.471      143.487       34.110        0.057      346.945       25.556      859.726
07/11/2014  00:52:00     -136.205      -72.262        9.829       66.113       54.785       37.489     4370.899     3001.438     1405.436        1.632        0.439      154.187       27.249        0.031      346.946       25.559      859.726
07/11/2014  00:53:00     -117.028      -55.951        2.181       64.483       38.999       34.624     4158.087     1520.931     1198.828        1.185        0.344      129.715       37.220        0.082      346.899       25.478      859.731
07/11/2014  00:54:00      -89.368      -87.676       20.545      113.916       81.811       47.829    12976.827     6693.094     2287.580        1.902        1.098      125.195       65.895        0.277      346.919       25.509      859.729
07/11/2014  00:55:00      -96.462      -80.433        5.999       86.363       59.793       46.748     7458.485     3575.225     2185.402        1.451        0.661      125.596       45.796        0.133      346.909       25.493      859.721
07/11/2014  00:56:00     -192.937     -116.527       -0.042       86.083       69.192       40.848     7410.281     4787.565     1668.575        3.233        0.693      225.396       50.023        0.049      346.917       25.505      859.730
07/11/2014  00:57:00     -157.129     -118.382        8.464       85.369       63.966       44.232     7287.842     4091.613     1956.440        2.605        0.667      196.733       51.863        0.069      346.880       25.442      859.736
07/11/2014  00:58:00     -251.886     -104.842        2.117       94.134       79.537       54.509     8861.274     6326.195     2971.255        4.630        0.908      272.834       53.327        0.038      346.890       25.458      859.733
07/11/2014  00:59:00     -192.529      -69.626        0.672       73.916       56.778       38.082     5463.624     3223.720     1450.205        2.602        0.507      204.732       33.813        0.027      346.870       25.427      859.737
07/11/2014  01:00:00     -108.108      -80.339        7.020       95.656       70.178       47.899     9150.072     4924.988     2294.303        1.728        0.818      134.691       49.288        0.134      346.878       25.440      859.755
07/11/2014  01:01:00     -145.065      -68.351        3.599       70.714       48.026       32.451     5000.463     2306.490     1053.065        1.704        0.418      160.361       35.757        0.050      346.870       25.429      859.761
07/11/2014  01:02:00     -118.158      -66.528        6.920       86.458       64.873       40.394     7474.906     4208.465     1631.654        1.587        0.666      135.600       49.009        0.131      346.898       25.474      859.759
07/11/2014  01:03:00     -105.635      -91.854       12.321       87.635       46.787       39.808     7679.890     2189.021     1584.694        1.560        0.573      139.986       45.237        0.104      346.880       25.444      859.762
07/11/2014  01:04:00     -138.410     -106.977       -1.428       85.926       48.852       43.205     7383.350     2386.526     1866.682        2.112        0.582      174.932       49.208        0.079      346.880       25.441      859.771
07/11/2014  01:05:00     -159.196      -85.094        2.612       84.412       45.078       36.982     7125.339     2032.048     1367.650        2.156        0.526      180.512       39.182        0.047      346.883       25.449      859.778
07/11/2014  01:06:00      -78.265      -57.409        9.598       37.529       50.372       23.009     1408.423     2537.334      529.391        0.699        0.224       97.063       18.605        0.037      346.883       25.451      859.781
07/11/2014  01:07:00      -13.247      -40.723        5.151       20.045       33.225       16.297      401.811     1103.872      265.596        0.182        0.089       42.824       12.682        0.088      346.867       25.422      859.780
07/11/2014  01:08:00      -73.166      -49.937       -2.729       67.588       39.709       31.523     4568.126     1576.818      993.726        0.750        0.357       88.583       27.161        0.094      346.884       25.452      859.787
07/11/2014  01:09:00     -134.815     -106.326      -11.550       47.760       41.808       31.534     2281.059     1747.936      994.362        1.732        0.251      171.698       30.334        0.031      346.901       25.480      859.805
07/11/2014  01:10:00      -53.777      -50.364       10.133       45.088       37.522       24.409     2032.898     1407.907      595.821        0.478        0.202       73.679       20.328        0.076      346.872       25.431      859.819
07/11/2014  01:11:00      -45.211      -39.038        6.336       40.601       35.262       20.245     1648.451     1243.432      409.848        0.345        0.165       59.733       20.050        0.113      346.868       25.424      859.834
07/11/2014  01:12:00      -40.036      -27.229       -1.447       52.857       27.511       15.511     2793.911      756.867      240.579        0.307        0.190       48.418       17.840        0.136      346.846       25.389      859.855
07/11/2014  01:13:00      -22.964      -46.376        1.431       36.718       38.838       27.986     1348.200     1508.415      783.200        0.316        0.182       51.750       24.401        0.222      346.824       25.348      859.866
07/11/2014  01:14:00      -24.104      -21.792        1.266       36.020       30.990       23.127     1297.459      960.370      534.866        0.192        0.140       32.494       25.078        0.596      346.870       25.428      859.890
07/11/2014  01:15:00      -67.927        4.344        0.848       40.559       18.245       18.604     1645.064      332.866      346.114        0.348        0.116       68.066       22.159        0.106      346.842       25.382      859.895
07/11/2014  01:16:00      -15.840      -12.840       -3.923       29.686       21.779       12.056      881.267      474.342      145.344        0.097        0.075       20.391        8.772        0.185      346.798       25.306      859.904
07/11/2014  01:17:00      -36.373        7.816      -11.977       37.199       23.397       15.289     1383.796      547.436      233.741        0.185        0.108       37.204        6.776        0.033      346.767       25.251      859.901
07/11/2014  01:18:00     -206.768      -11.264       -7.429      125.024       88.397       44.521    15630.978     7813.950     1982.080        3.418        1.271      207.074       53.908        0.068      346.903       25.481      859.909
07/11/2014  01:19:00     -114.110      -28.220       -1.450       67.550       36.360       28.070     4563.006     1322.045      787.927        1.024        0.334      117.548       31.825        0.073      346.846       25.388      859.914
07/11/2014  01:20:00     -226.839       -1.172      -14.093       74.060       65.925       36.813     5484.825     4346.091     1355.198        3.142        0.559      226.842       22.590        0.010      346.891       25.462      859.918
07/11/2014  01:21:00     -126.154      -37.476       -9.254       59.931       52.835       32.410     3591.757     2791.584     1050.436        1.242        0.372      131.603       26.517        0.041      346.828       25.356      859.909
07/11/2014  01:22:00     -117.628      -15.973       -1.651       66.933       45.950       32.971     4479.962     2111.373     1087.082        1.088        0.384      118.708       36.657        0.095      346.829       25.356      859.894
07/11/2014  01:23:00     -147.488      -68.300      -13.368       49.553       46.077       27.619     2455.479     2123.100      762.820        1.597        0.267      162.535       20.911        0.017      346.790       25.291      859.881
07/11/2014  01:24:00     -211.393      -80.371       -9.725       54.280       63.981       34.405     2946.365     4093.515     1183.698        2.973        0.411      226.156       24.917        0.012      346.817       25.333      859.870
07/11/2014  01:25:00     -162.967      -16.271      -12.267       66.453       43.635       34.163     4416.043     1904.040     1167.119        1.723        0.374      163.777       34.527        0.044      346.813       25.328      859.868
07/11/2014  01:26:00     -196.181      -70.017      -12.689       65.935       66.238       33.600     4347.420     4387.455     1128.932        2.671        0.493      208.301       30.335        0.021      346.840       25.375      859.836
07/11/2014  01:27:00     -164.459      -64.132       -3.097       88.394       93.169       41.676     7813.524     8680.413     1736.922        2.470        0.912      176.520       49.109        0.077      346.801       25.308      859.825
07/11/2014  01:28:00     -169.463      -77.256       -0.034       83.517       70.718       49.785     6975.115     5001.080     2478.531        2.457        0.723      186.243       49.316        0.070      346.834       25.364      859.804
07/11/2014  01:29:00     -199.905      -77.144        2.982      130.675      102.207       50.273    17075.940    10446.212     2527.356        3.798        1.502      214.273       52.850        0.061      346.821       25.344      859.779
07/11/2014  01:30:00     -228.202     -139.136       -3.570      118.404       93.115       46.851    14019.585     8670.349     2195.000        4.816        1.244      267.273       57.112        0.046      346.825       25.347      859.779
07/11/2014  01:31:00     -106.999      -21.551        2.963      126.203       62.677       50.522    15927.283     3928.358     2552.478        1.716        1.120      109.148       56.729        0.270      346.780       25.273      859.772
07/11/2014  01:32:00     -295.565      -63.470      -15.188      163.393      103.616       64.756    26697.433    10736.234     4193.311        6.661        2.081      302.303       72.152        0.057      346.818       25.335      859.756
07/11/2014  01:33:00     -142.437      -31.029       -0.380      101.009       68.860       44.569    10202.828     4741.655     1986.395        1.909        0.847      145.777       43.615        0.090      346.786       25.282      859.747
07/11/2014  01:34:00     -191.771      -52.994       -3.773      117.501       76.647       47.703    13806.522     5874.698     2275.589        3.077        1.098      198.959       48.700        0.060      346.797       25.300      859.734
07/11/2014  01:35:00     -276.012      -44.772      -11.297      121.766       87.733       51.005    14827.030     7697.000     2601.485        5.172        1.256      279.620       46.244        0.027      346.784       25.276      859.721
07/11/2014  01:36:00     -211.240      -31.593       -5.738      111.009       90.147       62.155    12322.984     8126.518     3863.289        3.498        1.216      213.589       66.242        0.096      346.776       25.262      859.721
07/11/2014  01:37:00     -218.501      -64.093      -10.525       80.184       92.365       51.795     6429.401     8531.332     2682.733        3.480        0.882      227.707       45.703        0.040      346.773       25.259      859.737
07/11/2014  01:38:00     -198.521      -41.457      -16.982       53.261       54.802       32.834     2836.714     3003.248     1078.061        2.417        0.346      202.803       20.573        0.010      346.785       25.281      859.763
07/11/2014  01:39:00     -170.888      -12.078       -8.413       76.859       65.407       39.911     5907.343     4278.060     1592.877        2.060        0.589      171.314       39.420        0.053      346.742       25.207      859.780
07/11/2014  01:40:00     -208.404      -72.689       -2.728       76.018       63.144       39.773     5778.715     3987.213     1581.913        3.003        0.567      220.717       37.160        0.028      346.748       25.214      859.794
07/11/2014  01:41:00     -184.324      -56.801      -13.958      102.427       64.016       36.607    10491.257     4098.081     1340.102        2.666        0.796      192.878       35.023        0.033      346.754       25.226      859.808
07/11/2014  01:42:00     -208.771      -32.285       -0.206       81.517       60.325       34.233     6644.954     3639.136     1171.868        2.804        0.573      211.253       25.461        0.015      346.746       25.211      859.826
07/11/2014  01:43:00     -128.092      -56.685        3.252      101.260       78.218       43.797    10253.552     6118.000     1918.220        1.896        0.914      140.074       40.940        0.085      346.738       25.200      859.838
07/11/2014  01:44:00     -155.500      -64.010      -13.905      104.105       79.259       48.577    10837.867     6282.056     2359.739        2.397        0.974      168.159       38.484        0.052      346.761       25.240      859.848
07/11/2014  01:45:00     -118.227      -29.805        3.579      112.564       59.904       42.912    12670.612     3588.461     1841.461        1.649        0.905      121.926       49.138        0.162      346.759       25.238      859.858
07/11/2014  01:46:00     -141.087      -50.305       -5.580      112.931       68.547       41.088    12753.398     4698.640     1688.202        2.080        0.957      149.787       31.449        0.044      346.763       25.244      859.858
07/11/2014  01:47:00     -121.037      -31.652      -18.891      100.644       71.418       43.924    10129.117     5100.544     1929.320        1.658        0.858      125.107       42.112        0.113      346.778       25.269      859.862
07/11/2014  01:48:00     -185.834      -29.094      -10.211       98.927       58.977       36.746     9786.587     3478.243     1350.283        2.505        0.731      188.098       38.095        0.041      346.758       25.233      859.877
07/11/2014  01:49:00     -176.800       10.895      -18.762       54.134       46.848       30.694     2930.527     2194.690      942.136        1.890        0.303      177.135       26.955        0.023      346.762       25.242      859.895
07/11/2014  01:50:00     -134.503       32.175      -11.723       70.712       69.277       44.737     5000.218     4799.276     2001.431        1.553        0.590      138.297       38.350        0.077      346.957       25.577      859.896
07/11/2014  01:51:00     -134.824      -12.702      -10.160       41.412       48.457       32.547     1714.936     2348.096     1059.285        1.178        0.256      135.421       15.970        0.014      346.985       25.627      859.901
07/11/2014  01:52:00     -116.712      -62.201        0.354       93.331       45.371       40.948     8710.712     2058.563     1676.764        1.497        0.622      132.252       33.798        0.065      346.984       25.623      859.882
07/11/2014  01:53:00        1.605        4.210      -14.988       46.853       24.318       27.467     2195.227      591.365      754.448        0.189        0.177        4.506       21.318       22.385      346.947       25.562      859.910
07/11/2014  01:54:00       52.476       36.431       -5.153       34.968       40.032       26.976     1222.741     1602.577      727.696        0.383        0.178       63.882       18.909        0.088      346.937       25.544      859.931
07/11/2014  01:55:00       30.813        2.362       29.273       31.594       26.487       20.140      998.171      701.568      405.604        0.196        0.105       30.903       12.124        0.154      346.921       25.517      859.936
07/11/2014  01:56:00       57.658       47.797       15.814       21.102       27.022       20.881      445.296      730.209      436.028        0.373        0.081       74.893       17.397        0.054      346.876       25.439      859.943
07/11/2014  01:57:00       23.662        6.196       16.059       21.041       12.787        9.483      442.737      163.507       89.928        0.078        0.035       24.460        7.250        0.088      346.845       25.387      859.948
07/11/2014  01:58:00       22.771       20.940        0.536       12.854       12.929       12.229      165.214      167.150      149.543        0.072        0.024       30.935       11.111        0.129      346.833       25.364      859.960
07/11/2014  01:59:00       43.421       37.396        3.515       25.059       15.983       12.722      627.965      255.462      161.859        0.217        0.052       57.305       10.946        0.036      346.874       25.437      859.962
07/11/2014  02:00:00       52.688       26.121        5.441       35.376       27.699       20.489     1251.466      767.228      419.802        0.296        0.122       58.808        9.922        0.028      346.908       25.493      859.968
07/11/2014  02:01:00        0.242       15.052       29.883       21.257       22.228       22.402      451.862      494.102      501.853        0.128        0.072       15.053       20.667        1.885      346.879       25.444      859.962
07/11/2014  02:02:00       13.260       -5.746       16.872       15.163       11.323        7.756      229.907      128.206       60.151        0.046        0.021       14.451        7.815        0.292      346.876       25.439      859.954
07/11/2014  02:03:00      -11.116      -21.729       10.152       19.514       16.484       14.147      380.778      271.736      200.138        0.078        0.043       24.407       10.864        0.198      346.920       25.517      859.948
07/11/2014  02:04:00      -10.290      -43.656        0.755       15.312       10.091       10.382      234.445      101.819      107.783        0.123        0.022       44.853        7.364        0.027      346.956       25.579      859.939
07/11/2014  02:05:00       -0.259      -10.021       11.351       14.004       13.459       11.896      196.110      181.136      141.508        0.037        0.026       10.024       11.316        1.274      346.891       25.466      859.934
07/11/2014  02:06:00      -28.710      -11.611        0.918       26.749       14.192       10.232      715.511      201.415      104.700        0.099        0.051       30.969       12.026        0.151      346.800       25.306      859.928
07/11/2014  02:07:00      -39.961      -28.613       -1.628       24.358       20.215       12.225      593.301      408.654      149.449        0.178        0.058       49.148       10.652        0.047      346.817       25.337      859.922
07/11/2014  02:08:00      -31.773      -32.508       -8.705       58.221       32.979       11.553     3389.675     1087.587      133.460        0.338        0.231       45.457       13.214        0.085      346.860       25.412      859.920
07/11/2014  02:09:00      -56.371      -59.669        5.986       40.257       31.225       16.991     1620.654      975.025      288.680        0.483        0.144       82.086       18.523        0.051      346.918       25.512      859.915
07/11/2014  02:10:00      -46.294      -43.274       -0.407       46.329       28.339       24.126     2146.396      803.107      582.069        0.377        0.177       63.370       24.945        0.155      346.903       25.488      859.916
07/11/2014  02:11:00      -71.299      -70.530       -2.376       27.576       18.485       13.758      760.414      341.707      189.272        0.568        0.065      100.290       12.289        0.015      346.954       25.577      859.919
07/11/2014  02:12:00      -63.840      -33.765        8.875       27.458       21.555       14.427      753.939      464.616      208.140        0.336        0.071       72.220       11.698        0.026      346.944       25.558      859.915
07/11/2014  02:13:00      -80.003      -19.883       -0.925       26.746       21.831       15.557      715.365      476.601      242.014        0.412        0.072       82.437       14.069        0.029      346.917       25.511      859.917
07/11/2014  02:14:00      -34.971      -15.048        2.391       37.714       22.331       12.183     1422.338      498.658      148.432        0.176        0.103       38.071       16.584        0.190      346.858       25.407      859.915
07/11/2014  02:15:00      -92.282      -46.117       -8.172       18.747       18.701       12.335      351.451      349.712      152.148        0.578        0.043      103.164        5.696        0.003      346.884       25.455      859.913
07/11/2014  02:16:00      -87.018      -32.199        5.799       39.849       32.170       20.614     1587.961     1034.883      424.932        0.584        0.152       92.784       21.288        0.053      346.826       25.352      859.915
07/11/2014  02:17:00      -89.423      -48.821        1.091       47.606       28.453       17.346     2266.295      809.550      300.878        0.688        0.169      101.883       19.383        0.036      346.872       25.433      859.923
07/11/2014  02:18:00      -62.734      -48.323        1.255       37.615       26.676       19.032     1414.910      711.616      362.236        0.438        0.124       79.188       17.607        0.049      346.838       25.373      859.920
07/11/2014  02:19:00      -88.586      -23.071        1.395       28.780       28.190       16.346      828.290      794.697      267.207        0.514        0.095       91.541       10.806        0.014      346.829       25.358      859.920
07/11/2014  02:20:00     -104.639      -59.172        4.786       41.469       39.056       23.737     1719.644     1525.336      563.428        0.914        0.190      120.211       20.193        0.028      346.931       25.533      859.906
07/11/2014  02:21:00     -108.157      -48.703       -4.896       34.216       25.895       24.827     1170.705      670.532      616.381        0.828        0.123      118.617       21.859        0.034      346.908       25.491      859.909
07/11/2014  02:22:00     -103.839      -16.245        3.210       38.672       42.933       28.276     1495.561     1843.240      799.537        0.760        0.207      105.102       23.942        0.052      346.912       25.502      859.911
07/11/2014  02:23:00      -27.089      -22.053       -2.816       25.226       14.811       14.797      636.357      219.375      218.959        0.115        0.054       34.931        9.924        0.081      346.896       25.472      859.919
07/11/2014  02:24:00      -77.720      -53.996        1.266       81.283       51.291       23.859     6606.865     2630.746      569.266        0.938        0.490       94.636       26.684        0.080      346.871       25.430      859.928
07/11/2014  02:25:00     -113.161      -44.317        5.831       87.363       49.764       31.730     7632.338     2476.480     1006.802        1.296        0.556      121.529       38.500        0.100      346.831       25.361      859.931
07/11/2014  02:26:00      -75.860      -16.924        0.839       38.027       46.810       19.228     1446.028     2191.163      369.726        0.502        0.200       77.725       16.713        0.046      346.801       25.310      859.934
07/11/2014  02:27:00     -110.547      -20.904        0.182       61.139       54.701       31.248     3737.997     2992.237      976.446        1.018        0.385      112.506       33.991        0.091      346.765       25.247      859.941
07/11/2014  02:28:00     -173.474       -5.500        0.337       74.529       89.557       32.211     5554.630     8020.430     1037.552        2.237        0.731      173.561       29.584        0.029      346.767       25.248      859.949
07/11/2014  02:29:00     -102.414      -52.551        2.035       70.801       61.240       29.632     5012.813     3750.349      878.033        1.145        0.482      115.110       32.340        0.079      346.781       25.275      859.950
07/11/2014  02:30:00     -248.410      -59.042      -11.923       91.511       57.049       39.257     8374.190     3254.581     1541.129        3.925        0.658      255.330       48.293        0.036      346.832       25.360      859.963
07/11/2014  02:31:00     -142.196      -13.893       -5.668       67.845       51.570       29.277     4602.902     2659.416      857.150        1.428        0.406      142.873       28.672        0.040      346.794       25.299      859.970
07/11/2014  02:32:00     -248.683       24.208      -27.318      123.676       80.007       37.488    15295.685     6401.071     1405.327        4.313        1.155      249.858       44.128        0.031      346.769       25.251      859.972
07/11/2014  02:33:00     -204.720       11.934      -11.178       99.906       76.601       42.025     9981.169     5867.725     1766.122        2.989        0.881      205.067       47.884        0.055      346.729       25.181      859.975
07/11/2014  02:34:00     -198.145      -59.048        0.332       69.406       69.556       42.940     4817.155     4837.970     1843.875        2.712        0.575      206.756       37.920        0.034      346.737       25.196      859.987
07/11/2014  02:35:00     -150.856     -133.521      -14.878       73.766       70.348       51.938     5441.427     4948.877     2697.569        2.694        0.654      201.458       41.029        0.041      346.743       25.208      859.978
07/11/2014  02:36:00     -235.098      -37.904      -12.239      102.002       52.086       42.801    10404.439     2712.979     1831.930        3.590        0.747      238.134       50.291        0.045      346.706       25.143      859.974
07/11/2014  02:37:00     -212.061      -76.893       -7.786       88.109       75.871       46.900     7763.223     5756.432     2199.607        3.333        0.786      225.572       45.343        0.040      346.718       25.161      859.960
07/11/2014  02:38:00     -261.410       16.491      -13.295       94.275       83.324       41.097     8887.711     6942.849     1688.935        4.315        0.876      261.930       45.771        0.031      346.706       25.141      859.950
07/11/2014  02:39:00     -240.400      -52.176      -17.575       81.564       97.606       35.276     6652.740     9526.878     1244.429        3.912        0.871      245.997       35.868        0.021      346.690       25.114      859.936
07/11/2014  02:40:00     -300.553     -116.953       -3.038      134.604      107.081       60.085    18118.205    11466.281     3610.197        6.860        1.660      322.506       62.057        0.037      346.726       25.177      859.922
07/11/2014  02:41:00     -304.667      -58.772       -7.727      139.786       68.505       55.822    19540.153     4692.959     3116.118        6.184        1.367      310.284       61.456        0.039      346.719       25.165      859.927
07/11/2014  02:42:00     -138.312     -102.673      -11.404       80.652       71.998       51.274     6504.798     5183.671     2629.031        2.206        0.716      172.255       51.023        0.088      346.704       25.139      859.921
07/11/2014  02:43:00      -99.258      -69.318       -3.131       62.891       55.420       29.337     3955.317     3071.346      860.672        1.128        0.394      121.066       29.414        0.059      346.689       25.116      859.915
07/11/2014  02:44:00     -174.494      -16.137       -1.061      126.171       71.545       47.804    15919.151     5118.666     2285.223        2.701        1.166      175.239       52.303        0.089      346.668       25.079      859.909
07/11/2014  02:45:00     -223.736      -65.629      -17.391       71.808       55.685       40.950     5156.350     3100.830     1676.879        3.230        0.497      233.163       37.179        0.025      346.659       25.064      859.925
07/11/2014  02:46:00     -251.294      -69.300      -16.971       83.476       65.873       43.842     6968.160     4339.208     1922.134        4.073        0.661      260.675       41.861        0.026      346.634       25.019      859.928
07/11/2014  02:47:00     -180.700      -40.873       -5.363       56.686       54.388       29.487     3213.332     2958.081      869.509        2.069        0.352      185.265       26.547        0.021      346.616       24.990      859.942
07/11/2014  02:48:00     -204.512      -77.401       -8.511       83.626       65.958       44.678     6993.323     4350.505     1996.139        3.061        0.667      218.669       45.121        0.043      346.593       24.949      859.946
07/11/2014  02:49:00     -228.903      -33.138       -9.397       89.512       72.285       47.886     8012.412     5225.136     2293.045        3.455        0.777      231.289       51.257        0.049      346.573       24.915      859.969
07/11/2014  02:50:00      -97.425       -5.827        8.531       93.822       69.410       40.271     8802.641     4817.743     1621.749        1.242        0.762       97.599       49.866        0.261      346.545       24.869      859.987
07/11/2014  02:51:00     -129.756      -38.806      -13.366       65.975       55.822       36.710     4352.696     3116.061     1347.640        1.367        0.441      135.434       37.696        0.077      346.563       24.899      860.023
07/11/2014  02:52:00     -104.267       -8.569        6.687       51.483       63.987       33.971     2650.549     4094.360     1154.005        0.944        0.395      104.618       29.133        0.078      346.524       24.835      860.047
07/11/2014  02:53:00     -261.790      -39.442        4.173      147.273       91.578       62.820    21689.265     8386.528     3946.328        5.206        1.701      264.745       68.561        0.067      346.550       24.874      860.068
07/11/2014  02:54:00     -169.820      -73.159       -3.313       90.129      105.330       46.614     8123.242    11094.407     2172.865        2.779        1.070      184.908       46.488        0.063      346.580       24.926      860.064
07/11/2014  02:55:00     -183.768     -100.455        6.071      130.155       84.937       65.716    16940.208     7214.287     4318.558        3.618        1.424      209.432       62.081        0.088      346.565       24.901      860.075
07/11/2014  02:56:00     -225.520       40.144      -23.495       85.453      115.603       42.586     7302.225    13363.944     1813.600        3.775        1.124      229.065       37.499        0.027      346.538       24.854      860.086
07/11/2014  02:57:00     -264.044      -89.580      -12.431      156.747       63.543       40.863    24569.521     4037.751     1669.811        5.408        1.514      278.826       50.164        0.032      346.528       24.840      860.075
07/11/2014  02:58:00     -341.493     -125.782      -13.093      150.892      117.439       64.742    22768.505    13791.831     4191.495        8.667        2.038      363.921       71.809        0.039      346.529       24.840      860.070
07/11/2014  02:59:00     -195.616      -42.045        2.080      141.552       99.090       63.902    20036.841     9818.736     4083.480        3.698        1.697      200.083       79.761        0.159      346.523       24.829      860.063
07/11/2014  03:00:00     -247.048      -10.041      -14.561      140.811       76.853       50.704    19827.737     5906.348     2570.946        4.482        1.415      247.252       53.027        0.046      346.528       24.838      860.059
07/11/2014  03:01:00     -198.014      -91.358       -0.930      124.073       85.944       55.044    15394.087     7386.454     3029.872        3.668        1.291      218.073       64.679        0.088      346.529       24.839      860.071
07/11/2014  03:02:00     -228.140      -41.631       -0.729      104.776       62.324       50.213    10978.019     3884.242     2521.330        3.558        0.869      231.908       55.226        0.057      346.527       24.835      860.068
07/11/2014  03:03:00     -171.622      -43.245        3.205       82.116       72.805       48.148     6743.027     5300.528     2318.249        2.285        0.718      176.987       47.812        0.073      346.506       24.801      860.061
07/11/2014  03:04:00     -166.818      -43.921        5.952      120.900       77.295       55.271    14616.899     5974.541     3054.887        2.671        1.182      172.503       59.612        0.119      346.510       24.808      860.058
07/11/2014  03:05:00     -297.330      -78.623      -11.274      142.417      108.157       58.449    20282.701    11697.887     3416.260        6.505        1.770      307.549       51.638        0.028      346.513       24.813      860.057
07/11/2014  03:06:00     -222.124      -41.771        1.524      150.508       98.591       60.102    22652.684     9720.272     3612.232        4.353        1.799      226.017       65.574        0.084      346.495       24.780      860.068
07/11/2014  03:07:00     -192.434      -16.845       -3.944      143.973       86.038       59.179    20728.305     7402.578     3502.195        3.448        1.582      193.169       72.224        0.140      346.497       24.786      860.061
07/11/2014  03:08:00     -168.445     -103.901       -0.666      144.717       79.595       62.388    20943.116     6335.365     3892.226        3.516        1.559      197.912       76.672        0.150      346.508       24.806      860.049
07/11/2014  03:09:00     -214.298      -46.988        6.037      153.373      108.274       66.311    23523.307    11723.264     4397.121        4.390        1.982      219.389       72.933        0.111      346.506       24.799      860.057
07/11/2014  03:10:00     -384.007      -70.797      -15.215      212.354      107.152       67.351    45094.089    11481.504     4536.118       10.690        3.056      390.478       79.258        0.041      346.470       24.737      860.058
07/11/2014  03:11:00     -319.043      -65.804      -10.743      131.565      121.723       60.266    17309.235    14816.410     3632.027        7.099        1.788      325.758       56.581        0.030      346.483       24.759      860.050
07/11/2014  03:12:00     -284.692      -51.689      -22.267      155.107      112.432       57.505    24058.165    12641.060     3306.820        6.210        2.000      289.346       70.273        0.059      346.507       24.802      860.057
07/11/2014  03:13:00     -348.438     -124.698      -15.155      155.997      144.353       73.871    24334.987    20837.670     5456.993        9.390        2.531      370.079       73.279        0.039      346.506       24.801      860.051
07/11/2014  03:14:00     -274.228     -157.159      -14.599      146.639      126.157       69.208    21502.862    15915.522     4789.681        7.115        2.110      316.069       78.546        0.062      346.494       24.779      860.068
07/11/2014  03:15:00     -177.992     -132.249       13.281      219.754      158.351       87.181    48291.788    25075.161     7600.573        6.514        4.048      221.746      112.052        0.255      346.493       24.779      860.065
07/11/2014  03:16:00     -214.364      -65.306       22.051      173.902      118.611       79.683    30241.793    14068.523     6349.313        5.067        2.533      224.091      107.897        0.232      346.495       24.783      860.061
07/11/2014  03:17:00     -312.976      -98.191      -15.913      173.181      133.984       77.379    29991.602    17951.833     5987.435        8.088        2.697      328.017       76.950        0.055      346.488       24.768      860.073
07/11/2014  03:18:00     -248.696      -45.674       -1.337      125.841      124.918       61.933    15836.027    15604.423     3835.652        4.960        1.764      252.855       52.706        0.043      346.469       24.735      860.089
07/11/2014  03:19:00     -283.102      -90.042      -26.055      114.013      108.678       58.320    12998.907    11811.013     3401.206        5.857        1.411      297.076       61.730        0.043      346.461       24.721      860.088
07/11/2014  03:20:00     -255.886      -84.910        5.312      155.627      119.900       61.493    24219.629    14375.963     3781.444        5.754        2.119      269.606       69.508        0.066      346.446       24.697      860.065
07/11/2014  03:21:00     -115.758      -30.059       -7.276      103.908       71.695       49.133    10796.949     5140.234     2414.072        1.635        0.918      119.597       47.714        0.159      346.481       24.758      860.068
07/11/2014  03:22:00     -312.669      -52.509      -16.960      148.663       99.110       66.157    22100.793     9822.884     4376.792        6.855        1.815      317.048       69.738        0.048      346.433       24.672      860.058
07/11/2014  03:23:00     -269.917      -26.067       -8.437      140.656      101.080       62.682    19784.024    10217.149     3929.040        5.376        1.697      271.173       75.085        0.077      346.428       24.665      860.045
07/11/2014  03:24:00     -290.548      -44.578        5.079      143.585      110.370       69.828    20616.701    12181.594     4875.970        6.205        1.884      293.948       83.206        0.080      346.430       24.669      860.025
07/11/2014  03:25:00     -175.122       -6.454        0.135       91.752       93.579       47.197     8418.345     8757.041     2227.534        2.505        0.970      175.240       40.103        0.052      346.418       24.648      860.013
07/11/2014  03:26:00     -230.848      -56.975        3.741      137.789       95.585       60.720    18985.929     9136.483     3686.871        4.417        1.590      237.775       75.370        0.100      346.438       24.683      859.998
07/11/2014  03:27:00     -244.036      -32.468       -6.984      100.399       98.857       53.075    10079.894     9772.709     2816.935        4.166        1.133      246.186       49.777        0.041      346.433       24.674      859.989
07/11/2014  03:28:00     -236.856      -36.858      -11.387       85.700       94.434       54.058     7344.439     8917.789     2922.288        3.838        0.959      239.707       45.314        0.036      346.429       24.666      859.983
07/11/2014  03:29:00     -148.096      -46.853        1.430      112.080       87.740       61.983    12561.872     7698.249     3841.835        2.411        1.205      155.331       68.885        0.197      346.459       24.719      859.991
07/11/2014  03:30:00     -151.710      -77.938        3.038      118.032       84.911       62.935    13931.510     7209.851     3960.839        2.710        1.255      170.559       69.109        0.164      346.457       24.717      859.999
07/11/2014  03:31:00     -204.767      -26.450        1.522      105.979      131.267       64.869    11231.530    17230.990     4207.929        3.764        1.634      206.468       62.490        0.092      346.445       24.693      860.006
07/11/2014  03:32:00     -155.271        7.350        1.501      142.339       74.687       49.781    20260.447     5578.122     2478.156        2.624        1.416      155.445       61.170        0.155      346.441       24.689      860.020
07/11/2014  03:33:00     -162.923     -112.955        4.888      117.897      142.971       75.579    13899.644    20440.667     5712.142        3.968        2.003      198.249       72.827        0.135      346.475       24.746      860.033
07/11/2014  03:34:00     -302.441     -133.477       -5.452      194.818      122.582       69.470    37954.181    15026.230     4826.130        8.355        2.890      330.585       77.399        0.055      346.474       24.745      860.047
07/11/2014  03:35:00     -456.298     -131.677      -36.033      203.083      133.215       70.177    41242.741    17746.179     4924.776       14.537        3.196      474.918       81.743        0.030      346.476       24.749      860.070
07/11/2014  03:36:00     -187.344      -35.593       -3.968      122.939       87.638       54.294    15113.987     7680.442     2947.872        3.106        1.287      190.695       59.504        0.097      346.457       24.715      860.090
07/11/2014  03:37:00     -286.177      -67.787        6.948      156.701      119.155       66.671    24555.297    14197.810     4445.013        6.486        2.160      294.096       69.686        0.056      346.461       24.723      860.113
07/11/2014  03:38:00     -280.207      -34.442        5.390      284.196      108.054       83.267    80767.368    11675.765     6933.466        8.953        4.969      282.316      130.403        0.213      346.443       24.691      860.100
07/11/2014  03:39:00     -437.669      -33.790      -20.206      175.068      142.643       88.836    30648.653    20346.903     7891.872       12.598        2.944      438.972       92.704        0.045      346.416       24.645      860.109
07/11/2014  03:40:00     -379.818       -9.660      -43.479      162.291       97.194       68.684    26338.384     9446.654     4717.560        9.337        2.025      379.941       69.171        0.033      346.419       24.650      860.142
07/11/2014  03:41:00     -216.447      -99.174       -1.174      170.486      163.177       86.490    29065.443    26626.868     7480.564        5.992        3.159      238.085       78.917        0.110      346.407       24.630      860.125
07/11/2014  03:42:00     -153.988      -15.114       22.985      142.727       90.163       54.601    20370.897     8129.398     2981.236        2.797        1.574      154.728       65.012        0.177      346.398       24.615      860.143
07/11/2014  03:43:00     -154.941      -97.448       -9.785      161.131      163.510       78.800    25963.270    26735.538     6209.381        4.624        2.945      183.037       66.092        0.130      346.381       24.586      860.129
07/11/2014  03:44:00     -381.164     -138.168      -32.932      141.908      109.839       58.579    20137.866    12064.647     3431.552       10.054        1.782      405.433       55.365        0.019      346.356       24.541      860.143
07/11/2014  03:45:00     -191.264      -88.855        5.539      110.142      123.220       62.420    12131.201    15183.172     3896.285        3.785        1.561      210.896       50.998        0.058      346.354       24.538      860.157
07/11/2014  03:46:00     -248.931        0.606        8.504      164.195      107.944       67.030    26960.150    11651.969     4493.035        5.256        2.155      248.932       76.753        0.095      346.331       24.500      860.162
07/11/2014  03:47:00     -237.959      -47.715        2.547      130.045      117.339       67.712    16911.678    13768.400     4584.852        4.708        1.763      242.696       70.138        0.084      346.320       24.481      860.158
07/11/2014  03:48:00     -254.479      -75.056        7.152      123.988      149.180       66.863    15373.060    22254.560     4470.699        5.626        2.105      265.317       63.315        0.057      346.317       24.476      860.169
07/11/2014  03:49:00     -466.920     -200.914      -28.373      182.117      131.841       81.901    33166.636    17382.148     6707.746       15.821        2.863      508.311       78.691        0.024      346.305       24.454      860.180
07/11/2014  03:50:00     -187.785       -6.622      -22.960      131.940      112.316       63.889    17408.261    12614.892     4081.857        3.496        1.705      187.901       73.349        0.152      346.310       24.463      860.184
07/11/2014  03:51:00     -148.956      -71.698        1.475      144.826       98.734       54.935    20974.488     9748.388     3017.819        3.053        1.687      165.313       63.019        0.145      346.317       24.476      860.182
07/11/2014  03:52:00     -275.631      -24.822       17.834      233.344      148.292       90.038    54449.500    21990.607     8106.931        8.071        4.227      276.747      112.472        0.165      346.310       24.463      860.189
07/11/2014  03:53:00     -234.543      -62.814        8.437      149.870      134.471       64.360    22461.068    18082.442     4142.208        5.185        2.234      242.808       71.377        0.086      346.306       24.456      860.213
07/11/2014  03:54:00     -276.325       18.998      -11.041      198.672       95.584       72.305    39470.619     9136.348     5227.950        6.533        2.692      276.977       87.810        0.101      346.300       24.447      860.211
07/11/2014  03:55:00     -306.861      -97.106      -10.911      152.434      134.806       60.812    23236.017    18172.740     3698.088        7.440        2.255      321.859       73.553        0.052      346.302       24.448      860.223
07/11/2014  03:56:00     -188.198      -89.130       12.177      205.911      175.308       92.308    42399.495    30732.756     8520.722        6.257        4.083      208.237      123.804        0.353      346.293       24.434      860.217
07/11/2014  03:57:00     -209.362       -7.076       -1.360      128.332       90.013       59.621    16469.179     8102.403     3554.640        3.600        1.406      209.482       55.928        0.071      346.294       24.436      860.254
07/11/2014  03:58:00     -364.742      -93.086       -3.317      137.674      119.170       68.703    18954.188    14201.521     4720.127        8.979        1.894      376.433       68.893        0.033      346.266       24.385      860.268
07/11/2014  03:59:00     -400.968     -125.476      -14.337      148.848      137.409       80.086    22155.629    18881.306     6413.810       11.208        2.373      420.142       75.973        0.033      346.264       24.381      860.274
07/11/2014  04:00:00     -255.822      -91.352       18.231      202.553      133.678       84.823    41027.692    17869.862     7194.867        7.009        3.305      271.643      103.008        0.144      346.260       24.377      860.298
07/11/2014  04:01:00     -272.465      -48.802       -0.942      191.286      128.591       70.322    36590.199    16535.624     4945.119        6.733        2.904      276.801       82.379        0.089      346.250       24.360      860.320
07/11/2014  04:02:00     -247.388     -179.988       -3.409      176.165      124.007       69.952    31034.255    15377.839     4893.263        7.245        2.565      305.935       78.553        0.066      346.252       24.362      860.317
07/11/2014  04:03:00     -371.690     -179.544      -27.913      222.118      151.870       87.624    49336.538    23064.648     7678.005       12.561        4.004      412.782       77.281        0.035      346.238       24.338      860.334
07/11/2014  04:04:00     -396.871     -141.048      -14.827      175.621      156.556       72.677    30842.814    24509.687     5281.951       11.912        3.032      421.190       82.227        0.038      346.218       24.303      860.368
07/11/2014  04:05:00     -387.052      -98.869       -5.547      146.970      127.257       73.126    21600.258    16194.345     5347.438       10.137        2.157      399.480       72.481        0.033      346.219       24.304      860.367
07/11/2014  04:06:00     -564.996     -111.825      -56.830      158.594      144.558       66.559    25152.055    20896.936     4430.040       19.271        2.524      575.956       59.064        0.011      346.221       24.307      860.381
07/11/2014  04:07:00     -203.160      -55.884       -0.593       95.535      110.846       57.126     9126.967    12286.808     3263.381        3.453        1.234      210.706       51.317        0.059      346.224       24.312      860.388
07/11/2014  04:08:00     -312.075       31.155      -13.692      121.439      108.172       63.270    14747.321    11701.126     4003.047        6.449        1.523      313.626       66.228        0.045      346.179       24.237      860.430
07/11/2014  04:09:00     -416.949      -33.451      -26.692      150.195      130.531       71.554    22558.670    17038.416     5120.017       11.019        2.236      418.289       72.162        0.030      346.179       24.235      860.433
07/11/2014  04:10:00     -354.786      -74.097       -8.438      195.797      147.500       80.137    38336.386    21756.356     6421.923        9.896        3.326      362.441       91.591        0.064      346.174       24.228      860.407
07/11/2014  04:11:00     -329.692      -41.750      -30.827      115.845      127.512       57.200    13420.114    16259.379     3271.822        7.216        1.648      332.325       48.349        0.021      346.158       24.201      860.444
07/11/2014  04:12:00     -313.668      -58.795      -27.559      119.036      103.167       54.813    14169.528    10643.443     3004.510        6.521        1.391      319.131       60.979        0.037      346.148       24.185      860.433
07/11/2014  04:13:00     -326.832     -106.268      -16.306      146.051      107.036       74.488    21330.882    11456.649     5548.493        7.835        1.917      343.675       75.573        0.048      346.140       24.171      860.459
07/11/2014  04:14:00     -379.854      -15.942      -16.003      199.061      130.315       86.226    39625.420    16981.961     7435.008       10.441        3.202      380.188      108.217        0.081      346.136       24.162      860.467
07/11/2014  04:15:00     -336.910      -86.918      -27.752      135.618      107.173       61.227    18392.230    11486.000     3748.722        7.772        1.681      347.941       67.453        0.038      346.128       24.149      860.514
07/11/2014  04:16:00     -369.216      -29.268      -30.803      107.486      109.897       62.866    11553.280    12077.397     3952.081        8.285        1.379      370.374       58.332        0.025      346.107       24.112      860.501
07/11/2014  04:17:00     -291.289     -126.686      -12.218      131.290       94.113       58.796    17237.186     8857.262     3457.015        6.529        1.478      317.645       47.608        0.022      346.101       24.100      860.477
07/11/2014  04:18:00     -205.449      -60.321        2.157      127.971       98.984       57.343    16376.650     9797.759     3288.249        3.765        1.473      214.121       62.214        0.084      346.084       24.076      860.511
07/11/2014  04:19:00     -227.442      -76.474        8.102      159.252       90.493       63.178    25361.233     8188.946     3991.405        4.759        1.877      239.955       77.420        0.104      346.074       24.056      860.543
07/11/2014  04:20:00     -270.201      -69.144       -1.430      147.016       91.963       57.089    21613.642     8457.127     3259.135        5.555        1.666      278.907       64.085        0.053      346.046       24.010      860.551
07/11/2014  04:21:00     -403.968      -90.520      -12.071      170.041      153.246       69.350    28914.019    23484.370     4809.354       11.436        2.860      413.985       70.318        0.029      346.047       24.011      860.587
07/11/2014  04:22:00     -394.910        8.413      -35.990      148.630      149.123       73.233    22090.824    22237.746     5363.111       10.350        2.485      395.000       72.713        0.034      346.049       24.012      860.608
07/11/2014  04:23:00     -316.028      -36.018      -23.884      138.461      120.265       71.180    19171.435    14463.619     5066.568        7.021        1.935      318.074       68.766        0.047      346.038       23.995      860.596
07/11/2014  04:24:00     -279.230     -151.745       -4.714      138.184      108.027       67.333    19094.720    11669.887     4533.778        6.815        1.765      317.799       67.192        0.045      346.019       23.963      860.609
07/11/2014  04:25:00     -321.924      -69.558       -3.906      166.270      127.614       71.641    27645.733    16285.243     5132.455        7.877        2.453      329.353       73.039        0.049      346.000       23.931      860.651
07/11/2014  04:26:00     -362.591      -74.056      -17.390      179.940      111.392       64.487    32378.244    12408.227     4158.523        9.309        2.447      370.077       83.369        0.051      346.001       23.931      860.687
07/11/2014  04:27:00     -369.000      -96.173      -21.223      160.279      108.177       63.373    25689.272    11702.158     4016.100        9.363        2.070      381.327       75.312        0.039      345.994       23.919      860.692
07/11/2014  04:28:00     -331.269      -46.132      -18.964      117.092       90.087       52.366    13710.578     8115.587     2742.176        6.839        1.228      334.466       57.796        0.030      345.992       23.918      860.690
07/11/2014  04:29:00     -323.994     -156.123      -25.337      114.281      120.905       57.803    13060.115    14617.995     3341.221        8.050        1.551      359.648       46.110        0.016      345.986       23.906      860.687
07/11/2014  04:30:00     -320.769      -33.901      -11.427      188.441      104.106       69.362    35510.107    10837.956     4811.047        7.766        2.558      322.555       77.827        0.058      345.958       23.857      860.680
07/11/2014  04:31:00     -473.585     -100.483      -24.699      177.437      147.474       74.677    31483.776    21748.538     5576.642       14.689        2.940      484.128       74.952        0.024      345.940       23.826      860.696
07/11/2014  04:32:00     -467.721      -87.522      -26.922      158.159      120.903       76.116    25014.197    14617.488     5793.609       13.628        2.271      475.840       89.719        0.036      345.938       23.822      860.717
07/11/2014  04:33:00     -430.205      -87.996      -14.665      187.419      177.232       80.150    35125.987    31411.134     6424.029       13.298        3.648      439.112       79.156        0.032      345.928       23.806      860.716
07/11/2014  04:34:00     -371.670     -165.878       -2.624      176.330      132.786       74.400    31092.197    17632.184     5535.390       10.995        2.713      407.006       83.796        0.042      345.910       23.774      860.675
07/11/2014  04:35:00     -330.322      -88.062       -4.894      185.883      124.334       69.855    34552.364    15458.841     4879.662        8.588        2.745      341.859       70.282        0.042      345.921       23.793      860.672
07/11/2014  04:36:00     -534.915      -35.109      -33.875      180.064      144.469       85.474    32423.202    20871.324     7305.764       17.455        3.030      536.066       83.638        0.024      345.918       23.787      860.667
07/11/2014  04:37:00     -389.639     -115.136       -9.703      135.942      123.373       71.126    18480.230    15221.014     5058.919       10.196        1.938      406.294       61.112        0.023      345.912       23.777      860.669
07/11/2014  04:38:00     -357.669      -92.350      -25.454      163.730      134.026       73.655    26807.374    17963.102     5425.106        9.364        2.510      369.399       74.157        0.040      345.890       23.741      860.678
07/11/2014  04:39:00     -409.314      -59.921      -35.664      191.967      128.651       77.476    36851.152    16551.139     6002.555       11.589        2.970      413.677       86.101        0.043      345.892       23.745      860.655
07/11/2014  04:40:00     -435.950      -74.894      -22.843      174.807      147.845       83.687    30557.660    21858.280     7003.527       12.779        2.971      442.337       73.706        0.028      345.889       23.739      860.652
07/11/2014  04:41:00     -384.680     -104.102      -31.568      150.208      145.331       69.438    22562.575    21120.972     4821.688       10.415        2.425      398.517       78.151        0.038      345.886       23.734      860.661
07/11/2014  04:42:00     -525.464      -78.874      -36.739      168.349      168.766       71.741    28341.432    28481.897     5146.798       17.281        3.099      531.351       73.870        0.019      345.863       23.694      860.667
07/11/2014  04:43:00     -376.633      -92.496      -21.905      178.274      131.294       76.081    31781.703    17238.109     5788.292       10.284        2.740      387.825       87.920        0.051      345.877       23.719      860.681
07/11/2014  04:44:00     -302.459      -52.924      -17.330       71.477       92.528       50.955     5108.927     8561.367     2596.366        5.542        0.813      307.055       24.558        0.006      345.880       23.725      860.689
07/11/2014  04:45:00     -424.934     -105.446      -22.360      167.799      132.299       77.054    28156.436    17502.955     5937.332       12.188        2.580      437.821       76.246        0.030      345.867       23.701      860.731
07/11/2014  04:46:00     -392.387      -74.391      -18.063      200.578      115.827       78.411    40231.672    13416.000     6148.347       10.980        2.990      399.376       93.631        0.055      345.854       23.679      860.776
07/11/2014  04:47:00     -298.038       13.195      -14.881      180.258       91.634       68.164    32492.923     8396.792     4646.372        6.737        2.277      298.330       80.140        0.072      345.850       23.672      860.811
07/11/2014  04:48:00     -296.175      -40.629       -7.198      108.739      102.383       64.249    11824.169    10482.237     4127.957        5.792        1.322      298.949       58.368        0.038      345.852       23.675      860.802
07/11/2014  04:49:00     -375.219     -147.657      -19.525      190.451      159.737       84.400    36271.682    25515.837     7123.377       11.593        3.446      403.227      101.339        0.063      345.845       23.663      860.821
07/11/2014  04:50:00     -310.851      -85.400      -12.255      169.218      112.564       69.517    28634.709    12670.756     4832.585        7.510        2.307      322.368       72.373        0.050      345.853       23.675      860.835
07/11/2014  04:51:00     -387.907      -36.809      -16.286      176.488      143.524       76.689    31148.003    20599.070     5881.177       10.485        2.881      389.649       85.594        0.048      345.843       23.660      860.838
07/11/2014  04:52:00     -270.174     -117.919       -1.245      119.472      116.903       57.289    14273.660    13666.301     3282.056        5.906        1.561      294.786       57.539        0.038      345.837       23.650      860.837
07/11/2014  04:53:00     -330.112      -59.259      -33.382       93.721      117.806       55.694     8783.678    13878.303     3101.767        6.968        1.288      335.389       47.543        0.020      345.852       23.676      860.823
07/11/2014  04:54:00     -332.214      -62.856      -11.520      141.081      125.937       68.125    19903.923    15860.167     4641.001        7.742        2.020      338.108       69.406        0.042      345.841       23.657      860.829
07/11/2014  04:55:00     -268.922      -19.952       -7.771      170.018      124.858       67.604    28906.068    15589.540     4570.353        6.091        2.453      269.661       81.987        0.092      345.853       23.677      860.799
07/11/2014  04:56:00     -337.843      -54.741      -12.258      193.858      136.540       76.275    37580.941    18643.123     5817.876        8.965        3.102      342.250       89.519        0.068      345.845       23.663      860.812
07/11/2014  04:57:00     -428.096      -91.680      -30.000      184.626      111.161       64.610    34086.705    12356.840     4174.507       12.158        2.531      437.803       72.943        0.028      345.866       23.701      860.795
07/11/2014  04:58:00     -378.814      -85.137       -6.010      174.637      139.973       70.542    30498.090    19592.328     4976.149       10.291        2.753      388.263       67.227        0.030      345.841       23.656      860.783
07/11/2014  04:59:00     -288.072      -66.423       -2.350      143.719      138.592       69.234    20655.082    19207.816     4793.338        6.602        2.233      295.631       46.138        0.024      345.848       23.670      860.773
07/11/2014  05:00:00     -388.633      -97.896      -22.438      153.145      144.552       68.071    23453.456    20895.406     4633.702       10.504        2.449      400.774       73.010        0.033      345.839       23.653      860.778
07/11/2014  05:01:00     -294.562       32.901        2.088      179.050      136.755       76.252    32058.761    18702.049     5814.328        7.220        2.829      296.393       86.949        0.086      345.825       23.630      860.800
07/11/2014  05:02:00     -358.497       39.805      -24.785      152.283      124.927       69.920    23190.070    15606.708     4888.848        8.719        2.184      360.700       60.837        0.028      345.852       23.675      860.799
07/11/2014  05:03:00     -352.008      -82.192       -6.339      165.101      131.326       68.596    27258.256    17246.502     4705.373        8.995        2.461      361.476       80.113        0.049      345.826       23.631      860.785
07/11/2014  05:04:00     -237.171      -66.378        1.977      129.107      105.294       66.214    16668.729    11086.925     4384.237        4.639        1.607      246.284       66.064        0.072      345.827       23.633      860.809
07/11/2014  05:05:00     -306.343      -70.004      -24.960      107.493       98.442       52.225    11554.680     9690.910     2727.443        6.167        1.199      314.239       52.810        0.028      345.842       23.658      860.822
07/11/2014  05:06:00     -315.591      -18.753      -14.686       99.805       81.291       49.872     9961.055     6608.177     2487.233        5.961        0.953      316.148       55.698        0.031      345.829       23.635      860.819
07/11/2014  05:07:00     -244.443      -52.202       -1.019      120.438       80.077       60.509    14505.244     6412.255     3661.328        4.352        1.229      249.955       66.928        0.072      345.812       23.606      860.851
07/11/2014  05:08:00     -311.138     -142.482      -14.300      116.727      110.764       71.863    13625.230    12268.690     5164.220        7.418        1.553      342.210       59.370        0.030      345.826       23.631      860.861
07/11/2014  05:09:00     -164.753      -49.564       -2.518      134.465       85.398       59.292    18080.713     7292.735     3515.533        2.924        1.444      172.047       69.922        0.165      345.813       23.609      860.888
07/11/2014  05:10:00     -237.871      -16.371      -10.007      121.171       95.474       59.391    14682.454     9115.279     3527.320        4.213        1.366      238.434       65.999        0.077      345.821       23.623      860.884
07/11/2014  05:11:00     -275.913      -22.786      -11.253      114.698      103.363       55.015    13155.652    10683.970     3026.696        5.181        1.343      276.852       53.902        0.038      345.788       23.565      860.907
07/11/2014  05:12:00     -397.113        5.368      -37.183      147.276      122.065       69.565    21690.097    14899.937     4839.282       10.026        2.071      397.149       77.536        0.038      345.811       23.606      860.939
07/11/2014  05:13:00     -329.895      -59.069      -11.799      160.896      134.420       66.490    25887.612    18068.790     4420.872        8.041        2.419      335.142       77.927        0.054      345.824       23.628      860.942
07/11/2014  05:14:00     -369.998       -6.162      -14.583      140.202      142.429       70.555    19656.661    20285.909     4978.006        9.103        2.246      370.050       77.190        0.044      345.808       23.601      860.932
07/11/2014  05:15:00     -381.978      -16.493      -26.005      137.159      106.506       58.000    18812.708    11343.472     3363.966        9.018        1.676      382.334       56.899        0.022      345.791       23.570      860.970
07/11/2014  05:16:00     -299.520      -17.488      -15.957      150.538       90.887       65.784    22661.584     8260.356     4327.562        6.275        1.762      300.030       80.700        0.072      345.791       23.571      860.992
07/11/2014  05:17:00     -301.110      -25.629      -21.650      111.980      118.499       62.973    12539.588    14042.046     3965.595        6.116        1.527      302.199       55.702        0.034      345.800       23.586      860.971
07/11/2014  05:18:00     -240.083      -61.940      -29.432      100.105      151.643       47.276    10020.965    22995.605     2234.987        4.879        1.763      247.944       41.171        0.028      345.787       23.563      860.970
07/11/2014  05:19:00     -393.029      -88.226      -13.382      115.142      109.652       64.387    13257.637    12023.585     4145.710        9.593        1.471      402.810       62.672        0.024      345.767       23.530      860.989
07/11/2014  05:20:00     -271.756     -129.931      -16.237      114.715      116.980       51.005    13159.548    13684.396     2601.493        6.022        1.472      301.220       38.986        0.017      345.792       23.572      860.986
07/11/2014  05:21:00     -325.382       18.142      -13.681      180.288      110.483       58.818    32503.644    12206.470     3459.543        7.727        2.408      325.888       71.708        0.048      345.779       23.550      860.995
07/11/2014  05:22:00     -407.446       60.730      -33.196      126.851      113.704       64.558    16091.302    12928.541     4167.690       10.199        1.659      411.947       57.052        0.019      345.789       23.568      861.014
07/11/2014  05:23:00     -332.546       -7.785      -10.209      177.500      105.802       68.816    31506.376    11194.147     4735.669        7.908        2.372      332.637       81.611        0.060      345.773       23.539      860.986
07/11/2014  05:24:00     -583.944      -37.325      -38.101      179.531      144.304       81.783    32231.320    20823.741     6688.537       20.178        2.987      585.136       90.073        0.024      345.793       23.574      860.992
07/11/2014  05:25:00     -463.505       21.162      -44.284      181.290      155.545       80.354    32866.144    24194.247     6456.785       14.037        3.176      463.988       89.505        0.037      345.796       23.579      861.028
07/11/2014  05:26:00     -316.649      -48.846      -12.505      116.250       90.581       49.855    13514.014     8205.003     2485.475        6.350        1.210      320.394       36.792        0.013      345.794       23.577      861.018
07/11/2014  05:27:00     -318.097      -47.236      -33.468      123.846      117.913       49.064    15337.723    13903.390     2407.275        6.809        1.582      321.585       33.621        0.011      345.761       23.520      861.027
07/11/2014  05:28:00     -316.552       10.557      -13.279      154.363      102.841       61.257    23828.085    10576.183     3752.403        6.932        1.908      316.728       64.789        0.042      345.722       23.454      861.028
07/11/2014  05:29:00     -277.849      -73.647       -3.684      127.957       97.981       57.776    16373.092     9600.295     3338.057        5.597        1.466      287.443       58.978        0.042      345.688       23.396      861.058
07/11/2014  05:30:00     -403.710      -69.010      -18.298      168.001      112.931       72.677    28224.280    12753.300     5281.946       10.716        2.313      409.566       81.189        0.039      345.685       23.387      861.070
07/11/2014  05:31:00     -345.267      -28.827      -19.310      153.379      128.742       68.843    23525.210    16574.551     4739.339        8.262        2.242      346.468       80.841        0.054      345.670       23.362      861.056
07/11/2014  05:32:00     -262.479      -12.545      -11.583      165.690      110.116       75.115    27453.264    12125.593     5642.306        5.719        2.261      262.778       89.594        0.116      345.636       23.304      861.036
07/11/2014  05:33:00     -335.958      -90.564      -20.363      131.868      129.210       66.372    17389.076    16695.116     4405.189        7.998        1.924      347.951       58.592        0.028      345.636       23.303      861.036
07/11/2014  05:34:00     -388.070      -40.211      -20.175      163.923      151.430       68.097    26870.823    22930.943     4637.265       10.352        2.722      390.147       71.662        0.034      345.668       23.360      861.021
07/11/2014  05:35:00     -415.447      -66.524      -33.782      144.670      123.880       69.195    20929.453    15346.343     4787.989       10.961        2.053      420.739       68.634        0.027      345.682       23.382      861.020
07/11/2014  05:36:00     -245.482      -51.562      -17.175       95.033       94.853       52.335     9031.354     8997.123     2738.989        4.199        1.038      250.839       48.182        0.037      345.655       23.336      861.011
07/11/2014  05:37:00     -440.585      -69.419      -26.555      201.490      112.823       69.070    40598.167    12728.935     4770.659       12.886        2.905      446.021       80.363        0.032      345.629       23.291      861.002
07/11/2014  05:38:00     -413.680     -132.778      -32.160      183.991      141.270       83.243    33852.714    19957.256     6929.429       12.526        3.037      434.467       84.896        0.038      345.635       23.303      860.980
07/11/2014  05:39:00     -491.828     -124.768      -23.396      221.090      153.740       88.908    48880.894    23635.883     7904.616       16.920        4.021      507.407      105.996        0.044      345.641       23.313      860.969
07/11/2014  05:40:00     -418.863      -62.978      -30.993      135.798      130.009       62.657    18441.195    16902.271     3925.908       10.981        1.963      423.572       65.011        0.024      345.630       23.293      861.009
07/11/2014  05:41:00     -291.747     -137.876      -17.369      125.968      105.051       55.785    15868.020    11035.749     3111.911        6.722        1.501      322.686       45.856        0.020      345.619       23.275      860.992
07/11/2014  05:42:00     -295.735      -26.300        1.040      130.879       97.330       70.736    17129.396     9473.225     5003.604        5.987        1.580      296.902       69.079        0.054      345.605       23.250      861.005
07/11/2014  05:43:00     -289.498      -59.105       -3.737      147.592       98.866       60.731    21783.403     9774.573     3688.196        6.127        1.762      295.470       61.055        0.043      345.550       23.156      861.031
07/11/2014  05:44:00     -330.973      -31.704      -22.075      142.931      103.988       63.601    20429.162    10813.475     4045.124        7.315        1.764      332.488       65.460        0.039      345.550       23.158      861.018
07/11/2014  05:45:00     -293.453      -44.058      -13.695      149.060       92.557       59.458    22218.779     8566.873     3535.269        6.128        1.716      296.742       57.864        0.038      345.553       23.164      861.012
07/11/2014  05:46:00     -388.559      -55.043      -22.021      167.597      126.460       83.946    28088.694    15992.063     7047.004       10.280        2.556      392.438       86.938        0.049      345.550       23.157      861.028
07/11/2014  05:47:00     -513.163      -87.725      -30.488      207.913      149.197       86.817    43227.800    22259.873     7537.119       17.248        3.651      520.608       98.834        0.036      345.565       23.183      861.042
07/11/2014  05:48:00     -357.873     -108.147      -13.970      154.036      127.350       64.664    23726.986    16218.135     4181.492        9.204        2.206      373.857       65.394        0.031      345.584       23.215      861.045
07/11/2014  05:49:00     -388.515       -5.965      -36.800      175.008      110.980       70.499    30627.682    12316.465     4970.103       10.011        2.396      388.560       79.359        0.042      345.555       23.165      861.043
07/11/2014  05:50:00     -292.792      -13.502      -22.392      101.128       93.384       41.777    10226.931     8720.614     1745.287        5.355        1.035      293.103       33.638        0.013      345.544       23.147      861.052
07/11/2014  05:51:00     -271.056      -80.244        2.740      172.914       99.408       70.878    29899.129     9881.913     5023.636        6.235        2.240      282.684       81.024        0.082      345.516       23.099      861.030
07/11/2014  05:52:00     -422.387      -17.067      -19.975      151.104      163.468       63.608    22832.483    26721.935     4045.983       11.634        2.680      422.731       65.813        0.024      345.546       23.150      861.029
07/11/2014  05:53:00     -372.860      -91.901       -6.125      267.766      124.565       96.728    71698.449    15516.374     9356.292       12.202        4.829      384.019      123.096        0.103      345.612       23.262      861.016
07/11/2014  05:54:00     -329.395      -48.837       -6.997      166.552      159.812       84.680    27739.605    25539.877     7170.659        8.568        3.023      332.996       79.923        0.058      345.606       23.253      861.068
07/11/2014  05:55:00     -330.603       -9.004      -18.197      151.952      129.990       65.492    23089.500    16897.520     4289.138        7.698        2.214      330.726       57.559        0.030      345.616       23.271      861.097
07/11/2014  05:56:00     -371.315      -76.807      -23.768      160.158      138.002       76.429    25650.516    19044.497     5841.341        9.743        2.527      379.176       79.493        0.044      345.600       23.242      861.096
07/11/2014  05:57:00     -439.616      -36.934      -27.664      137.946      148.577       63.418    19029.151    22075.138     4021.806       12.025        2.256      441.165       54.992        0.016      345.598       23.238      861.122
07/11/2014  05:58:00     -241.525      -34.938      -15.717      173.234      100.400       54.062    30010.105    10080.254     2922.657        5.140        2.151      244.039       63.460        0.068      345.570       23.192      861.159
07/11/2014  05:59:00     -103.051        7.507        1.829       85.425       43.119       34.960     7297.391     1859.270     1222.185        1.053        0.519      103.324       40.145        0.151      345.573       23.199      861.132
07/11/2014  06:00:00     -153.871      -49.667      -16.278      101.464       91.882       55.899    10294.885     8442.344     3124.655        2.413        1.093      161.688       54.002        0.112      345.590       23.226      861.146
07/11/2014  06:01:00     -261.428      -80.953      -15.914      144.441      111.154       51.846    20863.119    12355.266     2688.043        5.552        1.795      273.675       19.064        0.005      345.551       23.160      861.154
07/11/2014  06:02:00     -439.349     -108.455      -23.729      164.409      150.684       71.204    27030.416    22705.734     5070.016       13.007        2.740      452.538       71.798        0.025      345.558       23.170      861.140
07/11/2014  06:03:00     -429.799     -134.125       -5.294      152.752      169.320       77.945    23333.282    28669.409     6075.497       13.040        2.904      450.241       75.232        0.028      345.571       23.194      861.130
07/11/2014  06:04:00     -406.241      -92.342      -31.143      117.228      105.477       64.339    13742.371    11125.358     4139.526       10.176        1.450      416.604       56.320        0.018      345.582       23.212      861.128
07/11/2014  06:05:00     -383.178     -129.893      -25.262      146.849      160.508       76.580    21564.514    25762.674     5864.482       10.875        2.660      404.595       77.347        0.037      345.555       23.166      861.124
07/11/2014  06:06:00     -274.665      -39.590      -14.293      140.723      104.491       54.941    19802.996    10918.333     3018.482        5.547        1.687      277.504       66.939        0.058      345.561       23.176      861.116
07/11/2014  06:07:00     -410.954       43.993      -30.482      165.423      133.775       73.372    27364.728    17895.831     5383.413       11.119        2.532      413.302       70.885        0.029      345.507       23.081      861.115
07/11/2014  06:08:00     -431.904      -87.889      -18.790      146.123      115.606       76.036    21351.828    13364.691     5781.538       11.755        2.025      440.756       77.703        0.031      345.505       23.079      861.142
07/11/2014  06:09:00     -228.841      -24.935       -7.751      104.773       93.018       54.341    10977.439     8652.425     2952.931        3.781        1.129      230.195       56.798        0.061      345.491       23.054      861.132
07/11/2014  06:10:00     -335.488        0.632      -11.239      176.354      100.744       70.873    31100.565    10149.374     5022.949        7.947        2.314      335.489       74.311        0.049      345.484       23.043      861.142
07/11/2014  06:11:00     -378.628      -22.458      -33.200      120.057      123.687       71.869    14413.759    15298.354     5165.112        8.991        1.744      379.293       60.673        0.026      345.479       23.035      861.170
07/11/2014  06:12:00     -408.146       -9.165      -14.938      268.418      148.048       84.600    72048.190    21918.200     7157.124       13.399        5.056      408.249      109.428        0.072      345.509       23.087      861.203
07/11/2014  06:13:00     -260.433      -43.640        3.861      161.000      138.748       56.222    25921.073    19250.911     3160.957        5.903        2.417      264.064       62.848        0.057      345.516       23.099      861.230
07/11/2014  06:14:00     -354.573      -86.532      -23.463      144.230      119.111       68.690    20802.232    14187.377     4718.266        8.673        1.985      364.979       74.375        0.042      345.509       23.085      861.198
07/11/2014  06:15:00     -236.681      -97.524       -1.453      134.190       95.428       54.445    18006.994     9106.429     2964.244        4.780        1.504      255.986       65.296        0.065      345.486       23.047      861.215
07/11/2014  06:16:00     -256.810      -54.936       -2.091      151.576      103.329       56.238    22975.301    10676.977     3162.746        5.289        1.841      262.621       77.095        0.086      345.478       23.033      861.218
07/11/2014  06:17:00     -434.587      -69.300      -33.069      155.029      166.609       89.313    24033.896    27758.531     7976.822       12.725        2.988      440.077       83.737        0.036      345.501       23.072      861.258
07/11/2014  06:18:00     -387.967     -104.306      -13.318      152.692      136.862       80.440    23314.980    18731.096     6470.537       10.504        2.426      401.744       84.557        0.044      345.515       23.097      861.272
07/11/2014  06:19:00     -354.017     -102.532      -22.340      147.428       98.149       66.663    21734.913     9633.271     4444.013        8.607        1.791      368.566       75.303        0.042      345.523       23.110      861.300
07/11/2014  06:20:00     -308.626      -74.081      -10.762      149.575      101.906       66.575    22372.615    10384.816     4432.209        6.901        1.859      317.393       69.303        0.048      345.531       23.124      861.283
07/11/2014  06:21:00     -316.312      -62.370      -12.534      112.530      103.389       50.808    12663.020    10689.295     2581.432        6.501        1.297      322.403       41.065        0.016      345.522       23.108      861.302
07/11/2014  06:22:00     -370.276       25.383      -28.205      148.694      110.948       57.408    22109.857    12309.426     3295.714        8.812        1.886      371.145       60.218        0.026      345.517       23.100      861.315
07/11/2014  06:23:00     -330.449     -132.886      -10.550      138.794      143.611       63.497    19263.723    20624.122     4031.806        8.543        2.196      356.168       72.279        0.041      345.519       23.103      861.316
07/11/2014  06:24:00     -307.822      -49.437      -11.572      120.948      108.316       59.867    14628.313    11732.338     3584.004        6.363        1.497      311.767       59.850        0.037      345.536       23.132      861.287
07/11/2014  06:25:00     -313.581      -70.102        8.301      158.493      137.895       77.958    25120.077    19015.101     6077.406        7.675        2.511      321.322       84.215        0.069      345.534       23.130      861.279
07/11/2014  06:26:00     -255.313        3.807       -5.522      196.790       94.135       71.215    38726.363     8861.437     5071.600        5.893        2.633      255.341       74.417        0.085      345.524       23.112      861.292
07/11/2014  06:27:00     -401.336      -33.568      -16.090      103.492      124.733       73.257    10710.502    15558.301     5366.636        9.704        1.582      402.737       61.654        0.023      345.513       23.094      861.293
07/11/2014  06:28:00     -359.954      -40.209       -8.478      206.212       85.886       74.448    42523.317     7376.490     5542.491        9.334        2.772      362.193       95.443        0.069      345.519       23.102      861.287
07/11/2014  06:29:00     -414.393      -85.971      -16.736      175.835      135.856       77.217    30917.919    18456.781     5962.485       11.735        2.767      423.217       88.291        0.044      345.510       23.088      861.276
07/11/2014  06:30:00     -316.626      -88.237       -1.772      223.176      105.170       77.285    49807.323    11060.718     5972.908        8.743        3.342      328.691      104.650        0.101      345.503       23.077      861.277
07/11/2014  06:31:00     -389.150     -149.385      -16.971      178.296      125.958       67.754    31789.519    15865.525     4590.609       11.313        2.612      416.838       75.870        0.033      345.498       23.068      861.293
07/11/2014  06:32:00     -391.966      -38.633      -29.774      231.004       97.204       67.789    53362.857     9448.616     4595.360       11.170        3.370      393.865       84.472        0.046      345.518       23.102      861.299
07/11/2014  06:33:00     -461.235       31.901      -41.806      195.172      126.979       68.171    38092.275    16123.738     4647.306       13.717        2.943      462.337       88.604        0.037      345.493       23.057      861.307
07/11/2014  06:34:00     -370.333       50.451      -40.297      185.188      117.834       67.000    34294.621    13884.896     4489.015        9.698        2.633      373.754       75.737        0.041      345.475       23.026      861.286
07/11/2014  06:35:00     -316.653      -47.554       -7.572      126.705      113.465       61.550    16054.086    12874.329     3788.425        6.765        1.636      320.204       66.157        0.043      345.452       22.989      861.299
07/11/2014  06:36:00     -362.121       -8.793      -15.456      182.011      120.622       69.994    33128.088    14549.683     4899.178        9.200        2.629      362.228       73.257        0.041      345.462       23.005      861.316
07/11/2014  06:37:00     -260.501       22.056       -3.392      105.943       78.781       51.576    11223.978     6206.446     2660.100        4.422        1.005      261.433       42.957        0.027      345.464       23.007      861.330
07/11/2014  06:38:00     -282.892      -51.711       -5.872      103.531      106.072       43.894    10718.725    11251.212     1926.685        5.331        1.195      287.580       47.585        0.027      345.463       23.008      861.340
07/11/2014  06:39:00     -209.959      -81.463        0.092      131.664       98.295       58.739    17335.478     9661.979     3450.251        4.058        1.522      225.208       65.154        0.084      345.471       23.022      861.350
07/11/2014  06:40:00     -367.281      -60.372      -10.269      188.102      149.859       79.496    35382.437    22457.625     6319.552       10.139        3.208      372.209       90.631        0.059      345.489       23.051      861.333
07/11/2014  06:41:00     -403.741     -104.506      -11.528      170.593      138.173       73.234    29101.989    19091.892     5363.208       11.380        2.678      417.047       75.541        0.033      345.482       23.038      861.325
07/11/2014  06:42:00     -353.771     -137.689       -7.511      194.188      136.229       66.834    37708.929    18558.236     4466.847       10.244        3.037      379.621       68.503        0.033      345.489       23.052      861.340
07/11/2014  06:43:00     -448.120     -135.758       -5.801      218.532      138.135      105.170    47756.247    19081.324    11060.692       14.857        3.895      468.233       99.466        0.045      345.525       23.114      861.352
07/11/2014  06:44:00     -242.111       19.208      -12.112      182.747      163.072       75.920    33396.364    26592.564     5763.807        6.243        3.288      242.871       85.801        0.125      345.541       23.142      861.362
07/11/2014  06:45:00     -256.381      -51.341        0.757      188.646      121.915       82.008    35587.193    14863.322     6725.351        6.276        2.859      261.472       91.786        0.123      345.542       23.141      861.335
07/11/2014  06:46:00     -415.323     -140.406      -20.584      155.722      117.452       61.916    24249.268    13795.003     3833.639       11.725        2.094      438.414       60.957        0.019      345.536       23.133      861.328
07/11/2014  06:47:00     -380.586      -96.189      -23.738      124.998      123.525       64.460    15624.487    15258.470     4155.033        9.484        1.752      392.554       58.617        0.022      345.563       23.180      861.342
07/11/2014  06:48:00     -251.077      -71.650      -23.649      126.829      107.153       60.499    16085.528    11481.721     3660.123        4.997        1.561      261.101       57.491        0.048      345.610       23.259      861.332
07/11/2014  06:49:00     -430.891      -18.908      -31.266      214.032      123.821       74.250    45809.559    15331.754     5513.099       12.681        3.333      431.306       92.169        0.046      345.616       23.269      861.336
07/11/2014  06:50:00     -424.840      -13.587      -35.240      187.131      114.041       74.511    35017.922    13005.461     5551.822       11.773        2.679      425.057       95.190        0.050      345.621       23.279      861.342
07/11/2014  06:51:00     -468.918      -51.722      -33.494      138.318      128.572       68.347    19131.945    16530.833     4671.309       13.200        2.017      471.762       77.039        0.027      345.622       23.280      861.343
07/11/2014  06:52:00     -436.001     -108.444      -39.432       98.639      122.709       59.689     9729.712    15057.436     3562.835       11.588        1.417      449.285       52.250        0.014      345.640       23.310      861.326
07/11/2014  06:53:00     -430.114      -97.893       -9.883      168.833      118.788       63.619    28504.588    14110.599     4047.420       12.066        2.333      441.113       60.065        0.019      345.647       23.323      861.332
07/11/2014  06:54:00     -356.124      -29.326      -14.575      166.461       97.670       68.387    27709.379     9539.468     4676.751        8.490        2.096      357.330       79.761        0.050      345.697       23.410      861.350
07/11/2014  06:55:00     -260.693       -0.092      -11.194      179.652      119.590       76.831    32274.896    14301.781     5903.062        6.027        2.624      260.693       85.815        0.108      345.760       23.519      861.373
07/11/2014  06:56:00     -425.403        1.974      -20.690      146.357      153.800       70.132    21420.244    23654.533     4918.470       11.569        2.500      425.408       69.135        0.026      345.726       23.461      861.376
07/11/2014  06:57:00     -306.894      -74.479       -4.524      181.490      144.603       64.248    32938.677    20910.137     4127.794        7.885        2.899      315.802       77.545        0.060      345.789       23.568      861.393
07/11/2014  06:58:00     -295.721       97.380      -15.447      176.160       86.676       66.047    31032.491     7512.727     4362.146        7.003        2.145      311.342       68.180        0.048      345.777       23.550      861.396
07/11/2014  06:59:00     -357.852      -53.873      -38.720      107.236      123.023       60.218    11499.544    15134.606     3626.156        8.135        1.513      361.884       45.841        0.016      345.767       23.531      861.384
07/11/2014  07:00:00     -401.858     -146.839       -0.573      308.103      124.659       89.669    94927.179    15539.878     8040.462       15.076        5.925      427.845      109.367        0.065      345.768       23.532      861.366
07/11/2014  07:01:00     -450.987     -129.408      -27.554      182.756      127.771       61.974    33399.786    16325.448     3840.759       13.722        2.678      469.186       61.077        0.017      345.774       23.541      861.388
07/11/2014  07:02:00     -265.586      -71.451      -12.699      148.568      102.236       76.208    22072.370    10452.211     5807.725        5.706        1.917      275.029       87.180        0.100      345.828       23.633      861.374
07/11/2014  07:03:00     -375.779        7.158      -28.606      133.788      117.398       65.520    17899.104    13782.307     4292.899        8.902        1.799      375.848       56.621        0.023      345.783       23.557      861.392
07/11/2014  07:04:00     -404.108      -18.910      -33.901      149.338       96.106       58.309    22301.697     9236.358     3399.968        9.987        1.747      404.550       66.831        0.027      345.796       23.579      861.412
07/11/2014  07:05:00     -287.458      -89.059      -20.503      113.310       91.696       48.052    12839.256     8408.207     2309.006        5.727        1.178      300.938       41.025        0.019      345.837       23.650      861.398
07/11/2014  07:06:00     -249.960       -0.477      -19.333       87.916       90.433       49.374     7729.149     8178.204     2437.835        4.060        0.917      249.961       46.263        0.034      345.836       23.647      861.415
07/11/2014  07:07:00     -221.625      -11.492       -9.938      195.776       77.957       58.131    38328.103     6077.352     3379.159        4.856        2.389      221.923       68.866        0.096      345.903       23.765      861.411
07/11/2014  07:08:00     -242.670      -59.944       -2.171      155.084       84.511       62.781    24051.145     7142.108     3941.499        4.880        1.757      249.964       75.983        0.092      345.917       23.787      861.410
07/11/2014  07:09:00     -232.269      -74.530      -20.831      128.491      106.309       61.849    16509.951    11301.528     3825.321        4.578        1.582      243.933       52.589        0.046      345.937       23.823      861.438
07/11/2014  07:10:00     -319.630     -138.220      -33.441      198.645      106.506       65.175    39459.750    11343.620     4247.775        8.871        2.753      348.236       76.844        0.049      345.971       23.879      861.460
07/11/2014  07:11:00     -197.464      -56.974        1.571      151.405      106.528       62.022    22923.615    11348.144     3846.711        4.017        1.906      205.519       77.402        0.142      346.054       24.022      861.499
07/11/2014  07:12:00     -239.318        8.144      -14.889      115.952       88.786       51.281    13444.909     7882.987     2629.760        4.075        1.198      239.457       52.326        0.048      345.977       23.891      861.522
07/11/2014  07:13:00     -311.076      -42.575       -4.168      132.555      134.430       65.542    17570.749    18071.412     4295.810        6.926        1.997      313.976       67.941        0.047      345.921       23.793      861.494
07/11/2014  07:14:00     -188.410      -40.513       -9.516       92.754       63.437       33.072     8603.242     4024.288     1093.739        2.547        0.686      192.717       31.550        0.027      345.957       23.858      861.478
07/11/2014  07:15:00     -229.967       38.195      -17.919      128.301       66.174       49.220    16461.074     4379.016     2422.601        3.896        1.163      233.117       58.215        0.062      345.988       23.910      861.468
07/11/2014  07:16:00     -333.394      -66.282      -25.140      104.768       79.313       43.481    10976.270     6290.567     1890.630        6.766        0.958      339.919       34.973        0.011      345.990       23.912      861.485
07/11/2014  07:17:00     -400.867       -4.151      -23.560      121.441      149.027       59.546    14747.894    22209.188     3545.725       10.088        2.025      400.888       58.730        0.021      346.014       23.953      861.467
07/11/2014  07:18:00     -218.761      -28.446      -12.395       89.390      118.735       56.259     7990.542    14098.116     3165.065        3.703        1.263      220.603       40.743        0.034      346.063       24.038      861.453
07/11/2014  07:19:00     -337.763       41.881      -28.091      149.230       89.143       56.627    22269.696     7946.547     3206.616        7.502        1.671      340.349       48.505        0.020      346.071       24.050      861.449
07/11/2014  07:20:00     -440.823       -2.138      -43.013      205.752      143.553       69.798    42333.920    20607.495     4871.736       13.198        3.391      440.828       80.148        0.033      346.073       24.054      861.425
07/11/2014  07:21:00     -457.904      -50.480      -34.756      169.130      149.309       64.902    28605.046    22293.219     4212.265       13.426        2.756      460.678       49.064        0.011      346.123       24.141      861.427
07/11/2014  07:22:00     -346.826      -46.241      -17.328      164.906      151.540       64.262    27194.046    22964.507     4129.586        8.850        2.714      349.895       58.678        0.028      346.153       24.191      861.444
07/11/2014  07:23:00     -356.933      -23.272      -34.544      141.247      155.474       78.327    19950.652    24172.137     6135.083        8.969        2.513      357.690       77.914        0.047      346.155       24.194      861.475
07/11/2014  07:24:00     -403.597       62.255      -29.750      131.544      110.350       71.238    17303.857    12177.133     5074.808       10.110        1.728      408.370       72.550        0.032      346.154       24.193      861.491
07/11/2014  07:25:00     -385.449       90.680      -42.216      137.185      120.317       63.530    18819.599    14476.220     4036.021        9.795        1.867      395.972       51.894        0.017      346.113       24.124      861.474
07/11/2014  07:26:00     -300.302       51.533      -23.859      131.345      129.796       71.573    17251.469    16846.882     5122.624        6.631        1.961      304.692       71.869        0.056      346.157       24.200      861.473
07/11/2014  07:27:00     -197.520      -92.113        3.613      130.581      125.788       55.379    17051.289    15822.561     3066.820        4.172        1.797      217.943       49.111        0.051      346.207       24.287      861.488
07/11/2014  07:28:00     -274.984      -32.539       -5.785      200.036      120.398       78.121    40014.314    14495.688     6102.858        6.865        3.031      276.902       75.947        0.075      346.238       24.338      861.482
07/11/2014  07:29:00     -417.224      -92.319      -22.368      160.645      178.510       75.291    25806.829    31865.987     5668.765       12.321        3.167      427.316       74.203        0.030      346.075       24.058      861.499
07/11/2014  07:30:00     -333.212     -152.620       -9.110      190.051      155.743       90.207    36119.205    24255.899     8137.225       10.145        3.426      366.501       99.321        0.073      346.085       24.074      861.496
07/11/2014  07:31:00     -411.183      -85.458      -10.566      237.500      141.610       76.639    56406.120    20053.299     5873.610       12.939        4.117      419.969       92.814        0.049      346.056       24.027      861.513
07/11/2014  07:32:00     -323.095        3.547      -19.391      169.491      131.651       78.605    28727.127    17331.889     6178.743        7.850        2.612      323.114       54.432        0.028      346.049       24.014      861.513
07/11/2014  07:33:00     -291.169      -34.322       -8.273      127.407       97.781       62.703    16232.424     9561.127     3931.672        5.787        1.486      293.185       64.315        0.048      346.029       23.980      861.537
07/11/2014  07:34:00     -346.541        8.590      -19.081      168.658      125.932       68.987    28445.577    15858.756     4759.166        8.479        2.453      346.648       76.333        0.048      346.037       23.994      861.530
07/11/2014  07:35:00     -284.277      -80.011       -9.949      161.217      114.865       61.391    25990.834    13194.065     3768.794        6.513        2.148      295.322       63.938        0.047      346.034       23.989      861.535
07/11/2014  07:36:00     -325.365      -58.235      -23.649      125.643      113.775       58.063    15786.227    12944.821     3371.366        7.095        1.605      330.535       62.966        0.036      346.002       23.933      861.549
07/11/2014  07:37:00     -467.936      -49.252      -34.630      174.975      164.146       71.626    30616.346    26943.760     5130.252       14.263        3.135      470.521       88.874        0.036      345.970       23.878      861.545
07/11/2014  07:38:00     -304.678       -5.861       -5.804      143.587      124.580       72.764    20617.195    15520.155     5294.662        6.716        2.072      304.734       63.978        0.044      345.983       23.901      861.554
07/11/2014  07:39:00     -237.393      -13.371      -27.662      165.915      102.323       60.808    27527.915    10469.919     3697.654        4.949        2.085      237.770       77.248        0.106      346.020       23.965      861.549
07/11/2014  07:40:00     -277.064      -60.571       -8.793      169.054       97.409       57.214    28579.103     9488.487     3273.427        6.092        2.067      283.607       72.341        0.065      346.012       23.950      861.560
07/11/2014  07:41:00     -188.490      -92.811       -0.688      144.614      130.726       69.849    20913.119    17089.398     4878.875        4.350        2.144      210.101       66.252        0.099      346.041       24.001      861.569
07/11/2014  07:42:00     -374.014       -4.086      -20.057      199.275      172.860       72.676    39710.327    29880.649     5281.862       10.757        3.744      374.036       88.927        0.057      345.990       23.912      861.587
07/11/2014  07:43:00     -281.978      -42.112       -0.318      160.090      120.693       70.547    25628.742    14566.743     4976.871        6.322        2.259      285.105       74.210        0.068      345.987       23.909      861.572
07/11/2014  07:44:00     -343.537      -85.110      -13.900      164.500      107.925       57.431    27060.352    11647.774     3298.360        8.372        2.100      353.923       62.397        0.031      345.984       23.901      861.558
07/11/2014  07:45:00     -292.070     -106.913      -11.692      122.397       99.231       49.502    14980.980     9846.875     2450.401        6.207        1.364      311.023       44.330        0.020      345.995       23.920      861.559
07/11/2014  07:46:00     -273.850      -47.813      -10.432      140.404      127.908       57.686    19713.162    16360.441     3327.688        5.839        1.970      277.992       58.512        0.044      346.002       23.933      861.544
07/11/2014  07:47:00     -327.278     -105.312      -17.743      135.959      108.278       58.872    18484.803    11724.090     3465.869        7.609        1.684      343.805       51.567        0.022      345.998       23.927      861.536
07/11/2014  07:48:00     -326.158      -99.108      -20.615      136.771      115.837       64.992    18706.250    13418.237     4223.959        7.648        1.817      340.883       72.651        0.045      345.997       23.925      861.514
07/11/2014  07:49:00     -159.444      -53.124        2.147      118.300      100.968       46.408    13994.788    10194.545     2153.656        2.729        1.317      168.061       56.872        0.115      346.046       24.011      861.501
07/11/2014  07:50:00     -380.775       57.405      -33.575      182.097      131.571       66.481    33159.159    17310.862     4419.688       10.214        2.744      385.077       59.648        0.024      345.990       23.912      861.482
07/11/2014  07:51:00     -411.640      -62.625      -17.061      192.841      148.093       71.767    37187.594    21931.565     5150.512       11.895        3.213      416.377       82.217        0.039      345.972       23.882      861.488
07/11/2014  07:52:00     -460.354     -101.805      -24.093      129.531      111.606       72.278    16778.258    12455.884     5224.047       12.866        1.723      471.477       67.883        0.021      345.972       23.881      861.478
07/11/2014  07:53:00     -225.511      -51.950       -6.120      128.362      111.445       55.148    16476.929    12420.093     3041.292        4.276        1.597      231.417       57.131        0.061      346.037       23.994      861.509
07/11/2014  07:54:00     -384.849      -56.144      -15.277      122.147      133.273       65.108    14919.966    17761.758     4239.084        9.420        1.846      388.923       64.414        0.027      345.985       23.903      861.524
07/11/2014  07:55:00     -279.170      -49.156      -20.246      132.307       94.809       60.008    17505.105     8988.734     3600.968        5.542        1.505      283.464       56.696        0.040      345.985       23.902      861.522
07/11/2014  07:56:00     -230.690       -8.269      -20.779      100.154       92.021       49.491    10030.730     8467.836     2449.337        3.733        1.047      230.838       47.048        0.042      345.998       23.925      861.533
07/11/2014  07:57:00     -223.933     -142.295       -1.632      136.422       89.048       61.078    18611.046     7929.548     3730.521        5.033        1.514      265.319       69.202        0.068      346.016       23.957      861.539
07/11/2014  07:58:00     -351.851      -68.525      -31.804      144.175      117.910       56.427    20786.434    13902.664     3183.980        8.368        1.894      358.462       52.600        0.022      345.959       23.859      861.549
07/11/2014  07:59:00     -267.177      -20.514       -6.801      164.440       99.328       67.869    27040.416     9866.006     4606.173        5.667        2.076      267.964       69.377        0.067      346.008       23.945      861.548
07/11/2014  08:00:00     -263.430      -34.916      -35.515      120.304      109.359       53.340    14472.968    11959.435     2845.167        5.057        1.464      265.733       56.118        0.045      345.986       23.904      861.591
07/11/2014  08:01:00      -45.685      -21.418       17.603       80.114       57.619       50.846     6418.202     3319.936     2585.274        0.759        0.616       50.456       44.707        0.785      346.119       24.137      861.610
07/11/2014  08:02:00      -64.783      -19.982      -10.641       88.558       38.846       32.661     7842.562     1509.008     1066.750        0.756        0.521       67.795       23.158        0.117      346.093       24.093      861.642
07/11/2014  08:03:00      -82.423      -57.308      -20.555       76.318       61.827       33.692     5824.415     3822.624     1135.148        1.064        0.539      100.388       34.312        0.117      346.092       24.091      861.660
07/11/2014  08:04:00      -66.080      -14.684       14.048       78.902       48.139       35.960     6225.463     2317.326     1293.111        0.731        0.492       67.692       31.751        0.220      346.109       24.120      861.679
07/11/2014  08:05:00      -46.404       36.461       10.108       42.802       28.009       31.502     1832.020      784.513      992.351        0.360        0.180       59.015       21.464        0.132      346.126       24.148      861.708
07/11/2014  08:06:00      -76.609        2.578       -0.684       55.857       80.927       31.572     3119.964     6549.183      996.814        0.827        0.533       76.653       33.151        0.187      346.094       24.093      861.734
07/11/2014  08:07:00     -131.859       16.280      -12.636       86.960       67.720       40.506     7562.075     4585.974     1640.776        1.580        0.689      132.860       43.271        0.106      346.074       24.057      861.761
07/11/2014  08:08:00     -135.278      -25.390      -14.041      110.145       88.230       35.553    12131.860     7784.494     1264.043        2.016        1.059      137.640       38.201        0.077      346.136       24.162      861.773
07/11/2014  08:09:00     -236.941      -51.444      -25.315       97.729       79.724       43.231     9550.905     6355.942     1868.947        3.860        0.889      242.461       47.054        0.038      346.086       24.076      861.789
07/11/2014  08:10:00     -338.935      -43.968      -25.040      147.278       83.974       54.211    21690.763     7051.663     2938.798        7.455        1.584      341.775       64.380        0.035      346.057       24.028      861.793
07/11/2014  08:11:00     -255.038      -31.019       -8.167       83.528       89.098       42.610     6976.860     7938.413     1815.652        4.140        0.837      256.917       31.018        0.015      346.085       24.076      861.801
07/11/2014  08:12:00     -206.122       35.441      -10.757       83.883       58.008       36.925     7036.421     3364.963     1363.453        2.781        0.588      209.147       27.793        0.018      346.089       24.085      861.820
07/11/2014  08:13:00     -122.189       15.883        4.356      126.580       70.737       53.109    16022.547     5003.706     2820.556        1.952        1.192      123.217       65.205        0.280      346.136       24.164      861.828
07/11/2014  08:14:00       -9.312       45.760       -0.871       28.357       40.461       18.823      804.128     1637.101      354.321        0.249        0.140       46.698       18.045        0.149      346.252       24.365      861.823
07/11/2014  08:15:00       -1.425       25.693       18.067       32.773       33.955       24.143     1074.077     1152.925      582.892        0.190        0.140       25.733       21.436        0.694      346.374       24.575      861.833
07/11/2014  08:16:00      -94.209        6.822       -9.159       50.279       27.112       20.588     2528.019      735.042      423.851        0.635        0.184       94.456       14.722        0.024      346.173       24.230      861.852
07/11/2014  08:17:00      -78.009       34.631        3.904       58.131       37.701       33.743     3379.262     1421.334     1138.598        0.662        0.297       85.351       30.199        0.125      346.208       24.291      861.861
07/11/2014  08:18:00     -138.601      -16.726      -29.998       80.030       44.412       30.220     6404.814     1972.462      913.226        1.484        0.465      139.607       38.973        0.078      346.179       24.241      861.867
07/11/2014  08:19:00     -146.951       47.393      -16.296       77.994       38.664       34.418     6083.047     1494.895     1184.593        1.643        0.438      154.405       35.528        0.053      346.207       24.288      861.873
07/11/2014  08:20:00     -103.213        8.195        1.238       92.707       51.382       45.805     8594.616     2640.086     2098.065        1.202        0.667      103.538       52.538        0.257      346.352       24.538      861.892
07/11/2014  08:21:00     -100.626      -44.169       -2.822       51.463       33.965       26.707     2648.439     1153.593      713.261        0.830        0.226      109.893       25.233        0.053      346.255       24.372      861.920
07/11/2014  08:22:00     -110.035      -24.242       -2.347       73.806       74.331       37.458     5447.321     5525.036     1403.095        1.254        0.619      112.674       40.753        0.131      346.329       24.497      861.942
07/11/2014  08:23:00     -145.870      -53.542       -7.706       97.680      109.821       57.489     9541.447    12060.557     3304.969        2.455        1.245      155.386       59.425        0.146      346.405       24.626      861.934
07/11/2014  08:24:00     -106.809       -4.245       -0.044       56.534       62.151       31.784     3196.083     3862.764     1010.251        0.975        0.403      106.894       26.188        0.060      346.472       24.742      861.954
07/11/2014  08:25:00     -125.992      -21.957       -3.398       74.873       71.397       32.651     5606.020     5097.523     1066.064        1.407        0.588      127.891       24.299        0.036      346.457       24.717      861.949
07/11/2014  08:26:00     -360.103       -4.731      -44.242      112.349       89.377       55.502    12622.239     7988.188     3080.501        7.767        1.185      360.135       42.584        0.014      346.396       24.608      861.930
07/11/2014  08:27:00     -198.367      -28.120       -6.115      124.856       86.083       40.937    15588.930     7410.228     1675.864        3.242        1.234      200.350       44.395        0.049      346.523       24.830      861.916
07/11/2014  08:28:00     -359.537      -20.833      -19.491      143.643      100.243       60.774    20633.423    10048.576     3693.516        8.222        1.719      360.140       67.424        0.035      346.499       24.789      861.899
07/11/2014  08:29:00     -327.195      -73.062      -13.462      118.240       94.491       50.620    13980.646     8928.574     2562.392        6.902        1.274      335.253       44.365        0.018      346.496       24.783      861.901
07/11/2014  08:30:00     -351.898     -159.985       -6.509      137.498      100.343       67.485    18905.606    10068.728     4554.238        9.149        1.676      386.559       68.682        0.032      346.562       24.895      861.876
07/11/2014  08:31:00     -265.273      -36.400      -12.082       97.653       79.314       50.028     9536.119     6290.716     2502.829        4.508        0.916      267.759       53.738        0.040      346.587       24.939      861.877
07/11/2014  08:32:00     -206.677      -83.565       -1.720      144.399       78.352       54.717    20850.991     6138.999     2993.965        3.984        1.499      222.932       66.012        0.088      346.784       25.276      861.876
07/11/2014  08:33:00     -283.104       13.716      -20.882      129.696       66.916       45.177    16821.058     4477.689     2040.959        5.205        1.167      283.436       49.708        0.031      346.706       25.143      861.875
07/11/2014  08:34:00     -206.540      -84.713      -16.314      125.471       97.021       44.656    15742.990     9413.105     1994.139        3.862        1.358      223.238       52.038        0.054      346.801       25.308      861.907
07/11/2014  08:35:00     -279.578      -66.641       -7.529      121.062      136.566       53.262    14656.106    18650.174     2836.860        5.940        1.807      287.411       61.323        0.046      346.680       25.100      861.904
07/11/2014  08:36:00     -201.285      -52.136       -4.174       75.860       93.033       49.700     5754.808     8655.148     2470.046        3.006        0.844      207.927       30.094        0.021      346.674       25.087      861.934
07/11/2014  08:37:00     -181.378      -34.504       11.355      122.180      103.383       48.662    14928.061    10687.975     2368.008        3.110        1.399      184.631       56.494        0.094      346.656       25.057      861.944
07/11/2014  08:38:00     -150.316      -78.677       10.141      141.447       83.662       57.558    20007.285     6999.363     3312.908        2.960        1.516      169.661       64.150        0.143      346.611       24.983      861.971
07/11/2014  08:39:00     -118.263       35.419        4.513       86.563      104.433       48.155     7493.216    10906.240     2318.860        1.799        1.036      123.453       36.699        0.088      346.712       25.155      861.995
07/11/2014  08:40:00     -350.262      -33.693      -20.879      132.166      109.971       62.310    17467.954    12093.537     3882.576        7.884        1.672      351.879       63.366        0.032      346.538       24.855      862.002
07/11/2014  08:41:00     -159.296      -54.274        3.768      105.808       97.956       55.329    11195.438     9595.467     3061.274        2.609        1.193      168.288       36.768        0.048      346.648       25.046      862.015
07/11/2014  08:42:00     -225.591      -82.187        0.721      106.586       97.988       60.092    11360.616     9601.560     3611.071        4.110        1.229      240.095       55.023        0.053      346.582       24.930      862.032
07/11/2014  08:43:00     -203.766      -11.294       -1.706      145.438       78.362       54.803    21152.159     6140.648     3003.389        3.597        1.515      204.079       52.173        0.065      346.606       24.972      862.038
07/11/2014  08:44:00     -155.774       -8.419        4.079       98.482       77.520       48.132     9698.619     6009.356     2316.700        2.119        0.901      156.002       40.966        0.069      346.636       25.025      862.054
07/11/2014  08:45:00     -200.469      -68.179      -11.134      117.560       83.661       43.117    13820.360     6999.153     1859.089        3.381        1.134      211.745       50.474        0.057      346.570       24.910      862.059
07/11/2014  08:46:00     -285.594      -36.986      -19.123      168.323       95.648       57.979    28332.755     9148.448     3361.512        6.206        2.042      287.979       80.153        0.077      346.556       24.887      862.051
07/11/2014  08:47:00     -163.800       33.659       -2.678      154.959      135.822       70.293    24012.202    18447.709     4941.132        3.768        2.370      167.222       84.461        0.255      346.561       24.896      862.056
07/11/2014  08:48:00     -272.906     -176.350      -14.310      183.153      118.246       74.015    33544.955    13982.023     5478.283        7.938        2.650      324.926       80.036        0.061      346.492       24.775      862.054
07/11/2014  08:49:00     -206.821      -89.224       -2.792      136.485      103.843       59.134    18628.088    10783.266     3496.818        4.182        1.645      225.246       64.372        0.082      346.508       24.802      862.074
07/11/2014  08:50:00     -334.314      -75.536      -10.936      165.508      119.857       62.110    27392.781    14365.797     3857.670        8.159        2.281      342.742       48.829        0.020      346.476       24.748      862.094
07/11/2014  08:51:00     -370.272     -148.624      -35.565      199.727      136.042       77.158    39890.692    18507.496     5953.280       11.239        3.218      398.987       85.228        0.046      346.450       24.702      862.076
07/11/2014  08:52:00     -210.273     -149.484        7.921      189.201      132.384       89.592    35796.891    17525.588     8026.650        6.397        3.067      257.993       92.798        0.129      346.548       24.872      862.071
07/11/2014  08:53:00     -341.884     -109.873       -7.769      172.100      111.727       58.166    29618.341    12483.011     3383.305        8.724        2.274      359.105       65.072        0.033      346.540       24.857      862.070
07/11/2014  08:54:00     -350.331     -115.534       -9.683      165.913      116.986       56.886    27527.131    13685.660     3236.028        9.030        2.222      368.890       58.467        0.025      346.498       24.786      862.068
07/11/2014  08:55:00     -165.388      -91.975        4.683      147.192       72.462       56.501    21665.510     5250.756     3192.312        3.297        1.505      189.242       55.796        0.087      346.685       25.107      862.062
07/11/2014  08:56:00      -87.186      -26.630       27.299      142.813       91.067       69.419    20395.487     8293.187     4819.042        2.128        1.675       91.162       78.227        0.736      346.912       25.501      862.040
07/11/2014  08:57:00     -350.212      -56.821      -25.387      188.442      127.641       57.858    35510.296    16292.207     3347.542        9.083        2.758      354.792       81.670        0.053      346.724       25.174      862.043
07/11/2014  08:58:00     -299.819      -86.869      -20.538      140.133      104.242       59.608    19637.190    10866.424     3553.102        6.595        1.703      312.150       61.540        0.039      346.711       25.150      862.042
07/11/2014  08:59:00     -170.356      -14.137        3.282       95.777       65.512       52.506     9173.193     4291.837     2756.893        2.272        0.811      170.941       49.255        0.083      346.908       25.491      862.019
07/11/2014  09:00:00     -218.743     -112.039       -7.950      186.084       99.398       75.983    34627.314     9879.960     5773.342        5.536        2.514      245.767       83.515        0.115      346.911       25.496      862.024
07/11/2014  09:01:00     -498.932      -50.241      -28.544      247.626      138.895       75.493    61318.723    19291.884     5699.210       16.927        4.315      501.455      108.936        0.047      346.771       25.254      862.032
07/11/2014  09:02:00     -378.391      -82.980       -2.809      163.106      108.873       76.088    26603.412    11853.290     5789.338        9.715        2.212      387.383       77.296        0.040      346.840       25.374      862.034
07/11/2014  09:03:00     -351.835      -36.080      -13.778       92.569      109.242       53.043     8568.960    11933.714     2813.559        7.429        1.166      353.680       43.725        0.015      346.941       25.547      862.058
07/11/2014  09:04:00     -429.029       19.892      -49.010      140.639      119.712       56.461    19779.224    14330.894     3187.801       11.207        1.865      429.490       50.432        0.014      346.790       25.287      862.072
07/11/2014  09:05:00     -330.542      -86.054       -6.062      124.556      111.467       60.508    15514.321    12424.902     3661.188        7.414        1.580      341.560       60.124        0.031      346.833       25.362      862.067
07/11/2014  09:06:00     -219.866      -30.149       -6.633      121.298       98.873       47.627    14713.205     9775.801     2268.354        3.802        1.338      221.924       50.365        0.052      346.921       25.513      862.096
07/11/2014  09:07:00     -109.121      -76.098        6.351       82.378       56.742       39.407     6786.212     3219.705     1552.879        1.465        0.578      133.035       40.930        0.095      347.046       25.731      862.116
07/11/2014  09:08:00     -138.888     -133.956        6.346      100.656      104.167       58.502    10131.616    10850.711     3422.504        3.083        1.220      192.961       59.724        0.096      346.976       25.609      862.114
07/11/2014  09:09:00     -261.069     -153.675       -3.757      253.293      103.886       73.344    64157.405    10792.235     5379.330        8.604        4.016      302.941       96.553        0.102      346.889       25.458      862.125
07/11/2014  09:10:00     -231.386     -136.430        9.054      175.598      137.647       72.625    30834.508    18946.576     5274.437        6.363        2.753      268.613       90.627        0.114      346.917       25.507      862.142
07/11/2014  09:11:00     -271.381      -70.142      -22.150       96.445      115.825       58.368     9301.647    13415.490     3406.817        5.259        1.306      280.299       50.689        0.033      346.921       25.512      862.183
07/11/2014  09:12:00     -220.973      -30.656       -8.423      175.028      144.004       57.675    30634.759    20737.156     3326.432        5.226        2.735      223.090       69.554        0.097      346.907       25.491      862.197
07/11/2014  09:13:00     -188.386      -90.644       -1.617       98.485       80.224       50.764     9699.299     6435.892     2576.933        3.121        0.936      209.059       45.470        0.047      346.916       25.504      862.205
07/11/2014  09:14:00      -93.463      -71.801        4.067      135.760      102.412       60.924    18430.837    10488.288     3711.734        2.326        1.632      117.859       62.718        0.283      347.055       25.745      862.204
07/11/2014  09:15:00     -141.125      -94.530       -4.931      138.861      113.698       57.830    19282.325    12927.322     3344.264        3.221        1.778      169.859       73.047        0.185      347.039       25.718      862.220
07/11/2014  09:16:00     -117.124      -59.440       13.528      127.827      102.918       62.278    16339.795    10592.052     3878.533        2.412        1.541      131.343       64.620        0.242      347.067       25.765      862.235
07/11/2014  09:17:00     -308.600      -41.310      -23.525      167.792      123.952       57.438    28154.180    15364.015     3299.137        7.215        2.341      311.353       68.298        0.048      346.795       25.297      862.238
07/11/2014  09:18:00     -306.038      -23.028       -6.716      154.877      112.628       67.182    23986.776    12685.162     4513.488        6.770        2.059      306.904       75.509        0.061      346.777       25.264      862.230
07/11/2014  09:19:00     -228.749      -62.533        5.257      182.902      106.157       66.751    33453.065    11269.413     4455.712        5.271        2.459      237.143       71.634        0.091      346.906       25.489      862.242
07/11/2014  09:20:00     -224.964      -58.636       13.713      158.328       89.158       62.720    25067.904     7949.163     3933.794        4.559        1.848      232.480       73.446        0.100      346.854       25.398      862.232
07/11/2014  09:21:00     -273.657     -171.523       -1.404      175.401      116.297       86.132    30765.400    13525.028     7418.766        7.800        2.585      322.968       91.307        0.080      346.781       25.272      862.246
07/11/2014  09:22:00     -286.156      -60.736       -6.755      185.698      101.896       73.821    34483.772    10382.702     5449.547        6.796        2.516      292.530       85.128        0.085      346.771       25.256      862.240
07/11/2014  09:23:00     -379.555     -153.420      -11.809      176.602      134.420       83.222    31188.212    18068.853     6925.837       11.195        2.809      409.390       93.516        0.052      346.710       25.150      862.233
07/11/2014  09:24:00     -215.081     -151.999      -12.842      146.152      123.078       66.022    21360.363    15148.196     4358.970        5.519        2.043      263.370       79.367        0.091      346.781       25.272      862.244
07/11/2014  09:25:00     -267.577     -143.833      -13.364      128.046      108.936       67.010    16395.708    11866.986     4490.359        6.260        1.638      303.785       62.198        0.042      346.768       25.249      862.243
07/11/2014  09:26:00     -290.992      -26.075      -22.407      117.244       96.765       62.175    13746.147     9363.529     3865.762        5.641        1.349      292.158       54.898        0.035      346.760       25.235      862.254
07/11/2014  09:27:00     -289.999     -115.801      -31.310      140.060       97.822       56.508    19616.836     9569.182     3193.133        6.543        1.619      312.265       68.137        0.048      346.694       25.122      862.256
07/11/2014  09:28:00     -157.538     -164.504      -10.828      144.783      104.438       73.933    20962.117    10907.361     5466.073        4.466        1.867      227.771       78.519        0.119      346.761       25.237      862.246
07/11/2014  09:29:00     -186.173      -96.454        9.959      157.756      107.053       68.194    24887.033    11460.407     4650.422        4.252        2.050      209.675       68.447        0.107      346.803       25.310      862.232
07/11/2014  09:30:00     -250.002     -153.820       -5.338      108.458      104.869       50.215    11763.073    10997.555     2521.588        5.573        1.264      293.533       56.096        0.037      346.760       25.235      862.228
07/11/2014  09:31:00     -229.501      -58.897       -5.016      144.093      138.190       55.936    20762.722    19096.479     3128.793        4.957        2.149      236.938       55.466        0.055      346.867       25.420      862.231
07/11/2014  09:32:00     -266.929     -133.458       -1.777      147.341      120.061       71.233    21709.423    14414.540     5074.141        6.512        2.060      298.433       78.225        0.069      346.799       25.302      862.211
07/11/2014  09:33:00     -182.687     -102.988        9.958      148.406       90.425       61.749    22024.218     8176.645     3812.968        3.904        1.701      209.717       73.758        0.124      346.881       25.444      862.199
07/11/2014  09:34:00     -309.760      -83.463      -10.986      148.368      116.132       60.532    22012.955    13486.615     3664.175        7.109        1.958      320.807       67.738        0.045      346.833       25.362      862.198
07/11/2014  09:35:00     -301.015     -149.013        0.753      134.999      112.375       63.959    18224.788    12628.099     4090.696        7.387        1.747      335.879       61.332        0.033      346.859       25.406      862.204
07/11/2014  09:36:00     -248.180     -236.657       -7.470      166.196      129.510       91.238    27620.966    16772.780     8324.438        8.518        2.636      342.928       96.176        0.079      346.874       25.433      862.208
07/11/2014  09:37:00     -283.535     -195.796      -25.168      151.649      100.036       68.719    22997.419    10007.258     4722.333        7.854        1.886      344.570       69.042        0.040      346.869       25.424      862.223
07/11/2014  09:38:00     -310.192     -158.884      -22.076      122.307      114.841       60.681    14959.095    13188.429     3682.226        7.688        1.591      348.515       58.749        0.028      346.869       25.421      862.234
07/11/2014  09:39:00     -110.277      -90.771       -2.514       87.004       73.121       51.298     7569.783     5346.671     2631.492        1.797        0.777      142.830       47.713        0.112      346.940       25.548      862.252
07/11/2014  09:40:00     -120.050      -80.325       -3.501       47.298       55.429       25.701     2237.076     3072.409      660.524        1.342        0.299      144.444       17.860        0.015      346.921       25.516      862.264
07/11/2014  09:41:00     -297.510      -62.381      -21.371      131.987      107.371       51.010    17420.463    11528.566     2602.027        6.220        1.578      303.980       47.845        0.025      346.940       25.546      862.275
07/11/2014  09:42:00     -190.068      -72.362       11.042      158.136      119.757       61.840    25006.974    14341.666     3824.157        4.232        2.159      203.377       55.812        0.075      347.140       25.891      862.272
07/11/2014  09:43:00     -265.286     -138.808       -3.828      167.575       87.260       63.297    28081.383     7614.258     4006.527        6.467        1.985      299.406       77.629        0.067      347.097       25.817      862.287
07/11/2014  09:44:00     -274.394       28.427        1.325      119.034      145.179       74.551    14169.043    21076.931     5557.777        5.844        2.040      275.863       69.749        0.064      347.029       25.700      862.296
07/11/2014  09:45:00     -144.161        4.457        0.558      107.418      108.034       69.710    11538.727    11671.275     4859.502        2.443        1.403      144.230       59.654        0.171      347.196       25.988      862.303
07/11/2014  09:46:00     -194.541      -88.428        7.261      165.150      151.381       84.116    27274.566    22916.087     7075.531        5.148        2.863      213.695       92.554        0.188      347.128       25.872      862.296
07/11/2014  09:47:00     -343.054      -99.421       -4.621      161.525      129.744       71.289    26090.433    16833.571     5082.156        8.779        2.400      357.170       79.429        0.049      346.984       25.622      862.303
07/11/2014  09:48:00     -446.944     -141.729      -14.823      199.770      149.602       83.191    39908.229    22380.856     6920.724       14.462        3.460      468.877       93.214        0.040      346.925       25.518      862.317
07/11/2014  09:49:00     -194.175     -148.833        4.224      148.475      114.806       88.105    22044.816    13180.351     7762.554        5.142        2.149      244.653      101.389        0.172      347.026       25.694      862.324
07/11/2014  09:50:00     -143.878      -95.946        1.231       93.515       72.567       47.526     8745.130     5266.016     2258.743        2.309        0.813      172.935       46.897        0.074      347.087       25.800      862.341
07/11/2014  09:51:00     -364.068      -93.640      -25.830      127.818       90.209       57.039    16337.495     8137.701     3253.490        8.485        1.386      375.917       61.427        0.027      346.928       25.524      862.338
07/11/2014  09:52:00     -277.618      -84.329       -6.558      141.293       72.197       43.214    19963.604     5212.405     1867.430        5.563        1.352      290.143       46.655        0.026      346.980       25.615      862.345
07/11/2014  09:53:00     -184.876      -48.968       16.481      124.506      112.180       59.273    15501.628    12584.259     3513.251        3.422        1.580      191.251       60.328        0.100      347.210       26.012      862.345
07/11/2014  09:54:00     -120.383      -93.843        9.596      118.903      109.189       58.541    14137.853    11922.254     3427.032        2.643        1.474      152.639       63.405        0.173      347.086       25.798      862.363
07/11/2014  09:55:00     -334.573     -198.635       -8.531      117.928       93.793       54.429    13907.090     8797.204     2962.558        8.856        1.283      389.095       55.755        0.021      346.980       25.615      862.358
07/11/2014  09:56:00     -257.525     -159.140        7.649      149.859       93.678       64.997    22457.738     8775.632     4224.562        6.357        1.773      302.729       72.160        0.057      347.058       25.748      862.346
07/11/2014  09:57:00     -137.585      -64.226        4.134      105.101       72.437       56.041    11046.173     5247.123     3140.545        2.125        0.972      151.837       55.569        0.134      347.198       25.991      862.357
07/11/2014  09:58:00     -293.766     -152.261      -12.813      127.996      116.777       56.973    16382.925    13636.926     3245.891        7.145        1.663      330.881       68.639        0.043      347.121       25.858      862.351
07/11/2014  09:59:00     -324.922      -55.250        2.066      137.905      107.542       62.150    19017.804    11565.363     3862.571        7.153        1.722      329.586       72.440        0.048      347.135       25.882      862.344
07/11/2014  10:00:00     -270.836      -54.070       -8.387      188.256       98.506       61.595    35440.158     9703.418     3793.974        6.263        2.447      276.180       73.725        0.071      347.256       26.091      862.344
07/11/2014  10:01:00      -92.325       -6.485       18.035      111.154       69.316       49.909    12355.111     4804.762     2490.868        1.427        0.983       92.552       56.122        0.368      347.414       26.366      862.340
07/11/2014  10:02:00     -341.400      -72.796      -24.111      138.419       96.963       54.569    19159.762     9401.919     2977.808        7.698        1.577      349.075       63.549        0.033      347.114       25.845      862.362
07/11/2014  10:03:00     -210.120     -144.210        4.644      128.988       83.640       63.707    16637.791     6995.648     4058.639        4.632        1.385      254.847       64.836        0.065      347.116       25.849      862.345
07/11/2014  10:04:00     -216.446     -159.829       13.783      200.931      148.877       85.439    40373.090    22164.323     7299.765        7.120        3.492      269.062      109.390        0.165      347.267       26.110      862.329
07/11/2014  10:05:00     -196.935       -9.198       -3.932       98.654       94.914       46.051     9732.585     9008.626     2120.680        2.987        1.043      197.149       44.497        0.051      347.332       26.220      862.353
07/11/2014  10:06:00      -79.283        4.896       11.359       98.641       65.885       47.514     9730.128     4340.801     2257.538        1.138        0.816       79.434       49.860        0.394      347.484       26.487      862.358
07/11/2014  10:07:00     -263.323      -48.415       -2.961      147.832      110.573       56.998    21854.416    12226.367     3248.763        5.450        1.866      267.737       60.919        0.052      347.349       26.252      862.352
07/11/2014  10:08:00     -176.580      -14.654       -6.934      124.262       73.439       52.202    15441.015     5393.320     2725.084        2.750        1.178      177.187       65.234        0.136      347.380       26.305      862.349
07/11/2014  10:09:00     -113.093      -57.493        6.118      124.584       99.496       54.342    15521.096     9899.505     2953.094        2.225        1.419      126.868       70.683        0.310      347.649       26.769      862.348
07/11/2014  10:10:00     -174.763       36.094       -9.020      137.872       79.576       51.754    19008.636     6332.394     2678.523        2.997        1.401      178.451       57.798        0.105      347.532       26.567      862.343
07/11/2014  10:11:00     -289.450      -11.865      -21.769      104.958       61.043       44.069    11016.213     3726.231     1942.095        5.054        0.834      289.694       52.845        0.033      347.207       26.006      862.348
07/11/2014  10:12:00      -74.573      -29.087       22.669       95.213       77.227       39.984     9065.441     5964.063     1598.709        1.177        0.831       80.044       44.772        0.313      347.773       26.986      862.334
07/11/2014  10:13:00     -111.177      -88.393       -0.726      126.730       95.034       67.815    16060.495     9031.451     4598.874        2.493        1.485      142.034       66.030        0.216      347.465       26.451      862.331
07/11/2014  10:14:00     -156.404      -26.013        6.250      112.706       97.216       44.837    12702.611     9451.015     2010.361        2.467        1.208      158.553       45.489        0.082      347.615       26.712      862.345
07/11/2014  10:15:00     -256.051       22.901      -23.813      124.270       84.924       49.523    15442.967     7212.047     2452.478        4.588        1.255      257.073       51.255        0.040      347.507       26.522      862.357
07/11/2014  10:16:00     -210.601       42.907      -14.857      107.524       80.504       46.637    11561.492     6480.822     2175.020        3.331        1.011      214.927       46.889        0.048      347.345       26.244      862.361
07/11/2014  10:17:00     -211.995       38.532      -28.041      105.133       96.760       56.963    11052.915     9362.584     3244.745        3.543        1.183      215.468       56.124        0.068      347.463       26.447      862.353
07/11/2014  10:18:00     -142.854       64.205      -11.024       60.432       79.127       43.568     3651.987     6261.018     1898.128        1.823        0.591      156.619       37.832        0.058      347.580       26.650      862.343
07/11/2014  10:19:00     -249.954       -2.352      -32.552       98.705       92.683       33.941     9742.715     8590.207     1151.985        4.151        0.974      249.965       34.607        0.019      347.466       26.451      862.341
07/11/2014  10:20:00     -111.258      -20.146       -6.506       95.685       41.244       51.511     9155.595     1701.084     2653.410        1.317        0.676      113.067       52.567        0.216      347.648       26.769      862.330
07/11/2014  10:21:00     -248.793       16.374      -17.517      115.166       84.614       47.901    13263.267     7159.536     2294.537        4.259        1.136      249.331       56.695        0.052      347.355       26.260      862.339
07/11/2014  10:22:00     -226.325      -11.976      -23.291       77.857       75.985       39.069     6061.736     5773.750     1526.407        3.263        0.668      226.642       31.163        0.019      347.380       26.305      862.341
07/11/2014  10:23:00     -155.089       11.535      -20.975       55.717       86.646       52.114     3104.421     7507.540     2715.919        1.897        0.666      155.518       37.033        0.057      347.462       26.447      862.336
07/11/2014  10:24:00      -33.560        0.277       32.832       70.029       32.076       30.589     4904.059     1028.851      935.679        0.454        0.343       33.561       26.017        0.601      347.728       26.909      862.346
07/11/2014  10:25:00       34.804       -4.879        9.530       22.687       29.793       20.730      514.719      887.606      429.748        0.158        0.092       35.145       10.052        0.082      347.759       26.961      862.350
07/11/2014  10:26:00      -16.369       -5.397       -1.945       29.577       23.742       24.730      874.801      563.686      611.593        0.118        0.103       17.236       15.519        0.811      347.728       26.907      862.361
07/11/2014  10:27:00     -149.958      -10.526       -1.429       83.624       53.293       36.553     6992.992     2840.092     1336.103        1.688        0.558      150.327       36.924        0.060      347.436       26.403      862.356
07/11/2014  10:28:00     -261.371       11.889      -22.549       61.852       45.703       29.377     3825.672     2088.723      863.030        3.787        0.339      261.642       29.512        0.013      347.274       26.122      862.333
07/11/2014  10:29:00     -171.928        1.265       -4.597       65.408       41.904       27.986     4278.225     1755.978      783.236        1.820        0.341      171.933       33.288        0.037      347.286       26.144      862.337
07/11/2014  10:30:00     -142.901       20.617      -13.316       56.319       32.811       21.564     3171.783     1076.557      464.992        1.287        0.236      144.380       25.682        0.032      347.275       26.124      862.323
07/11/2014  10:31:00      -49.676       18.253        9.504       40.988       24.984       24.334     1680.001      624.196      592.147        0.289        0.145       52.924       26.491        0.251      347.715       26.886      862.309
07/11/2014  10:32:00      -17.641        2.442        4.967       33.244       23.905       19.983     1105.180      571.444      399.318        0.121        0.104       17.809       13.354        0.562      347.789       27.014      862.307
07/11/2014  10:33:00      -10.107       58.020       13.806       25.531       41.909       29.808      651.850     1756.403      888.506        0.348        0.165       58.893       26.330        0.200      347.897       27.199      862.296
07/11/2014  10:34:00      -74.548       30.096       -5.712       82.843       54.457       41.477     6862.947     2965.553     1720.359        0.902        0.577       80.394       49.176        0.374      347.582       26.655      862.307
07/11/2014  10:35:00      -74.617       31.946        0.945       73.636       76.992       42.215     5422.217     5927.811     1782.101        0.986        0.657       81.168       35.903        0.196      347.518       26.545      862.316
07/11/2014  10:36:00        2.748       -7.666        0.568       40.604       48.974       27.212     1648.664     2398.482      740.467        0.243        0.239        8.144       22.513        7.642      347.706       26.869      862.322
07/11/2014  10:37:00       19.408      -30.776       12.883       31.701       33.240       23.269     1004.922     1104.918      541.463        0.207        0.133       36.384       13.634        0.140      347.808       27.047      862.317
07/11/2014  10:38:00        0.140       -5.244       11.692       27.582       26.373       19.413      760.761      695.547      376.864        0.100        0.092        5.246       13.114        6.248      348.045       27.456      862.315
07/11/2014  10:39:00      -60.537        2.394        7.727       53.450       36.812       33.682     2856.858     1355.112     1134.468        0.454        0.267       60.584       26.513        0.192      347.885       27.180      862.315
07/11/2014  10:40:00     -192.483       32.567      -12.311       97.731       52.008       47.385     9551.293     2704.787     2245.383        2.638        0.725      195.219       54.867        0.079      347.532       26.567      862.306
07/11/2014  10:41:00     -120.937       -7.125      -22.008       56.377       73.684       30.780     3178.392     5429.309      947.409        1.236        0.478      121.147       14.615        0.015      347.328       26.218      862.297
07/11/2014  10:42:00     -104.865       34.482        0.215       61.342       72.958       32.598     3762.856     5322.869     1062.610        1.116        0.507      110.388       34.382        0.097      347.478       26.476      862.290
07/11/2014  10:43:00     -118.846       44.346      -22.431       61.462       50.942       37.164     3777.603     2595.130     1381.136        1.217        0.388      126.850       39.318        0.096      347.420       26.376      862.311
07/11/2014  10:44:00      -49.897       73.869      -15.765       56.399       58.531       42.710     3180.843     3425.925     1824.108        0.831        0.422       89.142       49.266        0.305      347.599       26.686      862.303
07/11/2014  10:45:00      -91.378      -13.588       -8.241       41.095       27.369       23.214     1688.798      749.042      538.906        0.579        0.149       92.383       20.071        0.047      347.423       26.381      862.299
07/11/2014  10:46:00      -53.899      -38.915       12.034       67.331       36.608       28.329     4533.446     1340.111      802.526        0.562        0.334       66.479       32.857        0.244      347.594       26.676      862.314
07/11/2014  10:47:00      -31.860       44.174        7.483       51.781       70.361       29.147     2681.245     4950.678      849.523        0.575        0.424       54.465       32.124        0.348      347.711       26.878      862.323
07/11/2014  10:48:00      -51.548      191.869      -21.609       36.713       46.833       28.715     1347.812     2193.307      824.579        2.215        0.218      198.673       27.139        0.019      347.362       26.275      862.330
07/11/2014  10:49:00        8.110       62.091        1.528       31.150       64.854       24.985      970.338     4205.997      624.253        0.486        0.290       62.619       27.663        0.195      347.633       26.744      862.325
07/11/2014  10:50:00       13.806       44.043       22.535       41.038       34.882       31.542     1684.148     1216.721      994.875        0.327        0.195       46.156       13.181        0.082      347.543       26.588      862.309
07/11/2014  10:51:00      -48.331       55.371       -0.543       54.434       66.920       32.910     2963.025     4478.284     1083.067        0.696        0.426       73.497       28.178        0.147      347.665       26.798      862.297
07/11/2014  10:52:00      -68.985      132.958      -18.811       47.044       48.105       30.213     2213.103     2314.101      912.803        1.411        0.272      149.789       25.601        0.029      347.485       26.488      862.319
07/11/2014  10:53:00       41.706       56.421       18.897       50.269       45.120       32.185     2527.019     2035.830     1035.885        0.544        0.280       70.162       25.471        0.132      347.607       26.700      862.306
07/11/2014  10:54:00       55.525       51.983       17.620       76.020       44.419       45.138     5779.063     1973.022     2037.431        0.794        0.489       76.061       24.299        0.102      347.659       26.788      862.271
07/11/2014  10:55:00        1.006       60.984       -0.975       60.660       43.884       34.673     3679.673     1925.800     1202.245        0.526        0.340       60.992       32.003        0.275      347.849       27.118      862.266
07/11/2014  10:56:00      -11.541      127.273       -2.955      142.261      100.530       55.845    20238.184    10106.285     3118.660        2.489        1.673      127.795       78.149        0.374      347.704       26.866      862.249
07/11/2014  10:57:00     -199.652      105.717      -32.880       65.701       81.749       46.691     4316.652     6682.947     2180.003        3.265        0.659      225.914       42.455        0.035      347.405       26.347      862.282
07/11/2014  10:58:00     -185.107       98.324       -5.976      106.233       91.554       52.297    11285.374     8382.208     2734.972        3.318        1.120      209.600       57.979        0.077      347.619       26.717      862.275
07/11/2014  10:59:00     -154.390      210.761      -29.720       81.977       77.798       52.729     6720.204     6052.545     2780.396        4.234        0.778      261.259       45.004        0.030      347.562       26.616      862.299
07/11/2014  11:00:00      -97.405       62.895       -7.789       79.929       81.195       43.130     6388.614     6592.694     1860.195        1.417        0.742      115.946       41.290        0.127      347.876       27.162      862.307
07/11/2014  11:01:00      -60.377       20.754        9.919       77.473       60.085       44.732     6002.137     3610.171     2000.948        0.789        0.581       63.844       46.782        0.537      347.896       27.198      862.308
07/11/2014  11:02:00      -54.329       64.303      -20.493       68.570       49.540       28.091     4701.832     2454.217      789.106        0.772        0.397       84.181       20.907        0.062      347.737       26.923      862.328
07/11/2014  11:03:00      -16.347       71.754        3.424       54.563       69.135       34.022     2977.091     4779.681     1157.486        0.717        0.446       73.593       40.006        0.296      347.886       27.180      862.344
07/11/2014  11:04:00        4.097      165.605      -12.998       31.130       50.780       32.879      969.068     2578.641     1081.037        1.612        0.231      165.656       27.356        0.027      347.749       26.943      862.352
07/11/2014  11:05:00       58.495      151.873        4.622       67.515       97.384       57.164     4558.324     9483.564     3267.684        2.191        0.865      162.749       55.695        0.117      347.778       26.991      862.353
07/11/2014  11:06:00        5.269      111.574        8.655       44.643       81.389       40.433     1993.037     6624.099     1634.839        1.140        0.513      111.699       49.137        0.194      347.928       27.253      862.357
07/11/2014  11:07:00       13.954       78.548       -0.488       64.391       53.156       34.809     4146.240     2825.571     1211.672        0.727        0.409       79.778       28.386        0.127      347.934       27.263      862.357
07/11/2014  11:08:00     -115.656       80.516      -18.299       56.214       68.473       38.114     3159.966     4688.602     1452.658        1.475        0.465      140.923       30.805        0.048      347.847       27.112      862.360
07/11/2014  11:09:00      -66.270      169.523      -19.153       64.889       88.854       41.265     4210.588     7895.033     1702.760        2.365        0.690      182.016       44.065        0.059      347.947       27.282      862.386
07/11/2014  11:10:00      -39.685      153.292       -2.931       55.216      106.731       45.928     3048.787    11391.535     2109.358        2.081        0.827      158.345       45.774        0.084      348.098       27.545      862.380
07/11/2014  11:11:00      -39.830      326.535      -24.816       77.361       95.937       54.175     5984.689     9203.933     2934.882        6.347        0.906      328.955       47.861        0.021      347.759       26.958      862.377
07/11/2014  11:12:00      -45.597      375.423      -42.547       61.843      133.195       42.317     3824.536    17740.845     1790.758        8.409        1.168      378.182       52.808        0.019      347.460       26.441      862.399
07/11/2014  11:13:00       22.012      263.363      -32.026       54.326       72.934       37.884     2951.348     5319.339     1435.193        4.029        0.485      264.281       37.293        0.020      347.453       26.428      862.381
07/11/2014  11:14:00      106.620       85.788       -3.414       72.697       51.931       43.596     5284.884     2696.799     1900.584        1.431        0.494      136.848       31.944        0.054      347.787       27.010      862.347
07/11/2014  11:15:00       85.985      156.450       -7.727       67.407       74.205       47.970     4543.690     5506.389     2301.098        2.214        0.618      178.521       45.004        0.064      347.726       26.902      862.354
07/11/2014  11:16:00       12.138      212.836      -26.346       51.267       52.817       40.127     2628.299     2789.604     1610.144        2.658        0.351      213.182       30.115        0.020      347.612       26.705      862.355
07/11/2014  11:17:00        4.690       88.937        3.358       32.303       59.820       28.363     1043.468     3578.456      804.435        0.668        0.271       89.060       25.667        0.083      348.015       27.401      862.356
07/11/2014  11:18:00      -10.420      173.893      -14.773       55.952       98.093       46.260     3130.654     9622.233     2139.983        2.273        0.745      174.205       46.553        0.071      347.906       27.213      862.377
07/11/2014  11:19:00      -78.619      229.049      -15.722       64.620       76.869       38.524     4175.739     5908.871     1484.085        3.523        0.578      242.167       35.877        0.022      347.985       27.347      862.391
07/11/2014  11:20:00     -105.752      242.377      -23.814       68.883      108.092       47.067     4744.828    11683.983     2215.281        4.457        0.932      264.443       50.539        0.037      347.806       27.039      862.411
07/11/2014  11:21:00      -75.495      142.277      -14.226       73.615       75.952       54.167     5419.170     5768.733     2934.013        2.013        0.706      161.066       50.619        0.099      348.034       27.436      862.408
07/11/2014  11:22:00      -73.357      122.537       -6.250       56.431       95.800       33.467     3184.494     9177.717     1120.019        1.696        0.674      142.817       26.567        0.035      347.976       27.335      862.403
07/11/2014  11:23:00     -124.833      181.158      -37.566      105.706      110.351       38.139    11173.854    12177.418     1454.577        3.730        1.240      220.004       30.554        0.019      347.697       26.850      862.426
07/11/2014  11:24:00        0.594       46.042       19.750       29.508       58.140       30.579      870.700     3380.292      935.063        0.385        0.259       46.046       32.655        0.503      348.167       27.667      862.399
07/11/2014  11:25:00        8.780      180.707      -21.572       33.806       51.081       31.640     1142.856     2609.223     1001.111        1.897        0.238      180.920       28.282        0.024      347.673       26.811      862.389
07/11/2014  11:26:00       -1.241      248.585      -28.069       45.962       83.865       43.734     2112.506     7033.270     1912.669        3.682        0.553      248.588       47.807        0.037      347.669       26.801      862.380
07/11/2014  11:27:00      125.302      121.431        7.989      130.073       72.357       52.853    16919.065     5235.596     2793.443        2.772        1.247      174.488       36.478        0.044      348.045       27.452      862.359
07/11/2014  11:28:00      187.069      137.190       24.071       80.749       59.938       66.223     6520.356     3592.516     4385.498        3.444        0.725      231.983       50.025        0.047      347.787       27.007      862.355
07/11/2014  11:29:00      100.324       90.290        1.961       81.390       72.331       46.302     6624.372     5231.833     2143.898        1.611        0.700      134.971       44.433        0.108      347.950       27.290      862.350
07/11/2014  11:30:00        4.342      206.105      -17.881       88.655       93.544       55.846     7859.728     8750.502     3118.756        3.127        0.986      206.151       58.568        0.081      347.934       27.260      862.334
07/11/2014  11:31:00        1.472      116.231        3.419       76.863       80.865       46.957     5907.967     6539.185     2204.945        1.408        0.733      116.240       52.762        0.206      348.044       27.452      862.317
07/11/2014  11:32:00      -88.032      212.945      -20.578       73.917       67.820       55.582     5463.784     4599.513     3089.372        3.333        0.658      230.423       45.114        0.038      348.024       27.415      862.323
07/11/2014  11:33:00     -114.569      190.836      -23.744       55.350       94.127       44.165     3063.571     8859.962     1950.533        3.199        0.694      222.586       50.702        0.052      347.948       27.284      862.355
07/11/2014  11:34:00     -139.642      151.840      -24.545       63.825       95.607       45.863     4073.668     9140.765     2103.393        2.923        0.766      206.289       41.822        0.041      347.907       27.214      862.344
07/11/2014  11:35:00     -142.167      145.743      -29.395       58.615       74.847       39.683     3435.736     5602.129     1574.729        2.646        0.531      203.599       44.499        0.048      347.795       27.023      862.355
07/11/2014  11:36:00     -107.225      145.894      -25.150       61.051       62.675       45.678     3727.246     3928.218     2086.518        2.158        0.487      181.058       42.165        0.054      347.889       27.183      862.349
07/11/2014  11:37:00      -13.225       30.563       24.784       43.005       43.027       29.162     1849.469     1851.304      850.451        0.314        0.228       33.302       17.414        0.273      348.493       28.228      862.336
07/11/2014  11:38:00       26.330      239.927      -10.214       90.885      138.669       55.173     8260.003    19229.216     3044.061        4.444        1.527      241.367       66.668        0.076      347.967       27.317      862.330
07/11/2014  11:39:00       39.527      142.429       -8.930       50.608       89.724       48.755     2561.170     8050.332     2377.042        1.746        0.649      147.812       56.455        0.146      348.017       27.406      862.331
07/11/2014  11:40:00      -36.155      204.933      -15.379       75.786      131.711       56.838     5743.488    17347.877     3230.521        3.493        1.316      208.098       62.996        0.092      348.054       27.468      862.330
07/11/2014  11:41:00     -172.984      163.850      -40.628       66.699       70.475       39.234     4448.799     4966.794     1539.341        3.469        0.548      238.265       33.187        0.019      347.871       27.150      862.319
07/11/2014  11:42:00        9.450       57.353       18.431       39.954       61.598       39.730     1596.319     3794.374     1578.446        0.534        0.348       58.126       44.713        0.592      348.492       28.227      862.293
07/11/2014  11:43:00     -104.460       98.841       -1.685       80.738       87.510       40.328     6518.679     7657.934     1626.365        1.824        0.790      143.810       32.287        0.050      348.248       27.804      862.322
07/11/2014  11:44:00     -141.567       65.919      -17.881       87.060      117.632       43.883     7579.509    13837.400     1925.718        2.402        1.167      156.162       41.067        0.069      348.133       27.607      862.335
07/11/2014  11:45:00     -150.763      156.403      -22.189       75.290       79.088       45.432     5668.604     6254.923     2064.031        3.083        0.699      217.235       40.128        0.034      348.238       27.786      862.336
07/11/2014  11:46:00     -101.794      142.363      -19.192       59.790       70.447       45.018     3574.801     4962.724     2026.579        2.078        0.528      175.012       29.324        0.028      348.153       27.640      862.350
07/11/2014  11:47:00      -41.343      157.320        1.061       51.468       99.149       46.825     2648.939     9830.604     2192.564        2.056        0.734      162.662       47.009        0.084      348.245       27.798      862.357
07/11/2014  11:48:00      -54.084      147.377      -10.200       58.111       87.827       41.414     3376.847     7713.556     1715.107        1.877        0.640      156.988       37.757        0.058      348.144       27.624      862.349
07/11/2014  11:49:00     -120.992      272.994      -29.948       62.527       98.171       51.201     3909.685     9637.504     2621.557        5.311        0.808      298.605       43.287        0.021      347.991       27.358      862.349
07/11/2014  11:50:00     -120.906      316.582      -33.960       70.005      119.944       50.982     4900.665    14386.522     2599.196        6.894        1.094      338.884       50.955        0.023      348.025       27.417      862.335
07/11/2014  11:51:00     -121.438      169.580      -31.107       82.534      131.151       51.029     6811.931    17200.625     2603.981        3.554        1.331      208.577       32.955        0.025      348.087       27.524      862.337
07/11/2014  11:52:00      -61.489      219.372      -30.283       69.005      106.332       43.300     4761.730    11306.436     1874.878        3.538        0.897      227.827       37.390        0.027      348.124       27.589      862.333
07/11/2014  11:53:00      -59.881      172.820      -16.632      104.711      111.025       44.830    10964.416    12326.638     2009.707        2.951        1.265      182.901       38.416        0.044      348.223       27.759      862.329
07/11/2014  11:54:00       17.180      279.173      -26.658       62.595      102.281       50.645     3918.189    10461.428     2564.917        4.794        0.847      279.701       50.302        0.032      348.097       27.542      862.330
07/11/2014  11:55:00      -19.657      181.956       -5.951       83.987      106.769       52.653     7053.866    11399.716     2772.325        2.737        1.061      183.015       43.131        0.056      348.323       27.932      862.329
07/11/2014  11:56:00       61.921      142.226       18.592       78.904      109.211       68.612     6225.848    11926.967     4707.666        2.363        1.143      155.121       65.549        0.179      348.339       27.961      862.332
07/11/2014  11:57:00       92.199       80.978      -10.517      109.873       77.697       63.140    12072.158     6036.885     3986.688        1.863        1.105      122.711       28.504        0.054      348.284       27.866      862.315
07/11/2014  11:58:00       17.163      119.312      -15.448       83.147       71.457       47.961     6913.403     5106.129     2300.262        1.454        0.716      120.540       43.041        0.127      348.430       28.118      862.327
07/11/2014  11:59:00       79.585      129.790       -9.959      101.207       80.932       49.869    10242.860     6550.022     2486.934        2.128        0.964      152.247       37.611        0.061      348.576       28.372      862.330
07/11/2014  12:00:00      -32.258      164.076      -13.234       93.563      107.290       52.194     8753.973    11511.212     2724.196        2.556        1.149      167.217       48.700        0.085      348.551       28.326      862.336
07/11/2014  12:01:00      108.017      109.460        8.971       84.402       80.830       57.760     7123.757     6533.494     3336.187        2.036        0.850      153.783       45.261        0.087      348.385       28.040      862.332
07/11/2014  12:02:00       52.542       42.938        5.986       68.075       36.612       37.190     4634.269     1340.416     1383.118        0.600        0.368       67.855       27.830        0.168      348.451       28.157      862.340
07/11/2014  12:03:00       31.400       91.211        5.628       48.716      112.113       53.845     2373.289    12569.379     2899.326        1.359        0.892       96.465       59.386        0.379      348.522       28.279      862.333
07/11/2014  12:04:00      -37.059      240.631      -28.945       96.003       97.110       48.530     9216.581     9430.436     2355.173        4.055        1.050      243.468       39.831        0.027      348.444       28.141      862.326
07/11/2014  12:05:00     -139.148      229.917      -35.108       85.828      101.572       54.609     7366.496    10316.836     2982.115        4.706        1.033      268.745       57.764        0.046      348.316       27.919      862.327
07/11/2014  12:06:00     -147.145      286.801      -41.951       76.858       74.641       46.658     5907.199     5571.287     2176.973        5.966        0.683      322.345       37.475        0.014      348.118       27.576      862.317
07/11/2014  12:07:00       59.241      159.413        4.504      141.642       98.713       56.140    20062.346     9744.335     3151.706        3.094        1.648      170.065       59.242        0.121      348.350       27.980      862.314
07/11/2014  12:08:00      167.696       95.939       21.047       98.726       74.986       62.079     9746.740     5622.841     3853.789        2.849        0.961      193.200       51.430        0.071      348.359       27.996      862.296
07/11/2014  12:09:00      193.200      134.289       23.834       97.059       90.207       67.945     9420.421     8137.276     4616.521        3.905        1.109      235.286       38.888        0.027      348.264       27.831      862.260
07/11/2014  12:10:00       64.631      292.556      -30.079       88.357      161.364       73.833     7806.944    26038.395     5451.306        6.498        1.965      299.610       84.834        0.080      348.349       27.977      862.279
07/11/2014  12:11:00      -27.831      313.326      -32.137       77.274       95.438       56.819     5971.234     9108.488     3228.361        5.914        0.915      314.559       49.551        0.025      348.182       27.688      862.291
07/11/2014  12:12:00      -80.778      287.828      -28.755       66.502       73.461       46.234     4422.490     5396.459     2137.571        5.107        0.598      298.949       36.333        0.015      348.060       27.477      862.291
07/11/2014  12:13:00      -50.164      190.551      -19.084       58.810       89.592       42.367     3458.566     8026.741     1794.955        2.623        0.664      197.043       42.008        0.045      348.213       27.743      862.295
07/11/2014  12:14:00       -2.648      222.044      -19.641       83.437      107.001       49.835     6961.769    11449.184     2483.560        3.529        1.045      222.060       57.574        0.067      348.306       27.902      862.272
07/11/2014  12:15:00     -147.669      306.234      -30.346       76.708      102.243       50.401     5884.180    10453.706     2540.271        6.769        0.944      339.978       46.123        0.018      348.228       27.767      862.266
07/11/2014  12:16:00       -8.223      251.869      -26.869      101.690      104.006       51.440    10340.770    10817.180     2646.087        4.401        1.190      252.004       52.757        0.044      348.224       27.760      862.282
07/11/2014  12:17:00        8.268      235.859      -19.338       56.159       85.468       43.626     3153.886     7304.731     1903.208        3.421        0.618      236.004       40.814        0.030      348.285       27.866      862.257
07/11/2014  12:18:00      -78.783      133.429       -8.250       45.004       61.322       41.243     2025.402     3760.341     1700.963        1.578        0.374      154.952       37.636        0.059      348.367       28.011      862.254
07/11/2014  12:19:00      -16.512       91.725        5.008       41.483       69.244       34.011     1720.855     4794.749     1156.775        0.819        0.384       93.200       29.119        0.098      348.727       28.634      862.249
07/11/2014  12:20:00       14.882      117.882       -0.180       39.070      108.006       41.946     1526.427    11665.320     1759.445        1.453        0.748      118.818       57.222        0.232      348.386       28.044      862.232
07/11/2014  12:21:00       36.565      191.703      -29.505       49.569       75.855       41.413     2457.088     5753.927     1715.008        2.444        0.496      195.159       45.661        0.055      348.307       27.904      862.220
07/11/2014  12:22:00        7.882      167.686      -18.982       51.089       38.353       31.084     2610.137     1470.917      966.216        1.679        0.252      167.871       20.841        0.015      348.418       28.099      862.219
07/11/2014  12:23:00      -21.904      177.740      -20.092       73.331      125.007       44.499     5377.482    15626.646     1980.170        2.772        1.149      179.084       54.991        0.094      348.452       28.157      862.211
07/11/2014  12:24:00      -10.030      104.471       12.639       87.632       80.382       53.489     7679.369     6461.224     2861.039        1.408        0.850      104.952       55.770        0.282      348.512       28.263      862.196
07/11/2014  12:25:00       10.964      320.160      -28.928       73.819      147.296       54.589     5449.254    21696.257     2979.924        6.679        1.506      320.348       66.566        0.043      348.183       27.691      862.182
07/11/2014  12:26:00       64.363       48.174       15.045       65.998       47.344       50.955     4355.736     2241.443     2596.444        0.794        0.460       80.395       29.649        0.136      348.798       28.757      862.163
07/11/2014  12:27:00       37.190      147.886       -7.082       73.224       90.588       57.636     5361.752     8206.210     3321.936        2.009        0.844      152.490       40.534        0.071      348.613       28.436      862.147
07/11/2014  12:28:00       58.331      183.403       -6.207       67.076      117.900       67.316     4499.217    13900.304     4531.419        3.000        1.147      192.456       72.270        0.141      348.649       28.499      862.123
07/11/2014  12:29:00      193.992      158.397        7.044       94.693       61.686       67.291     8966.678     3805.196     4528.144        4.003        0.865      250.444       41.030        0.027      348.509       28.254      862.110
07/11/2014  12:30:00      -25.805       87.568      -13.964       71.225       72.542       37.034     5073.060     5262.347     1371.503        1.012        0.585       91.291       30.685        0.113      348.754       28.681      862.140
07/11/2014  12:31:00        0.569       18.029        5.478       44.830       70.919       26.798     2009.754     5029.575      718.144        0.405        0.388       18.038       19.357        1.151      348.557       28.342      862.133
07/11/2014  12:32:00      -22.108      -31.420       11.783       56.000       33.739       34.505     3136.045     1138.345     1190.566        0.354        0.273       38.418       28.227        0.540      348.719       28.621      862.110
07/11/2014  12:33:00        4.612      -18.370      -12.634       17.867       19.454       22.728      319.216      378.464      516.584        0.087        0.061       18.940       14.178        0.560      348.868       28.879      862.105
07/11/2014  12:34:00       11.759       -2.863       20.756       13.061       17.297       18.473      170.595      299.188      341.235        0.069        0.041       12.103       14.973        1.531      349.538       30.040      862.091
07/11/2014  12:35:00       62.689      105.102        2.476       66.921       79.368       44.363     4478.390     6299.210     1968.082        1.386        0.637      122.378       40.888        0.112      349.048       29.188      862.076
07/11/2014  12:36:00       96.070       72.154       30.289       79.370       63.703       62.609     6299.522     4058.012     3919.848        1.481        0.714      120.148       50.377        0.176      348.597       28.409      862.073
07/11/2014  12:37:00       73.655       51.359       19.872       52.335       49.152       53.052     2738.941     2415.943     2814.545        0.821        0.398       89.793       36.110        0.162      348.787       28.738      862.070
07/11/2014  12:38:00       58.286       90.137       86.028       79.473       59.555       45.811     6315.986     3546.850     2098.672        1.544        0.598      107.340       37.767        0.124      349.300       29.626      862.049
07/11/2014  12:39:00       41.272       82.687       78.183       77.054       58.414       49.841     5937.275     3412.150     2484.102        1.324        0.592       92.415       30.922        0.112      349.551       30.063      862.049
07/11/2014  12:40:00      176.557       90.846       36.144       68.317       54.552       55.290     4667.270     2975.931     3056.944        2.571        0.535      198.559       32.196        0.026      348.466       28.179      862.030
07/11/2014  12:41:00       81.954       30.703       26.858       66.990       62.657       34.087     4487.726     3925.845     1161.951        0.898        0.479       87.517       19.795        0.051      348.824       28.802      862.017
07/11/2014  12:42:00       20.577        7.777       33.560       47.765       63.276       42.264     2281.457     4003.897     1786.252        0.484        0.404       21.997       29.269        1.770      349.273       29.580      861.993
07/11/2014  12:43:00       50.964       20.095       23.265       52.400       59.021       38.235     2745.721     3483.474     1461.879        0.562        0.385       54.783       26.285        0.230      349.238       29.520      861.975
07/11/2014  12:44:00      114.220       58.472       44.497       58.979       50.598       41.721     3478.508     2560.185     1740.631        1.311        0.389      128.317       31.554        0.060      348.942       29.006      861.965
07/11/2014  12:45:00       79.994       43.629       74.124       72.601       75.066       49.786     5270.898     5634.932     2478.681        1.359        0.669       91.118       38.174        0.176      349.035       29.168      861.954
07/11/2014  12:46:00       95.208       84.647       56.023       88.252       66.357       51.908     7788.336     4403.228     2694.430        1.712        0.744      127.395       46.823        0.135      349.124       29.322      861.927
07/11/2014  12:47:00      105.669      145.781        6.720       67.769       87.334       60.473     4592.638     7627.291     3656.923        2.417        0.794      180.050       53.224        0.087      349.015       29.132      861.929
07/11/2014  12:48:00       61.059      158.708        1.528       58.134       74.995       59.727     3379.608     5624.226     3567.289        2.074        0.629      170.048       53.818        0.100      348.907       28.942      861.918
07/11/2014  12:49:00       85.611       85.610       -0.940       64.638       57.565       43.611     4178.104     3313.785     1901.926        1.202        0.470      121.071       34.739        0.082      348.963       29.042      861.917
07/11/2014  12:50:00       90.206      137.718       -2.242      114.178      110.449       62.263    13036.635    12198.872     3876.681        2.810        1.456      164.631       65.941        0.160      348.986       29.081      861.923
07/11/2014  12:51:00        4.034      219.207      -15.955      112.942      113.470       51.877    12756.005    12875.330     2691.174        3.832        1.416      219.245       62.818        0.082      348.949       29.017      861.927
07/11/2014  12:52:00       -0.488      236.015      -18.124       57.909       98.208       37.542     3353.507     9644.813     1409.400        3.522        0.720      236.015       47.481        0.040      348.629       28.461      861.932
07/11/2014  12:53:00      103.775       76.756        9.305       34.436       48.220       40.097     1185.862     2325.144     1607.783        1.093        0.256      129.076       29.549        0.052      348.583       28.384      861.906
07/11/2014  12:54:00      189.553       98.154       24.825      138.268       59.565       50.345    19118.040     3548.023     2534.641        3.569        1.260      213.459       43.674        0.042      348.713       28.608      861.874
07/11/2014  12:55:00      308.488      171.799       20.215      145.188       92.541       81.118    21079.535     8563.859     6580.184        8.065        1.811      353.100       60.448        0.029      348.802       28.761      861.856
07/11/2014  12:56:00      197.768      152.610       44.878       88.210       71.699       79.229     7781.005     5140.756     6277.218        4.180        0.960      249.804       44.094        0.031      348.693       28.572      861.887
07/11/2014  12:57:00       72.750       88.292        6.411       64.533       74.903       49.709     4164.503     5610.510     2471.032        1.269        0.612      114.403       46.207        0.163      348.941       29.004      861.886
07/11/2014  12:58:00      210.160      117.639       33.824       84.343       48.914       53.071     7113.759     2392.621     2816.528        3.573        0.616      240.845       31.888        0.018      348.917       28.961      861.850
07/11/2014  12:59:00      130.836       54.810       72.320       92.972       59.165       52.836     8643.751     3500.448     2791.618        2.014        0.747      141.853       40.788        0.083      348.762       28.694      861.808
07/11/2014  13:00:00       58.174       57.875       57.654       50.279       58.855       45.109     2528.024     3463.920     2034.846        0.904        0.401       82.060       43.921        0.286      348.754       28.681      861.777
07/11/2014  13:01:00       54.351      -15.915       38.796       42.565       66.370       42.780     1811.795     4405.020     1830.157        0.638        0.402       56.633       39.393        0.484      349.093       29.270      861.757
07/11/2014  13:02:00       24.147       30.270       70.553       48.898       63.010       33.391     2391.003     3970.316     1114.977        0.698        0.374       38.721       36.600        0.893      349.392       29.785      861.732
07/11/2014  13:03:00      137.896       84.329       40.836       59.316       54.981       45.417     3518.382     3022.962     2062.670        1.820        0.430      161.638       15.888        0.010      349.253       29.543      861.732
07/11/2014  13:04:00      223.364      158.861       11.665       85.436       54.963       61.332     7299.228     3020.943     3761.606        4.467        0.704      274.095       37.650        0.019      348.644       28.488      861.723
07/11/2014  13:05:00       54.576       53.324        4.886       54.848       51.871       29.667     3008.303     2690.591      880.133        0.621        0.329       76.302       26.250        0.118      348.981       29.074      861.731
07/11/2014  13:06:00      -42.023       70.685       -3.542       46.330       58.148       31.657     2146.466     3381.147     1002.165        0.665        0.326       82.233       22.311        0.074      349.214       29.478      861.730
07/11/2014  13:07:00      -81.994      164.286      -15.295       83.406       87.772       55.118     6956.523     7703.852     3037.995        2.582        0.885      183.610       48.103        0.069      349.299       29.623      861.726
07/11/2014  13:08:00      -81.926      125.227       -7.400       74.415       76.680       50.148     5537.574     5879.842     2514.795        1.819        0.697      149.645       42.047        0.079      349.283       29.595      861.712
07/11/2014  13:09:00      -89.138      134.927        4.613       71.662       82.019       53.030     5135.380     6727.168     2812.230        2.042        0.734      161.713       47.091        0.085      349.524       30.013      861.695
07/11/2014  13:10:00       31.708       33.385       -1.903       74.019       90.482       47.206     5478.758     8187.062     2228.425        0.901        0.795       46.043       41.018        0.794      349.318       29.659      861.680
07/11/2014  13:11:00      -73.067      240.007      -22.555      112.066      123.199       62.634    12558.836    15178.116     3923.047        4.755        1.583      250.882       62.458        0.062      349.153       29.368      861.666
07/11/2014  13:12:00      -65.761      214.925      -11.862       67.509       95.724       50.869     4557.501     9163.026     2587.608        3.348        0.815      224.760       43.831        0.038      349.114       29.303      861.670
07/11/2014  13:13:00      -50.827      189.663      -15.132       37.362       57.405       32.309     1395.901     3295.300     1043.849        2.226        0.287      196.356       24.822        0.016      348.882       28.901      861.643
07/11/2014  13:14:00        2.780       52.313        3.312       48.839       45.695       31.993     2385.220     2088.049     1023.564        0.413        0.275       52.387       21.436        0.167      349.259       29.557      861.614
07/11/2014  13:15:00      -33.586        5.323      -11.839       42.287       36.731       27.873     1788.210     1349.189      776.884        0.260        0.196       34.006       24.130        0.503      349.106       29.291      861.574
07/11/2014  13:16:00      -41.129       44.341      -15.755       54.993       52.924       30.482     3024.242     2800.963      929.132        0.533        0.338       60.479       13.350        0.049      349.358       29.726      861.580
07/11/2014  13:17:00      -35.384      -17.318       11.663       39.515       27.379       25.529     1561.415      749.610      651.750        0.232        0.148       39.395       27.194        0.477      349.728       30.371      861.571
07/11/2014  13:18:00       11.139      -15.893       23.638       46.408       43.280       26.915     2153.728     1873.121      724.401        0.284        0.238       19.408       17.271        0.792      350.239       31.256      861.541
07/11/2014  13:19:00       -8.900      -34.768       14.618       67.052       51.743       29.946     4495.935     2677.367      896.775        0.478        0.404       35.889       34.604        0.930      349.530       30.025      861.517
07/11/2014  13:20:00      -32.890      -12.290        7.766       27.428       27.688       32.668      752.283      766.647     1067.197        0.194        0.129       35.111       26.347        0.563      349.455       29.897      861.519
07/11/2014  13:21:00       83.827       79.676       76.787      113.793       70.167       73.141    12948.793     4923.460     5349.550        2.124        1.161      115.652       63.964        0.306      349.765       30.432      861.517
07/11/2014  13:22:00       60.759      125.596       93.976       76.845       65.761       71.847     5905.167     4324.487     5162.030        2.184        0.770      139.521       44.394        0.101      349.570       30.093      861.514
07/11/2014  13:23:00      168.476      150.316       -8.516      120.638       93.386       65.887    14553.635     8720.913     4341.155        3.933        1.381      225.786       54.637        0.059      349.397       29.793      861.519
07/11/2014  13:24:00      103.753      122.486       12.046      115.978       89.621       77.979    13450.811     8031.983     6080.731        2.673        1.378      160.523       61.914        0.149      349.425       29.841      861.526
07/11/2014  13:25:00      233.421      169.391       26.305       97.777       84.459       61.451     9560.338     7133.355     3776.196        5.217        1.023      288.407       26.726        0.009      349.069       29.222      861.502
07/11/2014  13:26:00      128.576       56.754       40.920       82.269       67.852       57.444     6768.200     4603.848     3299.866        1.805        0.734      140.544       46.298        0.109      349.222       29.490      861.485
07/11/2014  13:27:00       75.251      -24.411       77.647       83.271       86.406       58.369     6934.015     7466.012     3406.929        1.504        0.890       79.112       30.568        0.149      349.293       29.615      861.459
07/11/2014  13:28:00       28.598       21.350       17.954       68.336       68.892       53.653     4669.825     4746.062     2878.675        0.694        0.615       35.688       35.121        0.968      349.232       29.508      861.457
07/11/2014  13:29:00       23.132      104.428      -13.264       55.720       46.049       37.393     3104.696     2120.488     1398.247        0.912        0.331      106.959       30.965        0.084      349.408       29.814      861.461
07/11/2014  13:30:00        0.969       25.784       -7.618      118.607       55.540       32.263    14067.579     3084.663     1040.908        0.945        0.910       25.802       22.805        0.781      349.400       29.799      861.446
07/11/2014  13:31:00       -7.509       91.745       -7.395       42.362       55.562       37.144     1794.542     3087.104     1379.690        0.739        0.313       92.052       38.410        0.174      349.621       30.183      861.423
07/11/2014  13:32:00      -24.727       88.392       14.132       37.984       77.596       38.366     1442.755     6021.137     1471.961        0.878        0.447       91.785       30.349        0.109      350.077       30.975      861.430
07/11/2014  13:33:00       28.945      223.566      -28.485       49.883      149.138       39.714     2488.301    22242.277     1577.172        3.896        1.315      225.432       55.694        0.061      349.317       29.654      861.449
07/11/2014  13:34:00      -49.350       36.851       -7.321       79.617       93.613       49.161     6338.874     8763.344     2416.785        1.068        0.876       61.591       41.979        0.465      349.741       30.391      861.450
07/11/2014  13:35:00     -247.000       32.299      -29.637      122.962      102.547       53.701    15119.725    10515.938     2883.770        4.572        1.426      249.102       36.595        0.022      349.322       29.661      861.458
07/11/2014  13:36:00     -298.184        7.158      -45.774       80.121       85.023       46.340     6419.428     7228.855     2147.438        5.342        0.790      298.270       28.043        0.009      349.145       29.355      861.458
07/11/2014  13:37:00     -226.892      -48.076      -19.123      109.619       93.703       53.494    12016.274     8780.339     2861.601        3.890        1.183      231.929       46.040        0.039      349.228       29.500      861.463
07/11/2014  13:38:00     -140.913     -103.747       -2.423       73.828       58.518       36.920     5450.576     3424.304     1363.083        2.043        0.512      174.986       30.922        0.031      349.282       29.595      861.463
07/11/2014  13:39:00      -40.163      -69.598       19.323       59.215       56.576       36.086     3506.451     3200.864     1302.172        0.742        0.400       80.355       23.924        0.089      349.518       30.007      861.456
07/11/2014  13:40:00       -0.290      -78.575        6.186       50.048       47.727       34.474     2504.772     2277.841     1188.428        0.609        0.299       78.576       24.029        0.094      349.472       29.925      861.461
07/11/2014  13:41:00      -32.803      -24.053       14.518       40.467       41.961       31.907     1637.607     1760.765     1018.037        0.314        0.221       40.677       25.688        0.399      349.557       30.071      861.479
07/11/2014  13:42:00      -89.134        7.700      -10.791       27.546       28.039       14.720      758.796      786.164      216.667        0.494        0.088       89.466        9.029        0.010      349.103       29.286      861.466
07/11/2014  13:43:00      -14.220       19.354       26.718       35.867       24.452       31.996     1286.463      597.913     1023.733        0.210        0.145       24.016       23.040        0.920      349.941       30.741      861.470
07/11/2014  13:44:00      -11.685      -41.384       -2.983       26.891       74.003       23.047      723.147     5476.477      531.184        0.429        0.337       43.002       13.654        0.101      349.454       29.894      861.459
07/11/2014  13:45:00      -58.815      -66.411      -11.577       47.746       48.094       32.478     2279.727     2312.989     1054.852        0.682        0.282       88.711       20.091        0.051      349.263       29.562      861.448
07/11/2014  13:46:00     -203.105      -11.251       -5.716      110.488       72.476       46.184    12207.498     5252.772     2132.948        3.050        0.980      203.417       57.767        0.081      349.289       29.605      861.431
07/11/2014  13:47:00       -5.148      -71.408       37.892       64.127       67.763       40.101     4112.321     4591.761     1608.060        0.843        0.516       71.594       41.419        0.335      349.927       30.717      861.419
07/11/2014  13:48:00      -68.109      -57.545       10.506       74.315       55.823       36.188     5522.793     3116.175     1309.559        0.900        0.497       89.165       33.675        0.143      349.622       30.185      861.407
07/11/2014  13:49:00       -4.560      -42.814       39.742       40.258       53.580       46.514     1620.688     2870.795     2163.573        0.504        0.333       43.056       27.260        0.401      349.909       30.683      861.417
07/11/2014  13:50:00      -52.584      -98.089        7.837       68.438       81.784       32.695     4683.767     6688.556     1068.964        1.244        0.622      111.295       33.609        0.091      349.681       30.287      861.399
07/11/2014  13:51:00     -188.075     -170.036       -8.121       99.535       94.726       40.318     9907.164     8972.971     1625.504        4.242        1.025      253.544       21.766        0.007      349.364       29.733      861.388
07/11/2014  13:52:00     -235.431      -48.278        1.889       81.244       93.223       48.484     6600.600     8690.501     2350.650        3.770        0.882      240.330       32.672        0.018      349.334       29.681      861.384
07/11/2014  13:53:00      -59.222      -35.081       12.398      150.390       90.726       49.463    22617.029     8231.150     2446.595        1.909        1.665       68.832       45.749        0.442      349.737       30.382      861.390
07/11/2014  13:54:00     -158.263     -151.283        7.001      132.804       98.801       53.432    17636.832     9761.694     2854.954        3.911        1.513      218.938       50.100        0.052      349.424       29.837      861.370
07/11/2014  13:55:00     -166.709     -287.614       14.284      179.154      122.483       78.613    32096.088    15002.088     6180.079        8.199        2.664      332.436       88.998        0.072      349.221       29.488      861.365
07/11/2014  13:56:00     -125.720     -237.454        3.081      157.296      114.594       66.948    24742.121    13131.759     4482.020        5.727        2.118      268.682       76.967        0.082      349.053       29.197      861.381
07/11/2014  13:57:00      -69.821     -176.486       -0.702      108.152       75.218       49.626    11696.774     5657.707     2462.780        2.792        0.991      189.796       43.684        0.053      349.269       29.570      861.374
07/11/2014  13:58:00      -79.255     -112.024      -12.946       73.126       66.505       40.916     5347.485     4422.896     1674.106        1.522        0.572      137.225       26.279        0.037      349.345       29.705      861.353
07/11/2014  13:59:00       39.029     -100.114       20.460      104.964      115.781       50.063    11017.390    13405.252     2506.283        1.944        1.346      107.453       58.661        0.298      349.630       30.199      861.344
07/11/2014  14:00:00      -38.565      -64.459        7.430       89.524       45.264       56.603     8014.488     2048.809     3203.915        0.948        0.663       75.114       51.201        0.465      349.795       30.486      861.322
07/11/2014  14:01:00      -36.478      -74.524       15.567       97.681       74.069       62.463     9541.556     5486.190     3901.689        1.302        0.946       82.972       58.717        0.501      349.872       30.618      861.300
07/11/2014  14:02:00      -53.954     -110.038      -10.675       71.972       64.933       48.664     5180.022     4216.234     2368.208        1.345        0.588      122.554       35.006        0.082      349.408       29.813      861.284
07/11/2014  14:03:00     -118.969      -47.827       -1.173       73.984       48.559       29.696     5473.656     2358.010      881.841        1.258        0.436      128.222       32.924        0.066      349.439       29.868      861.297
07/11/2014  14:04:00     -156.660       38.790      -13.692       31.706       34.650       20.850     1005.281     1200.637      434.724        1.444        0.132      161.391       16.452        0.010      349.133       29.337      861.326
07/11/2014  14:05:00     -113.283       74.927      -16.801       40.617       48.146       25.701     1649.704     2318.077      660.524        1.168        0.231      135.820       18.909        0.019      349.523       30.013      861.356
07/11/2014  14:06:00      -74.526      117.542        9.405       76.233       82.528       52.644     5811.420     6810.822     2771.353        1.742        0.770      139.177       56.043        0.162      350.092       31.000      861.364
07/11/2014  14:07:00      -64.210      124.722       15.166       84.938       96.944       63.836     7214.505     9398.182     4075.050        2.029        1.034      140.280       64.816        0.213      350.145       31.091      861.362
07/11/2014  14:08:00     -163.716      -12.848       22.122      152.990      114.931       79.593    23405.996    13209.144     6335.103        3.520        2.148      164.219       86.488        0.277      349.928       30.713      861.340
07/11/2014  14:09:00     -217.211       30.125      -25.906      112.008       99.806       64.449    12545.796     9961.336     4153.705        3.770        1.333      219.290       52.834        0.058      349.894       30.654      861.355
07/11/2014  14:10:00     -428.933       90.616      -50.224      147.273      156.065       63.691    21689.195    24356.278     4056.603       12.240        2.505      438.400       51.234        0.014      349.248       29.532      861.369
07/11/2014  14:11:00     -294.038       -4.642      -37.244      127.873       98.208       77.516    16351.406     9644.797     6008.740        5.993        1.600      294.074       77.543        0.070      349.363       29.731      861.360
07/11/2014  14:12:00     -254.666      -34.443      -15.906      159.047      104.235       61.133    25295.926    10864.963     3737.259        5.309        1.995      256.985       52.738        0.042      349.400       29.797      861.376
07/11/2014  14:13:00      -17.043       81.526       17.957       67.112      112.081       49.470     4504.024    12562.104     2447.278        1.338        0.976       83.288       62.451        0.562      349.619       30.178      861.399
07/11/2014  14:14:00     -165.307      145.914      -34.712      114.635       83.754       56.288    13141.129     7014.784     3168.389        3.657        1.166      220.494       60.617        0.076      349.280       29.589      861.397
07/11/2014  14:15:00     -106.953      217.507      -34.392       99.592      103.184       44.574     9918.529    10646.841     1986.863        4.124        1.128      242.380       34.887        0.021      349.217       29.480      861.391
07/11/2014  14:16:00      -78.046      293.027      -35.368       86.750      114.549       53.724     7525.592    13121.470     2886.226        5.837        1.177      303.243       53.196        0.031      349.193       29.437      861.396
07/11/2014  14:17:00     -119.885      207.754      -31.029      115.883      101.023       51.716    13428.810    10205.743     2674.545        4.240        1.315      239.862       60.226        0.063      349.213       29.474      861.398
07/11/2014  14:18:00      -75.204      221.817      -25.170       81.889       96.774       52.007     6705.775     9365.131     2704.766        3.713        0.939      234.218       42.997        0.034      349.367       29.740      861.404
07/11/2014  14:19:00     -109.647      245.643      -35.123      105.777      107.078       58.317    11188.687    11465.620     3400.922        4.982        1.303      269.003       63.145        0.055      349.081       29.246      861.424
07/11/2014  14:20:00      -20.595      262.035      -35.206       43.587      106.542       34.204     1899.811    11351.197     1169.909        4.237        0.721      262.843       34.259        0.017      348.878       28.894      861.395
07/11/2014  14:21:00      -51.812      338.644      -42.461       66.222       81.259       42.569     4385.371     6603.097     1812.158        6.598        0.640      342.585       34.860        0.010      348.990       29.085      861.393
07/11/2014  14:22:00      -22.656      269.181      -26.850       65.605       74.783       40.639     4304.071     5592.485     1651.530        4.262        0.577      270.133       41.677        0.024      348.994       29.094      861.397
07/11/2014  14:23:00     -103.842      173.747      -22.723       64.995       85.143       45.332     4224.294     7249.380     2054.997        2.751        0.676      202.414       44.018        0.047      349.183       29.421      861.369
07/11/2014  14:24:00       11.180      348.527      -54.820       60.200      158.891       44.770     3624.068    25246.247     2004.352        7.773        1.544      348.706       63.352        0.033      349.114       29.304      861.359
07/11/2014  14:25:00       -5.727      335.255      -32.335       95.574      139.544       61.096     9134.336    19472.516     3732.696        7.290        1.617      335.304       73.183        0.048      349.125       29.321      861.377
07/11/2014  14:26:00       39.133      210.384      -14.619       79.809       86.315       66.681     6369.415     7450.224     4446.359        3.213        0.913      213.992       61.493        0.083      349.274       29.579      861.387
07/11/2014  14:27:00       79.752      168.983      -17.752       44.183       71.949       41.332     1952.135     5176.597     1708.332        2.203        0.442      186.857       35.604        0.036      349.075       29.235      861.385
07/11/2014  14:28:00       83.062      113.698       -3.500       61.260       51.813       37.063     3752.742     2684.561     1373.661        1.382        0.391      140.807       29.181        0.043      348.997       29.100      861.376
07/11/2014  14:29:00      125.236       82.905       23.535       42.487       34.178       31.494     1805.129     1168.112      991.854        1.354        0.198      150.191       16.748        0.012      348.970       29.054      861.363
07/11/2014  14:30:00       33.171       30.521       14.722       84.489       38.934       27.906     7138.449     1515.865      778.750        0.584        0.472       45.076       25.991        0.332      349.184       29.425      861.350
07/11/2014  14:31:00      -27.007      -16.370       16.159       88.559       53.677       36.277     7842.635     2881.207     1316.009        0.665        0.602       31.581       29.434        0.869      349.217       29.483      861.364
07/11/2014  14:32:00      -34.681      -27.214       15.334       77.153       39.204       35.542     5952.531     1536.923     1263.200        0.546        0.438       44.084       39.085        0.786      349.565       30.086      861.367
07/11/2014  14:33:00       -3.208        8.456        7.415       41.405       37.547       36.772     1714.389     1409.757     1352.186        0.231        0.224        9.044       25.872        8.183      349.587       30.125      861.365
07/11/2014  14:34:00        4.941       48.172       34.524       30.278       52.115       25.277      916.750     2715.929      638.911        0.390        0.214       48.425       25.839        0.285      349.789       30.476      861.343
07/11/2014  14:35:00      -72.715       68.190       -7.007       58.079       53.234       31.082     3373.119     2833.899      966.094        0.858        0.359       99.686       24.438        0.060      349.411       29.818      861.341
07/11/2014  14:36:00      -27.496      168.038        5.441       83.350       81.326       52.078     6947.159     6613.967     2712.131        2.264        0.814      170.273       52.022        0.093      349.472       29.923      861.345
07/11/2014  14:37:00      -72.655      188.255      -24.794       62.988       88.061       34.793     3967.491     7754.670     1210.539        2.713        0.647      201.789       28.366        0.020      349.173       29.404      861.347
07/11/2014  14:38:00      -72.854      107.626      -30.714       68.556       66.739       30.560     4699.978     4454.080      933.911        1.396        0.504      129.965       38.202        0.086      348.964       29.044      861.327
07/11/2014  14:39:00       -9.290      153.054       -0.916       35.523       68.126       37.665     1261.901     4641.181     1418.690        1.542        0.366      153.336       38.472        0.063      349.242       29.525      861.315
07/11/2014  14:40:00      -11.530       55.417       19.067       33.510       36.288       26.666     1122.932     1316.796      711.070        0.336        0.158       56.604       21.969        0.151      349.481       29.939      861.297
07/11/2014  14:41:00        0.080       19.683        3.608       35.230       28.414       25.806     1241.121      807.359      665.942        0.156        0.136       19.683       15.351        0.608      349.319       29.660      861.253
07/11/2014  14:42:00      -98.433       -3.077       -2.627       53.092       43.669       26.054     2818.788     1906.950      678.801        0.755        0.270       98.482       23.995        0.059      349.189       29.433      861.225
07/11/2014  14:43:00     -141.538      -39.981       -7.038       72.488       49.835       29.712     5254.557     2483.493      882.819        1.515        0.431      147.077       31.409        0.046      349.206       29.463      861.214
07/11/2014  14:44:00     -144.798       39.198      -15.313       87.918       38.073       27.231     7729.616     1449.542      741.553        1.633        0.496      150.010       34.713        0.054      349.210       29.470      861.191
07/11/2014  14:45:00      -53.334        2.519       11.336       65.484       33.137       30.971     4288.173     1098.077      959.212        0.466        0.317       53.393       36.760        0.474      349.649       30.232      861.151
07/11/2014  14:46:00      -54.335      119.568        2.874       68.374      152.868       55.953     4675.026    23368.607     3130.769        2.421        1.559      131.335       40.697        0.096      349.581       30.112      861.173
07/11/2014  14:47:00      -58.039      193.156      -21.218       83.138       75.626       42.427     6911.958     5719.281     1800.081        2.778        0.722      201.687       37.439        0.034      349.386       29.773      861.163
07/11/2014  14:48:00      -70.094      176.789      -21.472       82.401      130.318       61.159     6789.851    16982.815     3740.476        3.207        1.376      190.177       65.060        0.117      349.513       29.995      861.137
07/11/2014  14:49:00     -243.826       26.739      -35.193      121.731      130.880       52.682    14818.365    17129.482     2775.391        4.806        1.736      245.288       51.127        0.043      349.332       29.679      861.139
07/11/2014  14:50:00     -165.892      177.578      -38.687       70.801       61.140       42.720     5012.773     3738.050     1825.016        3.556        0.529      243.010       33.781        0.019      349.197       29.443      861.146
07/11/2014  14:51:00      -27.929      148.455       -6.131       61.889       91.922       42.624     3830.285     8449.574     1816.788        1.847        0.705      151.059       46.666        0.095      349.517       30.003      861.150
07/11/2014  14:52:00     -100.865       89.374      -20.025       74.050       60.390       43.551     5483.404     3646.945     1896.693        1.479        0.551      134.764       50.239        0.139      349.493       29.960      861.146
07/11/2014  14:53:00      -39.626      180.792      -14.509       50.382       65.221       42.459     2538.342     4253.752     1802.774        2.153        0.430      185.083       31.177        0.028      349.420       29.834      861.132
07/11/2014  14:54:00      -47.877      260.278      -17.617       66.523      121.635       50.827     4425.260    14795.122     2583.356        4.607        1.090      264.645       42.678        0.026      349.490       29.952      861.119
07/11/2014  14:55:00      -90.389      283.155      -19.667       75.643       97.946       43.881     5721.854     9593.440     1925.578        5.298        0.862      297.233       33.529        0.013      349.358       29.724      861.081
07/11/2014  14:56:00      -80.563      262.652      -36.872       72.456       89.493       43.368     5249.921     8009.076     1880.815        4.598        0.757      274.730       46.424        0.029      349.332       29.679      861.091
07/11/2014  14:57:00      -98.489       83.125      -20.744       30.553       78.620       29.594      933.493     6181.183      875.818        1.251        0.400      128.879       27.716        0.046      349.249       29.538      861.107
07/11/2014  14:58:00      -40.339       70.840        0.160       50.165       62.293       32.057     2516.511     3880.418     1027.665        0.703        0.371       81.520       32.712        0.161      349.484       29.947      861.093
07/11/2014  14:59:00      -32.892       59.085       -9.885       29.530       32.167       27.410      872.012     1034.697      751.327        0.366        0.133       67.623       14.590        0.047      349.626       30.191      861.095
07/11/2014  15:00:00      -78.631       61.641       10.587       51.563       64.948       36.403     2658.717     4218.220     1325.196        0.915        0.410       99.913       24.978        0.062      349.894       30.658      861.094
07/11/2014  15:01:00     -262.918      -69.100      -21.580      116.661      100.871       52.597    13609.806    10174.960     2766.402        5.045        1.328      271.847       56.952        0.044      349.519       30.005      861.112
07/11/2014  15:02:00     -227.990      -53.250      -10.724      139.152       96.068       55.285    19363.162     9229.025     3056.384        4.328        1.582      234.126       52.977        0.051      349.614       30.169      861.120
07/11/2014  15:03:00     -145.461      -89.953      -14.292       89.769       55.862       33.997     8058.391     3120.512     1155.830        2.089        0.617      171.028       34.672        0.041      349.124       29.320      861.155
07/11/2014  15:04:00     -134.998      -70.802        9.489       96.597       65.791       43.981     9330.938     4328.497     1934.329        1.946        0.780      152.438       53.797        0.125      349.403       29.804      861.149
07/11/2014  15:05:00      -30.556      -88.015       15.716       68.847       63.676       37.291     4739.949     4054.679     1390.641        0.955        0.509       93.168       34.777        0.139      349.371       29.749      861.170
07/11/2014  15:06:00     -251.287     -179.982        2.463      121.565       88.459       66.509    14778.163     7825.027     4423.399        6.128        1.351      309.093       67.689        0.048      349.258       29.549      861.143
07/11/2014  15:07:00     -165.805     -126.871        8.225       76.876       57.503       39.478     5909.844     3306.583     1558.539        2.721        0.539      208.776       34.376        0.027      349.191       29.435      861.151
07/11/2014  15:08:00      -37.220     -160.634       -5.677       50.331       68.286       31.868     2533.239     4663.011     1015.554        1.771        0.411      164.890       22.321        0.018      349.090       29.263      861.134
07/11/2014  15:09:00     -151.761      -71.859       -1.154       52.726       41.527       24.926     2780.004     1724.473      621.299        1.666        0.256      167.914       21.299        0.016      349.150       29.366      861.138
07/11/2014  15:10:00     -141.093       58.682      -11.212       73.120       71.871       40.683     5346.502     5165.375     1655.109        1.782        0.608      152.810       35.372        0.054      349.314       29.651      861.166
07/11/2014  15:11:00     -238.730       22.452      -26.879       80.449      110.658       42.843     6471.993    12245.120     1835.543        3.938        1.028      239.784       39.143        0.027      349.343       29.696      861.157
07/11/2014  15:12:00     -305.871      -73.289      -40.898       80.219       51.180       37.305     6435.065     2619.438     1391.695        5.552        0.522      314.528       30.903        0.010      349.265       29.561      861.162
07/11/2014  15:13:00     -158.791      -39.351      -25.876       69.688       61.335       43.657     4856.381     3761.952     1905.921        1.898        0.526      163.595       28.199        0.030      349.473       29.926      861.168
07/11/2014  15:14:00      -49.103       29.667       38.728       66.961       57.027       51.468     4483.753     3252.100     2648.963        0.759        0.519       57.369       50.612        0.778      349.927       30.714      861.138
07/11/2014  15:15:00     -134.616       28.818      -14.143      105.634       80.491       46.148    11158.588     6478.838     2129.599        1.946        0.988      137.666       46.778        0.115      349.597       30.140      861.135
07/11/2014  15:16:00     -287.959      -59.035      -21.306       85.928       64.511       48.011     7383.547     4161.626     2305.066        5.035        0.693      293.948       39.966        0.018      349.521       30.008      861.108
07/11/2014  15:17:00     -331.719      -28.087      -32.372       99.595       50.287       41.156     9919.137     2528.807     1693.820        6.301        0.707      332.906       45.571        0.019      349.302       29.626      861.112
07/11/2014  15:18:00     -115.087       14.482      -23.900       41.315       29.175       21.666     1706.905      851.157      469.395        0.853        0.151      115.995       17.549        0.023      349.182       29.426      861.093
07/11/2014  15:19:00       -7.208       22.769      -17.969       25.280       41.135       29.246      639.086     1692.077      855.344        0.204        0.159       23.883        8.710        0.133      349.344       29.702      861.074
07/11/2014  15:20:00      -17.496      -30.329      -20.157       20.870       40.551       13.975      435.558     1644.358      195.308        0.195        0.114       35.013       20.569        0.345      349.154       29.373      861.078
07/11/2014  15:21:00       -6.921      -32.268       14.137       22.472       27.751       22.535      504.983      770.123      507.828        0.154        0.089       33.002       13.792        0.175      349.581       30.115      861.069
07/11/2014  15:22:00       12.509       67.713       23.486       26.261       48.277       37.424      689.636     2330.702     1400.559        0.486        0.221       68.859       27.508        0.160      349.602       30.150      861.071
07/11/2014  15:23:00        1.908       40.283       19.208       36.729       39.977       28.530     1349.011     1598.183      813.952        0.288        0.188       40.328       14.773        0.134      349.722       30.360      861.070
07/11/2014  15:24:00      -49.913      -57.216        3.050      144.842       85.845       36.407    20979.213     7369.279     1325.435        1.772        1.484       75.928       37.205        0.240      349.774       30.447      861.083
07/11/2014  15:25:00     -245.427     -180.396       -4.919      119.970       86.694       56.734    14392.733     7515.924     3218.795        5.896        1.256      304.594       56.623        0.035      349.342       29.696      861.076
07/11/2014  15:26:00     -133.077     -191.474       -4.583       97.191      100.716       60.834     9445.999    10143.778     3700.776        3.884        1.165      233.178       29.760        0.016      349.343       29.696      861.059
07/11/2014  15:27:00     -137.321     -121.619       30.253      163.009      157.585       89.681    26572.069    24833.014     8042.618        4.699        2.972      183.434       84.017        0.210      349.611       30.163      861.027
07/11/2014  15:28:00     -151.892      162.582      -23.475      109.628       88.470       57.811    12018.261     7827.023     3342.119        3.662        1.159      222.495       64.194        0.083      349.475       29.925      861.100
07/11/2014  15:29:00     -200.691       26.917      -19.514       79.184       99.187       41.585     6270.086     9838.158     1729.309        2.961        0.892      202.488       32.165        0.025      349.379       29.759      861.138
07/11/2014  15:30:00     -175.219        2.077       -7.703       57.607       43.505       36.058     3318.564     1892.717     1300.186        1.864        0.326      175.232       30.054        0.029      349.281       29.592      861.146
07/11/2014  15:31:00     -223.351      113.375      -25.605      131.050       78.469       45.888    17174.153     6157.414     2105.722        4.441        1.272      250.478       44.860        0.032      349.281       29.591      861.138
07/11/2014  15:32:00     -325.466       -1.765      -32.657      111.465       84.094       43.361    12424.372     7071.736     1880.147        6.418        1.069      325.471       43.144        0.018      349.221       29.486      861.124
07/11/2014  15:33:00     -222.797      -73.222       -6.127       91.445       65.776       40.901     8362.247     4326.471     1672.925        3.470        0.718      234.520       44.138        0.035      349.326       29.667      861.132
07/11/2014  15:34:00     -300.658     -141.270       -3.633      105.839       79.574       52.258    11201.999     6332.088     2730.894        6.531        1.013      332.194       51.786        0.024      349.340       29.693      861.135
07/11/2014  15:35:00     -265.260      -78.503       -4.164      135.070      108.276       56.519    18243.896    11723.641     3194.386        5.485        1.658      276.633       55.547        0.040      349.430       29.849      861.143
07/11/2014  15:36:00     -173.670      115.632      -39.944       65.179       94.699       41.630     4248.295     8967.986     1733.039        3.004        0.747      208.643       29.430        0.020      349.310       29.641      861.179
07/11/2014  15:37:00     -159.875      115.770      -13.493       76.824       83.429       53.612     5901.896     6960.422     2874.210        2.744        0.787      197.390       44.845        0.052      349.353       29.716      861.171
07/11/2014  15:38:00     -143.124      -59.679       -6.691      126.191       40.282       33.264    15924.222     1622.619     1106.502        2.137        0.933      155.068       52.317        0.114      349.354       29.716      861.173
07/11/2014  15:39:00     -138.554      -43.898       -1.900       99.749       73.316       39.797     9949.904     5375.280     1583.765        1.902        0.845      145.342       47.988        0.109      349.320       29.660      861.174
07/11/2014  15:40:00      -34.214      -34.641        3.195       47.058       52.483       30.474     2214.426     2754.445      928.642        0.414        0.295       48.689       20.344        0.175      349.440       29.868      861.171
07/11/2014  15:41:00      -56.418        5.838      -15.123       40.029       22.567       20.182     1602.308      509.266      407.312        0.298        0.126       56.720       15.866        0.078      349.160       29.385      861.166
07/11/2014  15:42:00      -66.329       79.564      -18.311       45.421       41.122       24.882     2063.080     1691.043      619.115        0.772        0.219      103.585       25.141        0.059      349.277       29.588      861.156
07/11/2014  15:43:00      -10.563       22.884       10.067       38.323       34.600       22.502     1468.617     1197.172      506.353        0.195        0.159       25.204       13.081        0.269      349.498       29.969      861.155
07/11/2014  15:44:00      -13.170       21.824       23.327       28.188       20.426       19.899      794.536      417.207      395.950        0.140        0.080       25.490       13.097        0.264      349.543       30.047      861.156
07/11/2014  15:45:00      -26.426     -109.758        1.978       48.491       54.666       30.068     2351.403     2988.414      904.072        0.950        0.312      112.894       18.580        0.027      349.354       29.721      861.152
07/11/2014  15:46:00      -58.012     -113.492        3.302       55.721       51.747       28.541     3104.863     2677.802      814.615        1.143        0.330      127.459       28.913        0.051      349.342       29.700      861.142
07/11/2014  15:47:00      -92.203      -69.076       -4.781       35.692       37.473       24.981     1273.920     1404.246      624.051        0.830        0.165      115.208       16.033        0.019      349.375       29.757      861.126
07/11/2014  15:48:00      -70.829      -16.617        1.676       41.275       39.042       20.773     1703.619     1524.278      431.537        0.448        0.183       72.752       23.351        0.103      349.470       29.920      861.124
07/11/2014  15:49:00      -85.987       -5.667       -0.762       39.877       33.366       26.320     1590.199     1113.272      692.728        0.541        0.170       86.174       27.173        0.099      349.567       30.090      861.121
07/11/2014  15:50:00     -121.740      -60.293       -2.905       58.493       28.747       26.495     3421.480      826.406      701.976        1.171        0.247      135.852       31.113        0.052      349.410       29.816      861.111
07/11/2014  15:51:00      -66.397      -12.941        4.965       56.185       43.403       30.708     3156.766     1883.793      942.967        0.529        0.299       67.647       36.853        0.297      349.658       30.247      861.095
07/11/2014  15:52:00      -78.435      -51.440       -7.036       27.851       26.806       14.938      775.682      718.544      223.149        0.528        0.086       93.799       11.454        0.015      349.294       29.616      861.094
07/11/2014  15:53:00     -147.483      -81.655       -6.473       50.778       48.074       27.979     2578.382     2311.071      782.831        1.707        0.284      168.579       21.829        0.017      349.484       29.943      861.084
07/11/2014  15:54:00     -259.283       -7.598      -25.434       67.057       72.186       35.324     4496.587     5210.828     1247.782        3.944        0.548      259.394       29.266        0.013      349.429       29.846      861.093
07/11/2014  15:55:00     -162.289      -43.741      -12.388      119.490       75.803       43.849    14277.785     5746.043     1922.751        2.517        1.097      168.080       53.316        0.101      349.444       29.875      861.081
07/11/2014  15:56:00      -52.193       60.599       -7.716       81.236       52.238       38.038     6599.239     2728.773     1446.884        0.861        0.539       79.977       47.351        0.351      349.524       30.015      861.077
07/11/2014  15:57:00     -161.449       32.677      -25.133       72.843       49.224       40.769     5306.111     2423.000     1662.099        1.858        0.470      164.723       36.345        0.049      349.304       29.631      861.082
07/11/2014  15:58:00      -47.612       71.506       10.747       68.911       51.390       42.689     4748.717     2640.932     1822.319        0.835        0.461       85.906       31.284        0.133      349.515       30.000      861.080
07/11/2014  15:59:00     -165.198      -33.006      -28.387       39.993       52.678       39.276     1599.475     2774.986     1542.598        1.755        0.296      168.463       26.350        0.024      349.416       29.826      861.090
07/11/2014  16:00:00     -101.712       -5.133       -9.491       32.213       34.670       28.758     1037.707     1202.010      827.049        0.676        0.153      101.841       19.064        0.035      349.456       29.897      861.091
07/11/2014  16:01:00       34.437       -6.917       28.657       34.282       31.497       26.937     1175.272      992.034      725.612        0.247        0.145       35.125       26.939        0.588      349.752       30.412      861.086
07/11/2014  16:02:00       -4.343        8.322       17.831       37.702       19.456       21.244     1421.434      378.552      451.307        0.133        0.113        9.388       21.154        5.078      349.845       30.572      861.080
07/11/2014  16:03:00     -189.232      -13.730      -36.331      133.184       70.832       38.078    17738.083     5017.221     1449.914        3.076        1.210      189.729       47.957        0.064      349.378       29.760      861.079
07/11/2014  16:04:00     -145.739      -22.949      -15.184       56.222       54.884       30.282     3160.910     3012.245      917.007        1.454        0.355      147.535       14.914        0.010      349.436       29.862      861.091
07/11/2014  16:05:00     -121.871        0.537      -17.456       56.531       61.829       35.933     3195.752     3822.781     1291.209        1.173        0.415      121.872       32.169        0.070      349.561       30.078      861.107
07/11/2014  16:06:00      -83.900      -49.010        6.868       88.102       44.127       36.441     7761.958     1947.209     1327.970        1.026        0.552       97.166       42.464        0.191      349.447       29.882      861.103
07/11/2014  16:07:00        9.813      -21.866       29.895       19.373       37.641       20.409      375.321     1416.852      416.527        0.184        0.110       23.967       23.295        0.945      349.454       29.894      861.108
07/11/2014  16:08:00       12.062       63.151       14.647       31.391       32.189       32.179      985.386     1036.134     1035.505        0.370        0.153       64.292       16.921        0.069      349.418       29.832      861.118
07/11/2014  16:09:00       27.713        9.407       20.509       42.134       31.860       22.200     1775.315     1015.082      492.847        0.228        0.164       29.266       16.073        0.302      349.620       30.182      861.125
07/11/2014  16:10:00     -162.693      -31.485      -10.543       79.602      101.499       39.094     6336.446    10301.992     1528.372        2.287        0.908      165.711       39.274        0.056      349.457       29.897      861.107
07/11/2014  16:11:00     -303.250      -22.921       -3.809      115.116      115.201       59.131    13251.620    13271.333     3496.423        6.125        1.501      304.115       64.296        0.045      349.436       29.859      861.109
07/11/2014  16:12:00     -315.137      -88.635        0.588       97.873       75.633       46.637     9579.063     5720.387     2175.044        6.232        0.874      327.365       46.248        0.020      349.312       29.645      861.107
07/11/2014  16:13:00     -284.547      -64.390      -14.995       95.818       81.441       54.815     9181.013     6632.691     3004.671        5.207        0.941      291.741       50.478        0.030      349.341       29.694      861.097
07/11/2014  16:14:00     -280.902      -62.793       -4.121       84.878       66.213       37.022     7204.308     4384.219     1370.609        4.791        0.648      287.834       35.741        0.015      349.330       29.675      861.094
07/11/2014  16:15:00     -130.510      -53.040       -1.649       89.004       52.211       36.586     7921.626     2726.000     1338.503        1.592        0.599      140.876       39.886        0.080      349.449       29.884      861.090
07/11/2014  16:16:00      -84.735        9.216       -6.641      102.436       55.777       35.911    10493.150     3111.063     1289.608        1.110        0.745       85.235       41.065        0.232      349.496       29.965      861.077
07/11/2014  16:17:00     -147.827      -67.225        9.987       81.602       81.586       40.138     6658.958     6656.271     1611.056        2.070        0.746      162.395       36.225        0.050      349.482       29.940      861.057
07/11/2014  16:18:00     -207.657     -110.794        3.877       96.483       73.714       50.957     9308.911     5433.780     2596.662        3.637        0.867      235.366       51.839        0.049      349.340       29.692      861.045
07/11/2014  16:19:00     -150.219      -24.221        1.729       74.572       55.929       32.748     5561.033     3128.062     1072.417        1.646        0.488      152.159       32.239        0.045      349.329       29.674      861.045
07/11/2014  16:20:00     -107.875      -17.490       -5.681       47.742       36.712       20.099     2279.325     1347.797      403.985        0.800        0.202      109.284       18.786        0.030      349.416       29.828      861.038
07/11/2014  16:21:00     -122.924        2.307       -0.226       58.866       43.202       33.243     3465.153     1866.415     1105.065        1.077        0.322      122.946       35.401        0.083      349.525       30.016      861.034
07/11/2014  16:22:00      -97.661        1.802        5.512       66.969       53.340       34.904     4484.789     2845.140     1218.307        0.906        0.427       97.678       38.848        0.158      349.651       30.236      861.032
07/11/2014  16:23:00        4.589       33.625       30.990       31.465       29.377       19.130      990.038      863.022      365.951        0.217        0.111       33.936       13.412        0.156      349.918       30.699      861.036
07/11/2014  16:24:00       23.396       29.531       28.398       31.441       28.207       27.501      988.510      795.630      756.291        0.238        0.127       37.676       21.663        0.331      349.541       30.045      861.040
07/11/2014  16:25:00       40.425       54.030       51.340       77.009       53.910       41.209     5930.434     2906.253     1698.204        0.886        0.527       67.479       30.190        0.200      349.655       30.241      861.045
07/11/2014  16:26:00      145.027      106.145       31.196       60.743       39.680       41.379     3689.742     1574.492     1712.201        2.012        0.349      179.720       17.648        0.010      349.518       30.002      861.060
07/11/2014  16:27:00      208.724      124.836       50.140      121.790       71.979       65.937    14832.842     5181.034     4347.718        4.301        1.218      243.208       45.542        0.035      349.347       29.705      861.064
07/11/2014  16:28:00      208.245      112.129       18.778      134.909      101.687       74.571    18200.396    10340.195     5560.819        4.519        1.705      236.514       63.954        0.073      349.164       29.388      861.086
07/11/2014  16:29:00      251.632      141.092       62.264      127.108       96.388      100.325    16156.413     9290.587    10065.015        6.130        1.776      288.488       59.860        0.043      348.913       28.951      861.076
07/11/2014  16:30:00      361.208      199.587       40.151      149.651      141.519       85.132    22395.528    20027.721     7247.460       11.078        2.484      412.681       43.480        0.011      348.811       28.776      861.085
07/11/2014  16:31:00      195.664      152.579      107.473      213.021      148.811      143.614    45378.115    22144.599    20625.057        8.061        4.407      248.122      120.264        0.235      348.576       28.370      861.074
07/11/2014  16:32:00       78.659       92.927       -2.448       91.140       94.078       60.234     8306.483     8850.758     3628.112        1.780        1.039      121.748       51.471        0.179      348.884       28.906      861.154
07/11/2014  16:33:00      109.135      143.164        4.251      104.636      113.414       74.277    10948.671    12862.660     5517.053        3.087        1.466      180.018       56.258        0.098      348.644       28.489      861.166
07/11/2014  16:34:00      201.242      160.498       18.823      142.987      104.074       75.171    20445.254    10831.328     5650.630        5.176        1.846      257.406       60.730        0.056      348.579       28.375      861.194
07/11/2014  16:35:00      205.682      156.406       34.832      154.387      115.558       77.801    23835.281    13353.570     6052.929        5.560        2.162      258.394       33.764        0.017      348.434       28.123      861.210
07/11/2014  16:36:00       87.343      146.501        5.291       75.750      106.088       68.979     5738.068    11254.731     4758.129        2.543        1.088      170.562       58.816        0.119      348.550       28.327      861.225
07/11/2014  16:37:00      206.910      123.314       10.316      151.906       79.880       67.596    23075.528     6380.828     4569.220        4.607        1.701      240.869       46.407        0.037      348.567       28.355      861.250
07/11/2014  16:38:00      154.070      204.369       19.310      133.598      143.374       96.784    17848.432    20556.075     9367.200        5.681        2.389      255.938       86.549        0.114      348.282       27.860      861.262
07/11/2014  16:39:00      191.923      129.703       26.093      148.041      108.515       88.520    21916.244    11775.518     7835.735        4.792        2.076      231.641       57.596        0.062      348.177       27.680      861.259
07/11/2014  16:40:00      160.086      104.809       18.529      124.971       88.988       52.143    15617.863     7918.917     2718.867        3.160        1.313      191.344       27.568        0.021      348.241       27.793      861.247
07/11/2014  16:41:00      105.275      121.287        3.830       90.985       77.547       44.023     8278.261     6013.514     1938.013        2.102        0.811      160.603       36.511        0.052      348.244       27.796      861.241
07/11/2014  16:42:00      103.250      249.904      -23.940      106.104      107.006       76.426    11258.012    11450.355     5840.976        5.111        1.427      270.393       68.210        0.064      348.182       27.687      861.231
07/11/2014  16:43:00       93.816      226.987      -12.865      115.608      167.279       93.302    13365.224    27982.356     8705.235        5.526        2.503      245.611      101.506        0.171      348.224       27.760      861.207
07/11/2014  16:44:00      188.574      231.882        2.269      179.039      161.302       92.853    32054.843    26018.212     8621.614        7.800        3.335      298.881       90.645        0.092      348.153       27.639      861.192
07/11/2014  16:45:00      211.291      229.426       -5.158      145.781      134.252       98.248    21252.136    18023.470     9652.661        7.311        2.446      311.897       83.688        0.072      348.155       27.641      861.188
07/11/2014  16:46:00      114.694      127.035       20.561       88.671       86.223       64.556     7862.561     7434.358     4167.522        2.459        0.973      171.151       50.195        0.086      348.278       27.858      861.193
07/11/2014  16:47:00       94.252      266.473      -21.735       92.663      150.076       75.696     8586.368    22522.839     5729.848        5.859        1.842      282.651       82.326        0.085      348.214       27.743      861.210
07/11/2014  16:48:00       44.906      176.010       14.876       76.658      113.027       70.304     5876.394    12775.004     4942.620        2.840        1.180      181.649       70.622        0.151      348.311       27.911      861.221
07/11/2014  16:49:00       59.518      104.838        6.838       73.998       78.016       45.414     5475.633     6086.537     2062.391        1.410        0.681      120.555       42.017        0.121      348.429       28.117      861.218
07/11/2014  16:50:00       50.867      154.012        0.401       79.779      103.720       65.290     6364.647    10757.856     4262.744        2.384        1.069      162.194       63.946        0.155      348.485       28.213      861.212
07/11/2014  16:51:00       93.185      191.025      -12.570       98.779      119.502       68.655     9757.372    14280.744     4713.498        3.704        1.438      212.542       69.490        0.107      348.510       28.257      861.202
07/11/2014  16:52:00      110.552       92.927        4.921       77.905       81.069       51.263     6069.263     6572.151     2627.890        1.807        0.763      144.420       56.005        0.150      348.674       28.540      861.200
07/11/2014  16:53:00      152.489      159.670        7.105      116.797      121.696       84.566    13641.516    14809.861     7151.477        4.219        1.780      220.788       78.943        0.128      348.601       28.413      861.208
07/11/2014  16:54:00       69.388      220.980      -16.395       85.026      103.904       67.475     7229.437    10796.038     4552.850        3.824        1.129      231.618       61.525        0.071      348.669       28.532      861.200
07/11/2014  16:55:00      178.792      170.938        7.438      149.045      112.245       83.283    22214.507    12598.913     6936.059        5.149        2.087      247.359       62.483        0.064      348.710       28.602      861.168
07/11/2014  16:56:00      121.705      195.266       -6.698      135.268      126.909       67.298    18297.422    16105.906     4528.956        4.595        1.947      230.089       56.916        0.061      348.712       28.606      861.157
07/11/2014  16:57:00      244.252      176.549       16.176      168.069      112.934       76.778    28247.074    12754.000     5894.797        6.898        2.345      301.378       53.896        0.032      348.582       28.381      861.142
07/11/2014  16:58:00       74.558      139.389       -3.817       74.607      114.004       66.622     5566.274    12996.853     4438.483        2.400        1.150      158.076       61.387        0.151      348.706       28.596      861.150
07/11/2014  16:59:00      147.149      183.567        0.865      128.845       96.256       70.038    16601.082     9265.255     4905.283        4.305        1.539      235.265       56.495        0.058      348.624       28.452      861.129
07/11/2014  17:00:00      340.601      222.941       48.513      132.738      102.748       97.108    17619.487    10557.074     9429.969       10.283        1.880      407.077       58.821        0.021      348.531       28.291      861.110
07/11/2014  17:01:00      267.322      197.679       22.619      110.271       88.502       66.512    12159.630     7832.552     4423.824        6.773        1.221      332.472       38.174        0.013      348.504       28.246      861.117
07/11/2014  17:02:00      110.718      147.888        3.409      103.019       92.804       57.180    10612.904     8612.490     3269.559        2.831        1.125      184.741       45.819        0.062      348.645       28.488      861.124
07/11/2014  17:03:00      128.865      141.874        3.437       97.671       93.795       68.199     9539.637     8797.430     4651.049        2.986        1.149      191.663       48.664        0.064      348.677       28.545      861.127
07/11/2014  17:04:00      214.737      167.410       19.430      128.937      101.438       76.186    16624.748    10289.753     5804.347        5.361        1.636      272.283       50.991        0.035      348.572       28.364      861.127
07/11/2014  17:05:00      102.734      143.654       20.221      133.909       86.653       65.320    17931.488     7508.756     4266.669        3.065        1.485      176.609       57.969        0.108      348.654       28.506      861.121
07/11/2014  17:06:00       92.348       71.238       21.755       84.332       79.949       44.862     7111.807     6391.771     2012.566        1.479        0.776      116.632       24.050        0.043      348.716       28.613      861.105
07/11/2014  17:07:00      166.988      134.034       27.526      135.016      103.002       69.950    18229.365    10609.438     4892.986        4.016        1.687      214.126       45.304        0.045      348.725       28.627      861.117
07/11/2014  17:08:00      162.362      106.292       29.695      158.177      115.184       67.769    25020.016    13267.266     4592.641        4.070        2.144      194.061       33.979        0.031      348.731       28.637      861.114
07/11/2014  17:09:00      243.665      168.844       13.790      163.585      115.852       81.008    26760.088    13421.592     6562.354        6.740        2.337      296.447       47.601        0.026      348.690       28.568      861.107
07/11/2014  17:10:00      270.127      212.472       45.665      116.685       88.316       93.543    13615.490     7799.712     8750.213        7.518        1.508      343.676       36.612        0.011      348.633       28.468      861.126
07/11/2014  17:11:00      209.557      132.482       72.568      147.511       96.783       93.837    21759.579     9367.037     8805.470        5.332        1.997      247.923       72.443        0.085      348.560       28.342      861.128
07/11/2014  17:12:00      141.546      109.261       -2.242       90.792       80.336       62.537     8243.168     6453.861     3910.856        2.529        0.930      178.811       25.553        0.020      348.585       28.384      861.150
07/11/2014  17:13:00      106.116      129.848       13.912      102.100      104.343       66.196    10424.457    10887.509     4381.961        2.700        1.285      167.694       49.512        0.087      348.621       28.449      861.186
07/11/2014  17:14:00      147.733      118.479       22.118      112.418       87.599       58.961    12637.855     7673.571     3476.404        3.006        1.189      189.373       45.782        0.058      348.511       28.258      861.191
07/11/2014  17:15:00      201.576      130.484       25.338      105.378       80.127       64.918    11104.583     6420.330     4214.341        4.002        1.087      240.123       42.571        0.031      348.414       28.089      861.185
07/11/2014  17:16:00      123.973      146.841       10.465      100.872      111.276       71.973    10175.210    12382.440     5180.084        3.238        1.387      192.176       64.602        0.113      348.343       27.966      861.205
07/11/2014  17:17:00      147.380      175.186       11.591      122.038      100.952       71.702    14893.261    10191.348     5141.182        4.138        1.511      228.934       52.766        0.053      348.355       27.987      861.203
07/11/2014  17:18:00      135.039      119.193       26.052      131.107       92.038       71.272    17189.064     8471.064     5079.707        3.192        1.537      180.118       58.902        0.107      348.352       27.982      861.202
07/11/2014  17:19:00      154.144       92.105       33.498      117.342       66.086       54.676    13769.136     4367.388     2989.503        2.724        1.056      179.565        9.300        0.003      348.364       28.003      861.197
07/11/2014  17:20:00      177.365      112.648       15.645      100.939       63.846       57.110    10188.694     4076.346     3261.527        3.096        0.876      210.114       32.192        0.023      348.375       28.023      861.196
07/11/2014  17:21:00      144.580       84.678       16.266      119.455       98.539       54.027    14269.459     9709.959     2918.961        2.761        1.345      167.552       47.988        0.082      348.390       28.050      861.199
07/11/2014  17:22:00      189.124      145.805       22.110      122.386       93.758       67.788    14978.239     8790.477     4595.167        4.293        1.418      238.804       44.503        0.035      348.337       27.956      861.198
07/11/2014  17:23:00      226.312      160.359       29.406      145.482       91.240       73.425    21165.127     8324.663     5391.269        5.633        1.744      277.366       50.354        0.033      348.308       27.905      861.193
07/11/2014  17:24:00      154.703      104.221       16.039       74.074       62.938       57.648     5486.907     3961.168     3323.309        2.391        0.639      186.534       40.346        0.047      348.370       28.016      861.204
07/11/2014  17:25:00      134.767       93.592       26.525      113.770       83.281       46.069    12943.657     6935.643     2122.352        2.481        1.100      164.079       33.481        0.042      348.429       28.116      861.215
07/11/2014  17:26:00      324.541      212.060       37.721      147.016      101.558       86.717    21613.781    10314.060     7519.921        9.558        1.972      387.680       43.856        0.013      348.270       27.839      861.200
07/11/2014  17:27:00      255.543      135.043       52.502      140.950       96.099       75.978    19867.033     9235.037     5772.663        6.058        1.744      289.031       34.197        0.014      348.263       27.828      861.203
07/11/2014  17:28:00      251.481      170.138       36.401      136.277       98.876       79.409    18571.355     9776.469     6305.826        6.408        1.733      303.628       44.934        0.022      348.209       27.735      861.207
07/11/2014  17:29:00      135.241      161.121        2.413      105.616       99.613       73.187    11154.681     9922.736     5356.324        3.534        1.322      210.357       52.481        0.062      348.201       27.721      861.232
07/11/2014  17:30:00       69.382      194.091       -9.984       83.966      108.159       70.894     7050.219    11698.407     5025.899        3.317        1.189      206.119       66.199        0.103      348.181       27.687      861.215
07/11/2014  17:31:00      136.152      142.949        3.231       94.070       97.941       61.991     8849.072     9592.399     3842.844        3.063        1.114      197.412       53.182        0.073      348.167       27.664      861.224
07/11/2014  17:32:00      203.759      173.612       28.272      127.891       90.218       83.138    16356.129     8139.325     6911.891        5.193        1.570      267.692       49.015        0.034      348.191       27.705      861.207
07/11/2014  17:33:00      167.549      113.093        7.847       99.966       77.259       64.706     9993.190     5968.931     4186.831        3.053        1.007      202.145       50.591        0.063      348.282       27.862      861.198
07/11/2014  17:34:00       90.553       77.521       20.144      100.111       72.925       49.648    10022.154     5318.092     2464.959        1.621        0.890      119.203       41.936        0.124      348.349       27.978      861.213
07/11/2014  17:35:00       85.572      128.722       -4.484       67.900       83.875       45.849     4610.459     7035.008     2102.166        1.883        0.687      154.570       41.007        0.070      348.404       28.074      861.202
07/11/2014  17:36:00      156.809      115.868       12.541       93.217       71.713       68.389     8689.356     5142.698     4677.122        2.834        0.925      194.973       36.687        0.035      348.407       28.078      861.208
07/11/2014  17:37:00      139.306      122.987       28.912       90.953       66.920       64.603     8272.508     4478.322     4173.504        2.614        0.846      185.828       46.690        0.063      348.435       28.126      861.204
07/11/2014  17:38:00      132.965      131.838       14.767      135.543       88.327       66.811    18371.943     7801.677     4463.727        3.295        1.532      187.246       52.756        0.079      348.369       28.012      861.203
07/11/2014  17:39:00      114.263      127.747        3.828      103.865       72.834       63.380    10788.005     5304.735     4016.961        2.475        1.005      171.393       40.755        0.057      348.397       28.062      861.211
07/11/2014  17:40:00       59.019      120.387        5.716       69.607      111.165       65.474     4845.176    12357.597     4286.811        1.974        1.074      134.075       67.533        0.254      348.491       28.226      861.217
07/11/2014  17:41:00       97.855      245.897       -4.796      106.812      135.229       95.658    11408.831    18286.860     9150.548        5.445        1.942      264.653       84.401        0.102      348.351       27.980      861.206
07/11/2014  17:42:00      115.718      185.390       -2.779      106.285      121.132       71.031    11296.496    14672.966     5045.335        3.939        1.551      218.541       68.644        0.099      348.302       27.896      861.203
07/11/2014  17:43:00      181.735      141.137       27.483      159.019      114.496       84.673    25287.059    13109.370     7169.483        4.963        2.278      230.103       58.813        0.065      348.371       28.015      861.192
07/11/2014  17:44:00      204.341      157.141       20.035      137.971      111.089       77.674    19035.976    12340.835     6033.176        5.212        1.870      257.777       60.950        0.056      348.347       27.972      861.185
07/11/2014  17:45:00       76.562      126.574        5.960       87.103       96.091       61.488     7586.870     9233.502     3780.716        2.126        1.030      147.928       56.162        0.144      348.378       28.030      861.218
07/11/2014  17:46:00      135.337      202.817        3.044      153.342       88.290       79.180    23513.837     7795.136     6269.393        4.851        1.879      243.826       51.223        0.044      348.306       27.903      861.226
07/11/2014  17:47:00      109.301      223.950       -9.385      109.931      137.770       75.331    12084.785    18980.668     5674.739        4.946        1.837      249.199       75.059        0.091      348.291       27.877      861.224
07/11/2014  17:48:00      206.392      146.996       30.942      144.366       88.877       69.001    20841.534     7899.082     4761.070        4.933        1.675      253.388       46.046        0.033      348.398       28.061      861.214
07/11/2014  17:49:00      153.255      128.700        1.597      130.790       79.127       52.059    17105.972     6261.056     2710.152        3.306        1.304      200.127       18.712        0.009      348.528       28.287      861.221
07/11/2014  17:50:00       69.041      121.900       22.401      109.488      129.553       71.793    11987.710    16783.923     5154.188        2.702        1.696      140.093       72.401        0.267      348.628       28.461      861.231
07/11/2014  17:51:00       91.442      232.952      -28.055       83.210      146.473       77.291     6923.924    21454.322     5973.974        4.888        1.718      250.257       89.953        0.129      348.487       28.215      861.238
07/11/2014  17:52:00       63.883      173.186      -11.123       85.061      113.164       60.589     7235.298    12806.086     3671.086        2.895        1.186      184.593       63.747        0.119      348.554       28.331      861.229
07/11/2014  17:53:00       71.035      123.795       -6.963       78.512      113.193       55.400     6164.152    12812.602     3069.108        2.123        1.102      142.728       56.430        0.156      348.591       28.397      861.219
07/11/2014  17:54:00      184.723      202.097        6.617      110.438       99.778       78.511    12196.539     9955.658     6164.005        5.166        1.416      273.799       59.200        0.047      348.482       28.206      861.218
07/11/2014  17:55:00      102.753      223.430       -6.087      129.514      124.663       94.043    16773.862    15540.758     8844.158        5.083        2.058      245.925       80.566        0.107      348.531       28.291      861.212
07/11/2014  17:56:00       24.957      282.476      -31.138       88.426      119.007       66.078     7819.215    14162.735     4366.309        5.386        1.317      283.577       62.473        0.049      348.621       28.446      861.234
07/11/2014  17:57:00       -8.195      351.124      -43.936       98.856      105.411       52.504     9772.564    11111.535     2756.696        7.446        1.182      351.220       46.536        0.018      348.602       28.414      861.227
07/11/2014  17:58:00        4.548      232.477      -25.916       64.290      103.596       56.880     4133.232    10732.067     3235.376        3.642        0.905      232.522       56.994        0.060      348.686       28.558      861.224
07/11/2014  17:59:00       82.651      167.323       -6.922       90.236       86.123       64.524     8142.607     7417.137     4163.304        2.730        0.986      186.623       52.367        0.079      348.747       28.666      861.223
07/11/2014  18:00:00       99.518      207.478       17.000      118.494      133.578       86.240    14040.819    17843.006     7437.319        4.627        1.966      230.111       88.629        0.148      348.758       28.684      861.223
07/11/2014  18:01:00      100.702      204.041        6.464      118.408      152.524       81.190    14020.548    23263.654     6591.852        4.784        2.194      227.538       82.668        0.132      348.736       28.648      861.229
07/11/2014  18:02:00      102.216      197.306       -4.744       99.892      131.831       68.309     9978.502    17379.281     4666.116        4.071        1.601      222.211       76.090        0.117      348.790       28.740      861.241
07/11/2014  18:03:00       84.726      179.695      -10.039       94.668      110.585       72.204     8962.048    12228.941     5213.411        3.298        1.320      198.668       66.324        0.111      348.806       28.767      861.248
07/11/2014  18:04:00       60.189      293.275      -37.519       76.033      102.572       62.567     5781.043    10520.981     3914.578        5.562        1.011      299.388       64.718        0.047      348.835       28.818      861.255
07/11/2014  18:05:00       21.657      198.860      -28.711       54.388       94.204       45.765     2958.010     8874.313     2094.410        2.738        0.696      200.036       51.116        0.065      348.999       29.102      861.258
07/11/2014  18:06:00       16.004      224.425      -15.184      120.952      121.804       63.452    14629.403    14836.312     4026.183        4.217        1.675      224.995       67.804        0.091      349.088       29.255      861.257
07/11/2014  18:07:00       91.373      273.424      -27.320      118.303      127.499       80.918    13995.692    16256.002     6547.796        6.032        1.840      288.288       65.347        0.051      348.959       29.032      861.265
07/11/2014  18:08:00       -5.172      331.470      -45.368       97.010       91.544       52.187     9410.952     8380.295     2723.516        6.623        1.026      331.510       53.763        0.026      348.937       28.995      861.260
07/11/2014  18:09:00      -45.216      288.652      -22.115       93.864       99.361       54.792     8810.392     9872.616     3002.188        5.377        1.084      292.172       52.884        0.033      348.954       29.023      861.266
07/11/2014  18:10:00       35.595      297.002      -41.743      105.072      114.749       59.733    11040.225    13167.329     3568.035        5.949        1.389      299.128       60.396        0.041      348.924       28.973      861.265
07/11/2014  18:11:00       86.674      139.846       15.465      108.178       97.929       76.311    11702.397     9590.163     5823.310        2.721        1.356      164.528       53.057        0.104      348.941       29.004      861.253
07/11/2014  18:12:00      131.208      179.263        7.036      150.107      130.753       76.905    22532.010    17096.314     5914.448        4.746        2.277      222.150       76.682        0.119      348.946       29.012      861.250
07/11/2014  18:13:00       69.629      201.619        3.609       82.905      135.957       63.738     6873.211    18484.350     4062.569        3.746        1.471      213.304       74.785        0.123      348.937       28.995      861.254
07/11/2014  18:14:00      158.881      149.064       16.194      117.897      128.139       75.297    13899.687    16419.584     5669.697        4.185        1.799      217.861       66.248        0.092      348.920       28.965      861.239
07/11/2014  18:15:00      122.404       98.489       13.845       98.692       80.474       54.021     9740.033     6476.080     2918.316        2.200        0.957      157.108       39.018        0.062      348.929       28.982      861.223
07/11/2014  18:16:00       90.012      170.206      -12.302      108.613       82.266       62.124    11796.736     6767.628     3859.395        2.982        1.121      192.541       52.089        0.073      348.974       29.059      861.215
07/11/2014  18:17:00       77.008      111.794        7.544       86.019       67.249       50.677     7399.345     4522.446     2568.195        1.648        0.724      135.751       42.659        0.099      349.054       29.198      861.209
07/11/2014  18:18:00       83.221      135.328        0.464       82.750       92.097       53.819     6847.514     8481.946     2896.478        2.173        0.911      158.869       52.715        0.110      349.038       29.169      861.212
07/11/2014  18:19:00       35.716      150.935      -15.591       72.696      101.437       43.551     5284.664    10289.518     1896.661        2.088        0.874      155.103       47.940        0.096      349.116       29.305      861.227
07/11/2014  18:20:00       74.230      130.483       -8.510       56.417       74.506       44.372     3182.923     5551.153     1968.902        1.665        0.535      150.120       38.284        0.065      349.073       29.232      861.237
07/11/2014  18:21:00       66.651      201.165      -29.035       49.692       65.584       42.350     2469.268     4301.243     1793.546        2.716        0.428      211.919       32.876        0.024      348.939       28.998      861.239
07/11/2014  18:22:00       13.565      181.427      -21.860       46.875       67.791       38.683     2197.234     4595.661     1496.390        2.093        0.414      181.933       37.902        0.043      348.991       29.089      861.225
07/11/2014  18:23:00        8.007       90.846      -12.729       47.232       38.266       27.271     2230.835     1464.272      743.734        0.646        0.222       91.198       23.739        0.068      349.093       29.269      861.230
07/11/2014  18:24:00       90.855       64.654       18.628       61.365       52.717       35.229     3765.643     2779.127     1241.104        1.028        0.389      111.512       25.385        0.052      348.976       29.064      861.231
07/11/2014  18:25:00      130.167       98.541        9.845       65.473       57.508       48.184     4286.751     3307.126     2321.657        1.833        0.496      163.260       34.534        0.045      348.909       28.946      861.244
07/11/2014  18:26:00      134.325      138.099        6.550       95.737       80.494       51.992     9165.565     6479.232     2703.179        2.775        0.917      192.652       41.345        0.046      348.937       28.997      861.263
07/11/2014  18:27:00      162.145       98.654       14.981       95.590       48.082       48.756     9137.397     2311.878     2377.139        2.503        0.691      189.799       24.033        0.016      348.929       28.981      861.286
07/11/2014  18:28:00       86.453       60.580       24.645       55.973       49.372       48.172     3132.963     2437.625     2320.506        0.982        0.395      105.566       16.216        0.024      348.980       29.071      861.315
07/11/2014  18:29:00      121.416       88.785       17.625       64.098       48.638       38.474     4108.505     2365.663     1480.285        1.544        0.398      150.415       26.247        0.030      348.966       29.045      861.329
07/11/2014  18:30:00       45.562      152.980      -26.702       77.130      131.624       47.520     5949.102    17324.837     2258.116        2.586        1.277      159.621       54.832        0.118      348.897       28.927      861.343
07/11/2014  18:31:00       17.201      206.665      -26.924       55.613      122.587       55.206     3092.813    15027.659     3047.716        3.245        1.058      207.380       62.521        0.091      348.935       28.994      861.335
07/11/2014  18:32:00       83.054       94.187       12.644      104.350       62.931       54.785    10888.907     3960.265     3001.363        1.689        0.893      125.575       40.685        0.105      348.983       29.075      861.340
07/11/2014  18:33:00       36.665      221.843      -31.064       86.905      114.006       53.093     7552.443    12997.295     2818.849        3.744        1.168      224.852       64.820        0.083      348.942       29.004      861.350
07/11/2014  18:34:00      -22.040      304.493      -45.226       79.293       67.963       35.065     6287.351     4618.948     1229.544        5.369        0.607      305.289       37.818        0.015      348.857       28.852      861.360
07/11/2014  18:35:00       45.324      251.399      -38.344       60.298      113.117       60.517     3635.851    12795.372     3662.353        4.341        1.005      255.452       66.552        0.068      348.894       28.920      861.358
07/11/2014  18:36:00        3.807      212.297      -20.914       62.394       85.369       40.791     3893.049     7287.806     1663.898        2.918        0.642      212.331       43.983        0.043      348.869       28.876      861.364
07/11/2014  18:37:00       -7.118      222.281      -29.640       51.563       45.093       36.702     2658.698     2033.378     1347.050        2.819        0.302      222.395       29.956        0.018      348.903       28.936      861.365
07/11/2014  18:38:00      -21.330      214.242      -27.506       71.338       63.179       34.713     5089.105     3991.588     1204.977        2.870        0.514      215.302       35.346        0.027      348.928       28.978      861.374
07/11/2014  18:39:00       46.582      210.147      -21.349       67.556       93.206       46.753     4563.777     8687.282     2185.862        3.111        0.772      215.248       58.593        0.074      348.915       28.954      861.397
07/11/2014  18:40:00      127.020      153.096       -1.065       99.811      121.545       71.216     9962.252    14773.159     5071.701        3.468        1.490      198.928       66.256        0.111      348.957       29.030      861.400
07/11/2014  18:41:00      -13.206      211.753      -34.260       57.772       95.308       38.862     3337.564     9083.704     1510.225        3.006        0.697      212.164       48.978        0.053      348.965       29.044      861.424
07/11/2014  18:42:00      -11.029      141.848      -12.795       42.526       56.656       34.568     1808.462     3209.867     1194.946        1.331        0.311      142.276       32.782        0.053      349.012       29.128      861.439
07/11/2014  18:43:00      -98.604      213.783      -28.280       60.773       81.870       44.225     3693.332     6702.761     1955.889        3.429        0.618      235.427       43.203        0.034      349.002       29.108      861.440
07/11/2014  18:44:00      -89.807      202.319      -19.937       70.222       80.267       45.365     4931.088     6442.801     2058.026        3.141        0.672      221.355       41.563        0.035      349.005       29.112      861.441
07/11/2014  18:45:00     -133.811      296.612      -44.671       69.243       90.231       42.259     4794.621     8141.669     1785.783        6.130        0.736      325.399       26.831        0.007      348.881       28.895      861.446
07/11/2014  18:46:00      -78.527      183.447      -18.245       68.377       72.020       43.899     4675.403     5186.825     1927.098        2.597        0.589      199.548       40.726        0.042      348.965       29.043      861.437
07/11/2014  18:47:00      -66.679      233.782      -28.104       70.012      112.487       45.109     4901.710    12653.339     2034.819        3.974        0.979      243.105       46.525        0.037      348.928       28.979      861.445
07/11/2014  18:48:00      -99.379      181.463      -15.915       71.888      109.722       52.687     5167.863    12038.822     2775.910        3.152        0.999      206.894       59.857        0.084      348.933       28.986      861.446
07/11/2014  18:49:00      -83.386      185.498      -27.553       53.819       51.559       34.785     2896.511     2658.286     1209.971        2.444        0.338      203.379       25.603        0.016      348.948       29.013      861.449
07/11/2014  18:50:00      -55.229      241.572      -30.737       70.584       96.089       46.131     4982.169     9233.080     2128.083        3.934        0.817      247.804       46.685        0.035      348.954       29.023      861.447
07/11/2014  18:51:00        8.794      210.715      -14.190       77.843      109.238       59.864     6059.464    11932.854     3583.680        3.312        1.079      210.899       58.992        0.078      348.923       28.970      861.450
07/11/2014  18:52:00     -102.292      222.348      -34.838       89.188       95.281       41.578     7954.485     9078.502     1728.737        3.994        0.938      244.750       36.672        0.022      348.891       28.913      861.465
07/11/2014  18:53:00       13.509      257.243      -28.802       75.138       87.012       46.881     5645.764     7571.013     2197.839        4.130        0.771      257.598       43.559        0.029      348.856       28.853      861.461
07/11/2014  18:54:00      -37.368      220.172      -18.387       55.906       49.866       31.097     3125.493     2486.570      967.007        2.839        0.329      223.320       24.225        0.012      348.888       28.909      861.459
07/11/2014  18:55:00      -61.657      229.520      -27.516       68.724       94.233       41.770     4722.949     8879.945     1744.766        3.629        0.767      237.657       40.408        0.029      348.935       28.992      861.479
07/11/2014  18:56:00      -11.751      245.583      -41.817       71.221       90.512       30.891     5072.463     8192.458      954.251        3.821        0.711      245.864       15.440        0.004      348.864       28.866      861.479
07/11/2014  18:57:00      -16.286      218.327      -27.853       49.173       62.902       28.405     2418.003     3956.694      806.827        2.794        0.359      218.933       26.604        0.015      348.885       28.904      861.497
07/11/2014  18:58:00     -103.842      150.028      -18.213       73.015       90.667       40.762     5331.181     8220.577     1661.535        2.442        0.761      182.459       41.455        0.052      348.923       28.972      861.513
07/11/2014  18:59:00     -119.722      202.597      -32.002       49.961       78.547       39.372     2496.142     6169.662     1550.128        3.331        0.511      235.327       33.474        0.020      348.925       28.972      861.535
07/11/2014  19:00:00      -45.672      141.122      -20.028       67.679       81.206       32.630     4580.405     6594.336     1064.749        1.732        0.612      148.329       32.780        0.049      348.885       28.907      861.538
07/11/2014  19:01:00      -85.106      160.592      -19.819       61.538       69.274       40.477     3786.956     4798.904     1638.349        2.182        0.511      181.749       29.964        0.027      348.870       28.881      861.531
07/11/2014  19:02:00      -78.877      123.978       -6.898       69.123       84.190       33.302     4777.966     7087.885     1109.008        1.730        0.649      146.943       32.163        0.048      348.896       28.927      861.549
07/11/2014  19:03:00      -29.399      326.916      -35.429       57.994      108.555       47.791     3363.259    11784.131     2283.989        6.321        0.872      328.235       53.300        0.026      348.774       28.710      861.559
07/11/2014  19:04:00     -133.687      346.343      -52.928       69.371       92.087       47.568     4812.306     8480.034     2262.699        7.809        0.778      371.249       42.186        0.013      348.730       28.634      861.563
07/11/2014  19:05:00     -119.351      261.026      -33.390       70.615       95.489       40.218     4986.477     9118.168     1617.497        4.961        0.786      287.018       36.346        0.016      348.722       28.623      861.558
07/11/2014  19:06:00      -78.388      217.847      -23.547       52.511       67.065       41.364     2757.392     4497.661     1710.945        3.156        0.448      231.521       22.489        0.009      348.674       28.540      861.553
07/11/2014  19:07:00      -71.328      225.116      -27.187       48.473       71.545       34.794     2349.600     5118.668     1210.594        3.259        0.434      236.146       29.608        0.016      348.661       28.517      861.557
07/11/2014  19:08:00     -155.522      255.171      -32.760       94.535      138.984       53.596     8936.860    19316.567     2872.513        6.074        1.556      298.830       58.599        0.038      348.676       28.543      861.566
07/11/2014  19:09:00      -75.999      138.731      -21.958       43.906       79.883       27.387     1927.757     6381.350      750.032        1.728        0.453      158.184       18.390        0.014      348.681       28.551      861.581
07/11/2014  19:10:00     -105.124      292.635      -36.139       61.506       81.285       45.070     3782.992     6607.304     2031.275        5.520        0.621      310.944       38.891        0.016      348.673       28.538      861.593
07/11/2014  19:11:00      -51.350      283.077      -42.949       37.641       51.574       31.529     1416.809     2659.826      994.061        4.484        0.254      287.697       26.572        0.009      348.691       28.567      861.596
07/11/2014  19:12:00      -66.714      222.141      -30.482       58.069       63.074       32.208     3372.067     3978.384     1037.362        3.156        0.419      231.942       29.110        0.016      348.675       28.539      861.603
07/11/2014  19:13:00      -49.918      206.217      -24.950       48.677       53.238       25.017     2369.459     2834.293      625.828        2.573        0.291      212.173       22.851        0.012      348.684       28.558      861.599
07/11/2014  19:14:00      -26.399      227.040      -35.861       74.594       96.335       41.178     5564.226     9280.355     1695.619        3.503        0.827      228.570       45.373        0.039      348.660       28.516      861.605
07/11/2014  19:15:00      -64.566      233.781      -25.768       67.547       61.813       42.159     4562.566     3820.899     1777.347        3.482        0.508      242.533       30.421        0.016      348.660       28.516      861.623
07/11/2014  19:16:00     -114.700      242.728      -33.541       54.073       65.467       35.287     2923.868     4285.884     1245.193        4.082        0.423      268.464       34.521        0.017      348.637       28.476      861.630
07/11/2014  19:17:00      -99.535      154.996      -26.431       52.295       43.870       32.828     2734.803     1924.590     1077.663        2.018        0.287      184.204       20.988        0.013      348.646       28.493      861.639
07/11/2014  19:18:00      -64.931      183.571      -31.530       61.224       57.189       28.889     3748.391     3270.619      834.565        2.338        0.393      194.716       27.605        0.020      348.646       28.493      861.656
07/11/2014  19:19:00     -108.176      184.424      -34.149       63.075       77.304       37.070     3978.414     5975.964     1374.148        2.910        0.566      213.809       34.541        0.026      348.652       28.501      861.685
07/11/2014  19:20:00      -81.007      140.907      -18.066       41.648       79.243       32.151     1734.585     6279.381     1033.702        1.789        0.452      162.533       35.829        0.049      348.663       28.520      861.710
07/11/2014  19:21:00      -80.278      104.634      -16.173       54.022       70.439       34.505     2918.351     4961.617     1190.588        1.336        0.454      131.882       34.428        0.068      348.663       28.522      861.726
07/11/2014  19:22:00      -76.092      137.636       -4.397       46.732       69.789       32.820     2183.871     4870.523     1077.158        1.644        0.407      157.270       24.029        0.023      348.630       28.464      861.748
07/11/2014  19:23:00     -120.152       69.915      -12.171       55.780       42.871       29.436     3111.373     1837.965      866.493        1.264        0.291      139.013       27.444        0.039      348.670       28.534      861.770
07/11/2014  19:24:00      -96.571       99.537      -25.758       53.147       57.814       30.121     2824.639     3342.441      907.287        1.348        0.354      138.685       32.396        0.055      348.646       28.494      861.772
07/11/2014  19:25:00     -133.784      137.734      -32.354       56.260       63.906       41.972     3165.188     4084.014     1761.687        2.346        0.451      192.012       32.632        0.029      348.617       28.441      861.781
07/11/2014  19:26:00     -110.914      130.477      -17.084       72.064       88.685       45.133     5193.230     7864.951     2036.988        2.235        0.755      171.249       42.026        0.060      348.612       28.434      861.790
07/11/2014  19:27:00      -90.412      145.425      -12.564       52.975       71.332       39.180     2806.338     5088.277     1535.071        1.945        0.471      171.239       40.569        0.056      348.596       28.406      861.789
07/11/2014  19:28:00      -56.691       93.132       -2.797       44.717       69.658       27.367     1999.600     4852.299      748.941        0.975        0.380      109.030       26.980        0.061      348.566       28.356      861.794
07/11/2014  19:29:00     -115.041       37.076       -8.723       41.536       30.139       27.255     1725.205      908.353      742.849        0.903        0.169      120.868       19.523        0.026      348.639       28.482      861.803
07/11/2014  19:30:00      -83.178       53.797       -3.109       52.328       28.850       27.602     2738.204      832.297      761.884        0.708        0.217       99.059       27.889        0.079      348.637       28.478      861.799
07/11/2014  19:31:00      -82.194       40.812      -12.725       81.016       70.137       31.115     6563.635     4919.210      968.167        1.051        0.623       91.769       33.926        0.137      348.593       28.404      861.793
07/11/2014  19:32:00      -92.192      120.603      -14.012       48.100       60.101       38.231     2313.590     3612.077     1461.645        1.531        0.369      151.804       33.646        0.049      348.567       28.357      861.803
07/11/2014  19:33:00     -167.317      196.085      -49.523       80.234       95.930       39.901     6437.493     9202.484     1592.063        4.306        0.862      257.768       48.822        0.036      348.565       28.350      861.808
07/11/2014  19:34:00      -99.520      159.536      -15.468       49.154       76.259       49.884     2416.101     5815.371     2488.368        2.316        0.536      188.032       41.605        0.049      348.545       28.316      861.808
07/11/2014  19:35:00     -129.222      205.400      -42.045       87.458      135.091       49.598     7648.938    18249.461     2459.989        4.450        1.418      242.667       59.656        0.060      348.596       28.405      861.820
07/11/2014  19:36:00     -109.884       97.382       -9.451       60.484       90.288       39.178     3658.336     8151.971     1534.923        1.749        0.667      146.825       23.293        0.025      348.614       28.438      861.820
07/11/2014  19:37:00     -121.178       15.089       11.484       95.985       58.387       49.377     9213.028     3409.003     2438.100        1.505        0.753      122.114       56.112        0.211      348.621       28.448      861.838
07/11/2014  19:38:00     -171.378       76.478      -23.475      102.164       61.272       43.289    10437.570     3754.300     1873.937        2.591        0.803      187.668       41.211        0.048      348.616       28.440      861.880
07/11/2014  19:39:00     -136.401       42.292      -29.844       56.019       78.482       47.139     3138.179     6159.486     2222.120        1.640        0.576      142.807       39.719        0.077      348.600       28.413      861.900
07/11/2014  19:40:00     -219.196       41.669      -35.748       59.802       80.844       51.226     3576.307     6535.707     2624.137        3.190        0.637      223.122       28.421        0.016      348.593       28.397      861.922
07/11/2014  19:41:00     -187.399      -36.233      -13.087       99.484       87.116       46.051     9897.049     7589.142     2120.727        2.810        0.980      190.869       51.445        0.073      348.537       28.304      861.949
07/11/2014  19:42:00     -318.630      -30.863      -26.936      117.524       70.542       47.519    13811.812     4976.223     2258.031        6.212        1.052      320.121       53.421        0.028      348.473       28.193      861.981
07/11/2014  19:43:00     -305.731      -40.826      -31.030       97.555       65.299       54.882     9517.032     4263.996     3012.047        5.644        0.840      308.444       53.874        0.031      348.454       28.161      861.997
07/11/2014  19:44:00     -277.308      -85.531      -18.259      107.480       88.295       55.630    11551.969     7796.020     3094.749        5.349        1.122      290.199       57.582        0.039      348.478       28.201      862.005
07/11/2014  19:45:00     -282.630      -67.188      -30.188      104.768       74.734       53.056    10976.427     5585.207     2814.981        5.234        0.969      290.506       54.409        0.035      348.472       28.190      862.015
07/11/2014  19:46:00     -405.787        2.661      -33.200      109.306      141.581       61.587    11947.894    20045.101     3792.995       10.077        1.789      405.796       53.295        0.017      348.529       28.288      862.033
07/11/2014  19:47:00     -374.450      -50.474      -26.565      136.650      115.028       54.490    18673.161    13231.408     2969.128        8.916        1.744      377.837       56.001        0.022      348.551       28.325      862.048
07/11/2014  19:48:00     -291.217     -102.948      -12.667      116.329       92.072       50.948    13532.464     8477.165     2595.682        6.008        1.230      308.878       44.649        0.021      348.547       28.319      862.065
07/11/2014  19:49:00     -324.025     -100.713      -11.508      118.959       85.691       55.866    14151.172     7342.878     3120.963        6.994        1.231      339.316       54.251        0.026      348.519       28.269      862.077
07/11/2014  19:50:00     -301.266      -40.339      -15.453      149.080      103.486       51.933    22224.890    10709.333     2697.051        6.412        1.782      303.954       47.825        0.025      348.527       28.284      862.109
07/11/2014  19:51:00     -316.305     -146.611      -19.935      113.303       84.368       48.592    12837.499     7117.988     2361.230        7.212        1.116      348.631       43.566        0.016      348.530       28.289      862.115
07/11/2014  19:52:00     -372.046      -31.613      -30.914       91.437      116.738       49.222     8360.646    13627.834     2422.847        8.239        1.221      373.387       46.894        0.016      348.536       28.298      862.130
07/11/2014  19:53:00     -225.955      -71.598       -9.720      127.949       82.998       48.786    16371.008     6888.586     2380.111        4.095        1.282      237.027       50.285        0.045      348.529       28.289      862.150
07/11/2014  19:54:00     -266.154       -9.280      -31.897      102.402       45.603       37.318    10486.088     2079.631     1392.632        4.295        0.698      266.316       49.388        0.034      348.527       28.284      862.158
07/11/2014  19:55:00     -198.354      -11.167      -13.006       81.633       62.577       37.710     6663.934     3915.836     1422.043        2.582        0.600      198.668       37.403        0.035      348.522       28.277      862.165
07/11/2014  19:56:00     -354.591      -65.329      -36.256       77.664       66.007       48.185     6031.695     4356.948     2321.800        7.201        0.636      360.559       40.079        0.012      348.484       28.212      862.180
07/11/2014  19:57:00     -295.783       -3.097      -22.037      117.196       67.098       44.739    13734.898     4502.186     2001.539        5.411        1.012      295.799       51.736        0.031      348.472       28.191      862.193
07/11/2014  19:58:00     -152.265      -36.273        0.300       78.117       59.308       38.682     6102.313     3517.421     1496.286        1.781        0.556      156.526       40.353        0.066      348.479       28.203      862.212
07/11/2014  19:59:00     -277.750      -42.543      -14.810       89.653       55.444       43.778     8037.703     3074.058     1916.520        4.610        0.651      280.989       49.039        0.030      348.463       28.176      862.220
07/11/2014  20:00:00     -241.221      -61.067        2.611       94.661       62.326       36.531     8960.683     3884.576     1334.519        3.805        0.709      248.831       41.376        0.028      348.430       28.121      862.224
07/11/2014  20:01:00      -94.326      -73.837        1.472       82.049       55.681       32.108     6732.086     3100.396     1030.954        1.261        0.543      119.789       36.380        0.092      348.410       28.086      862.248
07/11/2014  20:02:00     -160.076       -0.028      -23.779      101.794       46.997       30.578    10361.980     2208.745      935.007        1.985        0.675      160.076       33.971        0.045      348.427       28.112      862.267
07/11/2014  20:03:00     -297.695       -5.875      -33.898       80.193       85.952       45.286     6430.951     7387.814     2050.781        5.283        0.793      297.753       39.791        0.018      348.365       28.004      862.272
07/11/2014  20:04:00     -311.395       -9.806      -19.721      103.258      110.520       50.863    10662.282    12214.661     2587.068        6.145        1.273      311.550       55.190        0.031      348.361       27.997      862.282
07/11/2014  20:05:00     -254.857      -38.340      -19.341       87.773       96.745       43.759     7704.178     9359.608     1914.877        4.288        0.949      257.725       24.987        0.009      348.368       28.010      862.289
07/11/2014  20:06:00     -276.521      -75.753      -17.246      106.060       94.386       55.608    11248.683     8908.790     3092.223        5.287        1.162      286.709       50.656        0.031      348.348       27.974      862.315
07/11/2014  20:07:00     -298.488       -5.034      -31.101      105.383       64.387       53.526    11105.563     4145.678     2865.057        5.410        0.906      298.530       54.831        0.034      348.317       27.920      862.320
07/11/2014  20:08:00     -144.602      -36.634       -3.685      110.509       62.898       36.409    12212.325     3956.145     1325.641        1.988        0.875      149.170       48.008        0.104      348.301       27.895      862.332
07/11/2014  20:09:00     -184.941       -7.043       -8.914       60.139       64.948       32.414     3616.659     4218.209     1050.671        2.161        0.444      185.075       27.489        0.022      348.283       27.863      862.337
07/11/2014  20:10:00     -243.238     -108.968       -6.959      103.685       95.675       42.977    10750.648     9153.767     1847.034        4.641        1.088      266.531       40.480        0.023      348.285       27.865      862.326
07/11/2014  20:11:00     -106.068      -36.912       17.657       90.544       65.048       40.523     8198.129     4231.264     1642.125        1.350        0.704      112.308       44.254        0.155      348.247       27.801      862.324
07/11/2014  20:12:00     -112.753      -33.953        2.783       93.693       66.777       35.370     8778.405     4459.203     1251.027        1.418        0.724      117.754       43.423        0.136      348.250       27.807      862.303
07/11/2014  20:13:00     -202.971      -21.790       -9.391      110.068       91.670       42.196    12114.908     8403.340     1780.506        3.203        1.115      204.137       40.316        0.039      348.210       27.738      862.295
07/11/2014  20:14:00     -266.553     -101.326      -13.788       78.993       73.592       40.150     6239.820     5415.818     1612.017        4.738        0.663      285.162       37.602        0.017      348.195       27.710      862.275
07/11/2014  20:15:00     -223.154      -37.025        4.607      120.327       74.833       54.421    14478.561     5600.020     2961.612        3.711        1.152      226.204       58.593        0.067      348.153       27.639      862.262
07/11/2014  20:16:00     -214.067       12.482       -3.237      149.488      115.678       60.258    22346.719    13381.372     3631.085        4.267        1.968      214.430       65.722        0.094      348.167       27.663      862.265
07/11/2014  20:17:00     -363.799      -80.953       -6.130      133.678      111.421       64.480    17869.757    12414.666     4157.657        8.668        1.722      372.697       71.645        0.037      348.158       27.646      862.273
07/11/2014  20:18:00     -436.378       -8.160      -23.280      228.296      123.218       79.255    52119.028    15182.698     6281.286       13.229        3.679      436.454       97.766        0.050      348.131       27.599      862.286
07/11/2014  20:19:00     -336.142      -91.163       -8.534      174.869      137.451       67.221    30579.240    18892.662     4518.620        8.767        2.700      348.284       83.739        0.058      348.135       27.606      862.321
07/11/2014  20:20:00     -222.666     -121.735       -0.340      164.120      143.027       66.083    26935.473    20456.588     4366.975        5.807        2.588      253.771       88.244        0.121      348.115       27.573      862.330
07/11/2014  20:21:00     -331.302     -293.686       -4.325      181.162      145.907       91.409    32819.792    21288.830     8355.641       12.924        3.123      442.733       97.866        0.049      348.096       27.540      862.308
07/11/2014  20:22:00     -139.488      -76.216       20.554      143.406      120.937       76.270    20565.272    14625.861     5817.142        3.334        2.050      158.952       78.278        0.243      348.075       27.504      862.331
07/11/2014  20:23:00     -151.963      -82.801      -11.316       68.229       65.022       33.752     4655.129     4227.803     1139.198        2.005        0.501      173.057       29.509        0.029      348.081       27.515      862.352
07/11/2014  20:24:00     -204.616      -51.561      -19.506       56.166       82.375       36.837     3154.634     6785.658     1356.963        2.810        0.565      211.013       25.531        0.015      348.053       27.466      862.372
07/11/2014  20:25:00     -329.195      -39.903      -15.225      108.463      142.980       59.598    11764.318    20443.254     3551.959        7.297        1.788      331.605       55.725        0.028      347.969       27.320      862.393
07/11/2014  20:26:00     -337.455      -14.807      -11.386      185.812      112.921       72.774    34526.031    12751.130     5296.079        8.339        2.629      337.779       88.591        0.069      347.932       27.255      862.394
07/11/2014  20:27:00     -415.582     -111.430      -30.064      158.828      160.216       68.075    25226.321    25669.189     4634.158       12.077        2.776      430.261       70.588        0.027      347.921       27.237      862.420
07/11/2014  20:28:00     -419.633      -49.838      -23.051      148.552      144.831       61.604    22067.638    20976.152     3795.044       11.296        2.342      422.582       71.585        0.029      347.909       27.216      862.436
07/11/2014  20:29:00     -292.521      -48.138      -15.194      139.777      132.395       64.467    19537.589    17528.446     4156.022        6.466        2.061      296.456       72.990        0.061      347.894       27.190      862.460
07/11/2014  20:30:00     -275.944       11.758      -30.889       74.676       77.312       44.279     5576.525     5977.175     1960.616        4.537        0.676      276.194       37.430        0.018      347.895       27.191      862.477
07/11/2014  20:31:00     -401.675      -12.026      -37.140      146.912       93.743       60.513    21583.028     8787.840     3661.772        9.844        1.702      401.855       60.554        0.023      347.899       27.197      862.485
07/11/2014  20:32:00     -302.938     -153.282      -18.783      142.510      103.582       68.223    20309.081    10729.332     4654.352        7.565        1.785      339.510       62.755        0.034      347.874       27.155      862.462
07/11/2014  20:33:00     -368.176     -102.878      -18.261      211.458      132.536       80.605    44714.436    17565.862     6497.228       10.761        3.439      382.279       88.522        0.054      347.848       27.109      862.503
07/11/2014  20:34:00     -480.842       -4.538      -32.909      198.604      126.972       78.193    39443.540    16121.777     6114.068       14.698        3.084      480.863       87.192        0.033      347.844       27.103      862.523
07/11/2014  20:35:00     -424.896      -76.261      -31.298      153.256      187.333       72.527    23487.397    35093.528     5260.157       12.557        3.192      431.685       65.507        0.023      347.829       27.078      862.540
07/11/2014  20:36:00     -478.805      -57.120      -35.138      174.000      121.141       83.210    30276.000    14675.221     6923.882       14.280        2.594      482.200       86.114        0.032      347.813       27.049      862.559
07/11/2014  20:37:00     -490.068      -63.074      -41.867      165.293      215.133       76.549    27321.824    46282.218     5859.760       16.266        3.973      494.110       72.906        0.022      347.805       27.035      862.553
07/11/2014  20:38:00     -445.302     -152.639      -19.611      173.264      164.294       75.798    30020.436    26992.616     5745.313       14.236        3.138      470.736       85.349        0.033      347.800       27.028      862.531
07/11/2014  20:39:00     -388.357      -72.225      -17.181      124.090      132.934       70.259    15398.237    17671.412     4936.390        9.716        1.900      395.016       62.590        0.025      347.789       27.011      862.553
07/11/2014  20:40:00     -374.220      -96.108       -2.991      157.530      115.995       74.629    24815.778    13454.753     5569.537        9.655        2.192      386.364       86.303        0.050      347.768       26.976      862.570
07/11/2014  20:41:00     -265.547      -49.411        0.341      145.150      112.390       67.847    21068.598    12631.456     4603.170        5.562        1.915      270.105       64.490        0.057      347.748       26.938      862.581
07/11/2014  20:42:00     -460.954      -69.139      -20.480      189.149      126.687       70.052    35777.493    16049.577     4907.346       13.720        2.837      466.110       87.558        0.035      347.720       26.889      862.587
07/11/2014  20:43:00     -325.816     -115.398       -6.186      148.478      113.021       66.664    22045.771    12773.847     4444.135        7.938        1.963      345.648       75.708        0.048      347.715       26.880      862.576
07/11/2014  20:44:00     -236.907      -50.664       -7.671      134.213       98.909       59.228    18013.141     9782.997     3507.949        4.502        1.565      242.264       62.147        0.066      347.694       26.844      862.578
07/11/2014  20:45:00     -194.207      -46.993      -11.056      105.182       84.520       54.486    11063.275     7143.547     2968.711        3.061        1.059      199.812       46.477        0.054      347.702       26.860      862.569
07/11/2014  20:46:00     -232.118        1.208      -19.742      110.636      107.914       65.399    12240.417    11645.424     4276.976        4.121        1.408      232.121       43.895        0.036      347.687       26.833      862.578
07/11/2014  20:47:00     -331.210        6.364      -30.291      184.692      112.350       76.151    34111.146    12622.436     5798.965        8.158        2.627      331.271       83.295        0.063      347.675       26.812      862.569
07/11/2014  20:48:00     -234.314      -28.053      -20.358      120.241       97.367       63.409    14457.800     9480.355     4020.716        4.203        1.398      235.987       49.910        0.045      347.666       26.796      862.578
07/11/2014  20:49:00     -216.491      -43.983      -14.501      166.008       67.839       53.234    27558.494     4602.186     2833.836        4.200        1.750      220.914       67.858        0.094      347.646       26.764      862.576
07/11/2014  20:50:00     -148.256      -24.549       -3.505      125.685      113.011       56.224    15796.730    12771.420     3161.099        2.716        1.586      150.275       56.413        0.141      347.617       26.714      862.574
07/11/2014  20:51:00     -257.932      -45.112       -9.760      127.600       93.881       62.761    16281.857     8813.694     3938.936        4.884        1.452      261.848       65.052        0.062      347.572       26.637      862.610
07/11/2014  20:52:00     -284.045      -61.494       -5.230      162.541      115.745       66.891    26419.664    13396.840     4474.380        6.438        2.215      290.626       75.283        0.067      347.565       26.623      862.624
07/11/2014  20:53:00     -307.464      -29.404      -19.632      177.334      107.799       64.097    31447.347    11620.556     4108.455        7.147        2.359      308.867       83.483        0.073      347.576       26.644      862.628
07/11/2014  20:54:00     -302.016      -12.403      -17.445      142.662      119.425       55.366    20352.568    14262.431     3065.437        6.467        1.884      302.271       62.826        0.043      347.565       26.623      862.645
07/11/2014  20:55:00     -218.481      -69.757       -8.510      143.483       96.225       54.862    20587.454     9259.186     3009.863        4.276        1.643      229.347       56.101        0.060      347.547       26.592      862.670
07/11/2014  20:56:00     -426.809      -35.363      -39.888      113.147      136.626       60.510    12802.347    18666.792     3661.516       11.006        1.757      428.272       51.340        0.014      347.539       26.577      862.673
07/11/2014  20:57:00     -253.541      -63.481       -2.236      117.973       79.355       48.148    13917.523     6297.164     2318.227        4.542        1.127      261.367       52.277        0.040      347.537       26.575      862.689
07/11/2014  20:58:00     -245.570      -30.304      -12.048      102.264       81.555       52.375    10457.845     6651.249     2743.113        4.061        0.993      247.433       56.316        0.052      347.516       26.539      862.693
07/11/2014  20:59:00     -443.578       31.451      -35.267      159.435      117.000       67.403    25419.548    13688.995     4543.220       12.131        2.183      444.692       63.660        0.020      347.492       26.497      862.698
07/11/2014  21:00:00     -366.958     -111.269      -12.352      153.776      133.412       73.313    23647.129    17798.715     5374.728        9.700        2.341      383.457       73.097        0.036      347.477       26.469      862.697
07/11/2014  21:01:00     -391.304     -116.699      -16.588      166.775      113.390       74.344    27813.809    12857.333     5527.002       10.660        2.310      408.335       84.685        0.043      347.454       26.429      862.703
07/11/2014  21:02:00     -382.177      -66.308      -33.592      223.905      153.612       86.220    50133.516    23596.774     7433.858       11.636        4.058      387.887      109.169        0.079      347.431       26.391      862.693
07/11/2014  21:03:00     -453.606      -73.093      -29.335      188.215      151.418       75.680    35424.908    22927.515     5727.534       13.801        3.204      459.457       72.630        0.025      347.443       26.410      862.697
07/11/2014  21:04:00     -446.990       23.633      -26.949      206.834      147.299       84.571    42780.135    21697.139     7152.262       13.634        3.581      447.614      107.413        0.058      347.432       26.392      862.729
07/11/2014  21:05:00     -301.942     -111.138      -22.028      124.112       93.959       56.744    15403.891     8828.380     3219.931        6.572        1.373      321.746       59.895        0.035      347.432       26.393      862.729
07/11/2014  21:06:00     -415.604     -159.914      -30.853      150.597      132.422       72.718    22679.389    17535.585     5287.949       12.237        2.275      445.308       67.101        0.023      347.414       26.362      862.703
07/11/2014  21:07:00     -265.679     -123.303      -13.550      111.061       84.284       61.370    12334.576     7103.842     3766.329        5.458        1.160      292.898       36.319        0.015      347.371       26.289      862.720
07/11/2014  21:08:00     -411.169     -109.615       -7.712      155.786      129.333       81.366    24269.344    16727.026     6620.433       11.437        2.381      425.530       84.183        0.039      347.349       26.249      862.721
07/11/2014  21:09:00     -368.472      -71.636      -30.949      143.482      109.214       67.274    20587.080    11927.720     4525.747        8.944        1.852      375.371       63.984        0.029      347.350       26.251      862.725
07/11/2014  21:10:00     -402.535     -102.868      -16.216      159.522      136.164       79.993    25447.129    18540.690     6398.909       11.162        2.519      415.471       81.024        0.038      347.333       26.223      862.747
07/11/2014  21:11:00     -525.852     -166.858      -14.870      200.899      132.350       75.574    40360.380    17516.475     5711.446       18.407        3.179      551.690       83.339        0.023      347.323       26.204      862.746
07/11/2014  21:12:00     -506.156      -68.223      -28.570      133.429      152.908       74.168    17803.182    23380.786     5500.937       15.417        2.334      510.733       67.861        0.018      347.315       26.192      862.787
07/11/2014  21:13:00     -408.603     -119.368      -21.707      151.562      119.301       67.870    22971.052    14232.781     4606.327       11.173        2.091      425.682       73.791        0.030      347.312       26.187      862.808
07/11/2014  21:14:00     -363.178      -71.827      -28.280      142.254       96.039       57.470    20236.235     9223.472     3302.811        8.530        1.638      370.213       60.769        0.027      347.308       26.179      862.808
07/11/2014  21:15:00     -405.483      -87.733       -8.765      199.210      106.101       77.328    39684.678    11257.494     5979.596       11.454        2.846      414.865       78.349        0.036      347.288       26.144      862.824
07/11/2014  21:16:00     -469.587     -126.616      -28.258      110.678       86.823       55.507    12249.727     7538.196     3081.066       13.010        1.143      486.357       42.614        0.008      347.281       26.133      862.839
07/11/2014  21:17:00     -354.190     -126.683      -11.726      153.207      102.401       63.577    23472.418    10485.989     4041.981        8.981        1.900      376.164       71.076        0.036      347.279       26.130      862.858
07/11/2014  21:18:00     -278.405      -22.617       -6.554      131.022      113.271       59.040    17166.687    12830.278     3485.700        5.577        1.674      279.322       66.558        0.057      347.261       26.098      862.867
07/11/2014  21:19:00     -409.418      -17.075      -20.552      155.582      100.460       66.009    24205.881    10092.294     4357.142       10.349        1.933      409.774       77.004        0.035      347.261       26.097      862.865
07/11/2014  21:20:00     -363.547      -93.948      -12.473      147.900      105.479       60.023    21874.527    11125.794     3602.806        8.887        1.830      375.490       61.131        0.027      347.257       26.090      862.889
07/11/2014  21:21:00     -182.288      -90.263       10.291      137.574      111.843       73.708    18926.625    12508.920     5432.925        3.917        1.843      203.412       81.222        0.159      347.251       26.082      862.887
07/11/2014  21:22:00     -425.457     -130.650      -13.955      178.181      173.780       78.158    31748.315    30199.334     6108.705       13.315        3.403      445.065       88.058        0.039      347.266       26.106      862.909
07/11/2014  21:23:00     -367.954      -68.622      -27.515      175.543      122.628       73.481    30815.172    15037.593     5399.460        9.604        2.563      374.298       46.015        0.015      347.277       26.125      862.953
07/11/2014  21:24:00     -357.142      -44.247      -26.245       93.536       86.602       51.085     8748.951     7499.973     2609.675        7.452        0.943      359.873       37.940        0.011      347.257       26.089      862.964
07/11/2014  21:25:00     -194.051      -31.219        2.558      108.446       83.553       55.348    11760.591     6981.187     3063.423        3.022        1.090      196.547       57.326        0.085      347.221       26.032      862.982
07/11/2014  21:26:00     -186.836      -10.884       -0.759      147.397       68.852       47.636    21725.853     4740.536     2269.202        3.188        1.437      187.152       63.743        0.116      347.209       26.011      862.987
07/11/2014  21:27:00     -507.340      -65.233      -26.618      195.022      189.117       75.987    38033.586    35765.284     5774.064       17.095        3.979      511.516       93.422        0.033      347.210       26.011      862.984
07/11/2014  21:28:00     -324.295     -122.553      -16.957      177.098      110.527       67.843    31363.695    12216.132     4602.693        8.432        2.409      346.679       78.812        0.052      347.215       26.021      862.998
07/11/2014  21:29:00     -240.638      -80.902      -17.453       86.361       94.729       47.346     7458.182     8973.568     2241.649        4.171        0.934      253.874       33.210        0.017      347.224       26.035      863.015
07/11/2014  21:30:00     -233.988      -87.712        1.008      154.296      119.587       70.032    23807.211    14301.096     4904.505        5.272        2.151      249.888       72.430        0.084      347.195       25.985      863.019
07/11/2014  21:31:00     -332.014     -138.953      -26.967      119.598      105.546       54.694    14303.786    11140.012     2991.426        7.935        1.422      359.919       53.319        0.022      347.183       25.965      863.033
07/11/2014  21:32:00     -340.069      -86.229      -21.921      161.142      123.631       65.740    25966.630    15284.636     4321.728        8.456        2.279      350.831       75.624        0.046      347.168       25.938      863.065
07/11/2014  21:33:00     -330.204      -21.946      -25.374      111.416       88.435       56.333    12413.605     7820.788     3173.385        6.678        1.170      330.932       41.569        0.016      347.167       25.937      863.074
07/11/2014  21:34:00     -385.140     -133.659      -10.119      223.545      111.949       72.892    49972.575    12532.671     5313.197       11.705        3.391      407.673       85.243        0.044      347.160       25.926      863.096
07/11/2014  21:35:00     -242.975     -125.100      -20.573       83.449       97.120       57.013     6963.741     9432.306     3250.476        4.737        0.982      273.289       46.288        0.029      347.165       25.932      863.095
07/11/2014  21:36:00     -274.780      -95.828      -27.933       82.789       92.286       51.963     6853.939     8516.796     2700.199        5.177        0.904      291.010       43.113        0.022      347.156       25.917      863.090
07/11/2014  21:37:00     -378.212      -53.901      -24.958      167.010      101.115       57.563    27892.501    10224.178     3313.468        9.399        2.072      382.034       59.245        0.024      347.126       25.866      863.117
07/11/2014  21:38:00     -450.421      -33.189      -54.711      127.441      120.654       75.265    16241.277    14557.353     5664.762       12.171        1.823      451.642       68.204        0.023      347.127       25.867      863.123
07/11/2014  21:39:00     -283.409      -38.001      -25.859      142.352       93.002       57.422    20264.037     8649.306     3297.264        5.732        1.611      285.946       56.312        0.039      347.132       25.878      863.114
07/11/2014  21:40:00     -203.349       35.230      -23.083      100.840      101.900       63.148    10168.702    10383.533     3987.623        3.383        1.227      206.378       50.295        0.059      347.104       25.829      863.102
07/11/2014  21:41:00     -282.860     -127.159       -5.312      137.154      115.617       61.575    18811.108    13367.365     3791.423        6.608        1.798      310.128       56.660        0.033      347.064       25.758      863.107
07/11/2014  21:42:00     -261.836      -32.720      -18.034      118.463       92.290       47.626    14033.397     8517.479     2268.207        4.738        1.241      263.872       52.537        0.040      347.054       25.742      863.125
07/11/2014  21:43:00     -308.331       -6.484      -26.600      132.001       79.667       56.243    17424.158     6346.867     3163.252        6.137        1.347      308.399       60.448        0.038      347.056       25.745      863.126
07/11/2014  21:44:00     -244.737      -47.115       -6.966      147.731      129.509       69.659    21824.432    16772.484     4852.363        5.280        2.172      249.230       66.360        0.071      347.039       25.717      863.143
07/11/2014  21:45:00     -301.839     -101.865      -15.109      128.277       94.835       56.936    16455.008     8993.627     3241.710        6.520        1.435      318.564       65.267        0.042      347.015       25.677      863.184
07/11/2014  21:46:00     -356.826      -35.347      -30.821      127.109      126.525       66.473    16156.723    16008.555     4418.634        8.305        1.829      358.572       57.610        0.026      347.046       25.729      863.188
07/11/2014  21:47:00     -283.462      -33.468      -18.659      149.299      118.138       64.482    22290.119    13956.641     4157.897        6.110        2.020      285.431       57.091        0.040      347.033       25.706      863.186
07/11/2014  21:48:00     -395.936      -21.628      -38.034      106.883       87.147       64.125    11423.897     7594.618     4111.993        9.090        1.157      396.526       51.687        0.017      347.040       25.718      863.226
07/11/2014  21:49:00     -363.827       -4.791      -28.750      113.552      102.755       60.563    12894.129    10558.572     3667.832        8.016        1.356      363.859       54.532        0.022      347.037       25.714      863.282
07/11/2014  21:50:00     -289.385       44.451      -14.854      134.410      115.814       65.532    18066.156    13412.969     4294.495        6.085        1.789      292.779       68.109        0.054      347.040       25.718      863.277
07/11/2014  21:51:00     -395.526      -40.433      -30.677      134.473       89.345       57.716    18083.012     7982.521     3331.166        9.420        1.470      397.587       65.507        0.027      347.050       25.733      863.304
07/11/2014  21:52:00     -190.275     -112.173       -1.792      112.431      110.084       58.175    12640.625    12118.519     3384.298        3.846        1.407      220.878       52.171        0.056      347.039       25.718      863.308
07/11/2014  21:53:00     -298.552      -85.038       -7.710      117.625       80.575       40.918    13835.656     6492.277     1674.296        5.921        1.100      310.427       46.511        0.022      347.034       25.709      863.327
07/11/2014  21:54:00     -316.281      -90.921       -1.342      162.063      148.902       85.057    26264.475    22171.755     7234.655        8.198        2.784      329.091       75.734        0.053      347.021       25.686      863.365
07/11/2014  21:55:00     -297.927      -99.485      -26.677      203.108      146.532       62.537    41253.046    21471.523     3910.838        8.299        3.332      314.099       79.470        0.064      347.027       25.698      863.394
07/11/2014  21:56:00     -164.167       10.927       12.852      197.325       65.861       52.442    38937.154     4337.630     2750.156        3.662        2.301      164.530       87.159        0.281      347.028       25.699      863.383
07/11/2014  21:57:00     -451.749      -94.531      -45.802      115.352      136.138       61.133    13306.195    18533.438     3737.302       12.534        1.779      461.533       53.302        0.013      347.037       25.713      863.379
07/11/2014  21:58:00     -364.297      -86.295      -20.348      154.874       85.977       53.655    23985.920     7392.062     2878.846        8.741        1.713      374.378       68.318        0.033      347.017       25.679      863.392
07/11/2014  21:59:00     -191.815      -41.278       -3.540      112.264       82.963       58.807    12603.126     6882.888     3458.267        3.072        1.147      196.206       60.332        0.095      347.000       25.650      863.418
07/11/2014  22:00:00     -152.515      -55.592        8.863      118.350      134.154       58.469    14006.786    17997.170     3418.635        3.092        1.771      162.330       62.596        0.149      347.008       25.664      863.396
07/11/2014  22:01:00     -319.896     -100.564      -15.046      115.447      144.217       61.747    13328.108    20798.631     3812.634        7.530        1.897      335.331       56.158        0.028      347.019       25.682      863.394
07/11/2014  22:02:00     -224.029      -63.410       -2.125      162.163      132.462       85.798    26296.948    17546.128     7361.304        5.270        2.560      232.830       92.744        0.159      346.999       25.648      863.366
07/11/2014  22:03:00     -229.115       -4.237        2.723      136.095      134.058       68.418    18521.930    17971.568     4680.964        4.684        2.059      229.154       65.434        0.082      346.991       25.633      863.399
07/11/2014  22:04:00     -343.547      -46.390       -8.991      227.720      131.575       78.784    51856.377    17311.960     6206.994        9.780        3.769      346.665       99.723        0.083      346.984       25.623      863.399
07/11/2014  22:05:00     -385.313      -46.828      -16.585      144.756      122.565       77.728    20954.430    15022.249     6041.666        9.647        2.101      388.148       79.817        0.042      346.979       25.614      863.398
07/11/2014  22:06:00     -284.722      -93.859        3.123      125.196      112.029       70.762    15674.068    12550.565     5007.292        6.155        1.662      299.793       64.973        0.047      346.979       25.613      863.383
07/11/2014  22:07:00     -302.132      -41.732      -11.736      139.516      137.342       62.561    19464.829    18862.695     3913.873        6.769        2.112      305.000       67.927        0.050      346.986       25.626      863.401
07/11/2014  22:08:00     -267.417      -66.173       -7.271      208.409      107.674       65.084    43434.237    11593.687     4235.884        6.759        2.963      275.482       90.032        0.107      346.970       25.599      863.400
07/11/2014  22:09:00     -307.540      -77.844       -3.962      165.813      134.467       55.497    27494.089    18081.469     3079.869        7.465        2.433      317.239       65.315        0.042      346.969       25.597      863.411
07/11/2014  22:10:00     -409.296      -62.595      -25.505      169.645      163.989       84.572    28779.541    26892.265     7152.434       11.745        3.141      414.055       72.071        0.030      346.949       25.561      863.423
07/11/2014  22:11:00     -347.995      -67.122        2.055      204.408      142.918       80.899    41782.504    20425.438     6544.608        9.717        3.438      354.409       88.336        0.062      346.940       25.547      863.424
07/11/2014  22:12:00     -197.934     -110.033        0.050      159.728      153.924       65.766    25513.005    23692.592     4325.103        5.240        2.677      226.462       70.789        0.098      346.960       25.582      863.406
07/11/2014  22:13:00     -419.908        3.924      -21.253      139.141      114.260       67.793    19360.318    13055.428     4595.930       10.689        1.851      419.926       68.580        0.027      346.926       25.521      863.404
07/11/2014  22:14:00     -541.612      -54.730      -27.661      181.436      163.850       85.875    32919.145    26846.853     7374.455       18.211        3.357      544.370       91.003        0.028      346.911       25.494      863.408
07/11/2014  22:15:00     -481.754     -113.368      -26.494      137.409      134.311       80.103    18881.163    18039.400     6416.500       14.448        2.167      494.914       78.793        0.025      346.898       25.473      863.421
07/11/2014  22:16:00     -337.256      -57.713       -6.513      137.354      111.277       69.376    18866.091    12382.592     4813.066        7.658        1.803      342.159       76.542        0.050      346.889       25.457      863.409
07/11/2014  22:17:00     -143.946      -46.388       14.212      103.568       85.050       51.704    10726.238     7233.532     2673.323        2.185        1.032      151.236       44.631        0.087      346.886       25.454      863.430
07/11/2014  22:18:00     -209.673       47.941      -15.734      119.274       87.072       55.319    14226.271     7581.502     3060.141        3.568        1.243      215.084       52.535        0.060      346.868       25.422      863.435
07/11/2014  22:19:00     -194.127       -3.439      -21.859       90.489       81.853       49.892     8188.226     6699.990     2489.175        2.777        0.869      194.157       51.688        0.071      346.829       25.356      863.421
07/11/2014  22:20:00     -224.586      -15.258      -30.133      101.396       83.571       44.414    10281.207     6984.156     1972.582        3.540        0.962      225.103       38.911        0.030      346.857       25.405      863.406
07/11/2014  22:21:00     -320.990       13.200      -21.162      110.186      103.052       49.802    12141.028    10619.661     2480.288        6.444        1.262      321.261       48.742        0.023      346.829       25.355      863.440
07/11/2014  22:22:00     -389.318      -51.333      -39.143      123.311       96.517       50.938    15205.640     9315.464     2594.730        9.142        1.356      392.688       49.388        0.016      346.849       25.389      863.448
07/11/2014  22:23:00     -358.231      -75.032      -20.532      114.357      112.729       55.407    13077.484    12707.852     3069.971        8.161        1.443      366.004       33.844        0.009      346.841       25.376      863.479
07/11/2014  22:24:00     -225.223      -21.239      -12.850       97.240      100.527       51.747     9455.541    10105.702     2677.800        3.679        1.112      226.222       47.836        0.045      346.809       25.321      863.500
07/11/2014  22:25:00     -195.587      -49.455      -10.585      139.106       50.647       44.238    19350.613     2565.126     1956.976        3.234        1.194      201.743       47.522        0.055      346.794       25.297      863.505
07/11/2014  22:26:00     -189.647       93.917      -19.902      117.624      110.470       53.596    13835.373    12203.667     2872.523        3.704        1.446      211.628       37.056        0.031      346.753       25.226      863.505
07/11/2014  22:27:00     -219.072      -18.699      -10.492      130.561      103.674       47.007    17046.301    10748.271     2209.646        3.922        1.500      219.869       47.293        0.046      346.761       25.240      863.513
07/11/2014  22:28:00     -308.254      -67.516       10.790      150.988      142.773       77.664    22797.325    20384.148     6031.666        7.444        2.461      315.561       78.186        0.061      346.755       25.228      863.519
07/11/2014  22:29:00     -328.821     -102.474       -2.897      186.408      131.153       79.309    34747.758    17201.082     6289.878        8.842        2.912      344.418       90.668        0.069      346.769       25.251      863.551
07/11/2014  22:30:00     -159.643      -35.622        9.014      148.609      123.207       76.020    22084.523    15180.057     5779.023        3.493        2.152      163.569       81.509        0.248      346.782       25.274      863.538
07/11/2014  22:31:00     -250.838      -77.537        8.212      195.036      119.786       69.361    38039.227    14348.675     4810.947        6.309        2.860      262.548       85.143        0.105      346.771       25.256      863.590
07/11/2014  22:32:00     -276.333      -73.276      -21.376      156.715      103.971       62.519    24559.660    10809.934     3908.587        6.072        1.964      285.884       77.643        0.074      346.785       25.279      863.624
07/11/2014  22:33:00     -182.762        4.776       18.782      154.671       93.783       65.665    23923.006     8795.332     4311.934        3.540        1.852      182.824       88.460        0.234      346.747       25.214      863.644
07/11/2014  22:34:00     -318.772      -49.743       -9.082      174.554      127.764       57.764    30469.262    16323.601     3336.661        7.714        2.506      322.630       56.858        0.031      346.764       25.242      863.646
07/11/2014  22:35:00     -299.754       -0.612      -18.159      158.550      119.570       58.490    25138.035    14296.877     3421.131        6.651        2.143      299.755       63.808        0.045      346.767       25.249      863.650
07/11/2014  22:36:00     -398.126       35.794      -36.931      151.330       95.474       59.112    22900.776     9115.290     3494.237        9.832        1.776      399.732       62.616        0.025      346.742       25.204      863.661
07/11/2014  22:37:00     -262.258      -70.728      -13.454      118.122       71.973       40.695    13952.726     5180.088     1656.108        4.737        1.039      271.628       34.775        0.016      346.747       25.214      863.648
07/11/2014  22:38:00     -255.326      -34.183      -16.910       91.066      101.737       47.037     8292.970    10350.467     2212.520        4.375        1.043      257.604       48.308        0.035      346.730       25.183      863.647
07/11/2014  22:39:00     -305.278       64.318      -25.166       98.705       86.112       61.811     9742.609     7415.218     3820.596        5.947        1.049      311.980       55.696        0.032      346.725       25.172      863.633
07/11/2014  22:40:00     -196.345      -32.198       -4.138      109.914       97.893       52.370    12080.992     9583.078     2742.614        3.200        1.220      198.967       51.712        0.068      346.701       25.134      863.648
07/11/2014  22:41:00     -226.718      -66.330        1.146      126.649       65.272       45.595    16039.971     4260.481     2078.930        3.909        1.119      236.221       50.897        0.046      346.704       25.139      863.650
07/11/2014  22:42:00     -273.992       15.463       -7.790      102.546       95.867       54.097    10515.649     9190.552     2926.532        4.900        1.132      274.428       54.335        0.039      346.699       25.127      863.669
07/11/2014  22:43:00     -403.865     -122.778       -5.944      157.795      116.680       57.336    24899.146    13614.254     3287.373       11.000        2.090      422.116       55.847        0.018      346.710       25.147      863.668
07/11/2014  22:44:00     -442.336      -61.703      -50.873      109.005      109.592       56.479    11882.024    12010.380     3189.860       11.456        1.354      446.619       55.147        0.015      346.711       25.149      863.704
07/11/2014  22:45:00     -281.587      -41.638      -10.882      118.330      117.049       63.285    14002.038    13700.420     4005.027        5.642        1.585      284.649       62.011        0.047      346.704       25.137      863.714
07/11/2014  22:46:00     -323.244     -138.457       -9.358      130.573       80.527       53.154    17049.312     6484.595     2825.400        7.505        1.318      351.649       52.133        0.022      346.689       25.113      863.726
07/11/2014  22:47:00     -246.198      -59.824      -15.393      155.441      108.673       56.895    24162.006    11809.866     3237.094        5.181        1.960      253.362       74.605        0.087      346.683       25.105      863.736
07/11/2014  22:48:00     -382.317        4.959      -34.698      119.713      137.472       54.477    14331.189    18898.520     2967.749        9.179        1.810      382.349       55.529        0.021      346.657       25.060      863.747
07/11/2014  22:49:00     -251.748      -43.340      -28.937      122.180      139.811       50.905    14927.966    19547.192     2591.332        5.157        1.853      255.451       48.656        0.036      346.648       25.044      863.732
07/11/2014  22:50:00     -281.731      -55.799       -6.305      155.213      134.130       59.085    24091.046    17990.945     3491.082        6.404        2.279      287.203       62.937        0.048      346.628       25.010      863.734
07/11/2014  22:51:00     -273.736      -92.739      -20.049      108.119       93.430       56.008    11689.625     8729.128     3136.924        5.374        1.178      289.019       45.193        0.024      346.611       24.979      863.730
07/11/2014  22:52:00     -301.334      -47.767       -8.064      123.520       97.735       49.101    15257.238     9552.147     2410.928        6.018        1.361      305.097       48.504        0.025      346.584       24.932      863.744
07/11/2014  22:53:00     -322.111      -71.420      -13.691      144.555      139.917       62.536    20896.105    19576.805     3910.698        7.670        2.219      329.934       68.342        0.043      346.581       24.928      863.727
07/11/2014  22:54:00     -250.231     -121.565       -4.626      111.564       79.919       52.003    12446.460     6387.092     2704.270        4.947        1.077      278.197       54.826        0.039      346.570       24.909      863.752
07/11/2014  22:55:00     -275.929      -77.893      -18.918      111.240      101.849       57.147    12374.442    10373.216     3265.771        5.428        1.301      286.712       61.109        0.045      346.565       24.902      863.759
07/11/2014  22:56:00     -278.278       69.440      -21.537       94.622      105.030       56.906     8953.241    11031.242     3238.321        5.297        1.161      286.811       47.732        0.028      346.552       24.878      863.761
07/11/2014  22:57:00     -279.586      -51.081      -22.801       86.199       94.653       50.443     7430.328     8959.187     2544.474        5.011        0.947      284.214       34.023        0.014      346.555       24.881      863.769
07/11/2014  22:58:00     -235.811      -24.529       -7.536      110.771       71.870       46.875    12270.288     5165.346     2197.262        3.795        0.982      237.084       58.508        0.061      346.544       24.864      863.770
07/11/2014  22:59:00     -271.634       -0.710       -0.358      126.015      101.460       58.334    15879.670    10294.160     3402.865        5.168        1.479      271.635       42.876        0.025      346.533       24.848      863.790
07/11/2014  23:00:00     -350.610     -114.391      -12.901      108.409       80.252       50.673    11752.564     6440.437     2567.792        7.847        1.038      368.799       40.022        0.012      346.544       24.864      863.786
07/11/2014  23:01:00     -312.091      -68.407      -18.312      103.830       98.327       57.579    10780.639     9668.285     3315.366        6.309        1.188      319.500       61.248        0.037      346.531       24.843      863.789
07/11/2014  23:02:00     -366.866     -106.542      -27.956      176.368      175.309       75.668    31105.559    30733.133     5725.608       10.713        3.378      382.023       92.022        0.058      346.545       24.868      863.812
07/11/2014  23:03:00     -204.657      -55.802       15.002      155.705       95.477       59.144    24243.933     9115.836     3497.980        4.103        1.843      212.128       66.668        0.099      346.537       24.853      863.797
07/11/2014  23:04:00     -193.455      -52.523       -4.979      117.006       62.812       48.614    13690.428     3945.403     2363.331        3.010        1.000      200.458       56.912        0.081      346.534       24.848      863.808
07/11/2014  23:05:00     -295.892      -57.104       -9.836      118.771       84.962       58.547    14106.572     7218.592     3427.780        5.783        1.238      301.352       64.123        0.045      346.525       24.833      863.801
07/11/2014  23:06:00     -227.791      -75.657      -14.102      128.320       98.436       53.695    16465.907     9689.609     2883.102        4.342        1.452      240.026       59.279        0.061      346.529       24.840      863.819
07/11/2014  23:07:00     -103.900      -39.857       10.007      109.653       77.483       43.852    12023.705     6003.584     1923.039        1.621        0.998      111.282       40.370        0.132      346.534       24.852      863.821
07/11/2014  23:08:00     -321.076      -10.714      -25.591       81.813       69.765       44.635     6693.295     4867.094     1992.323        5.870        0.678      321.255       42.742        0.018      346.522       24.828      863.833
07/11/2014  23:09:00     -222.218      -40.275      -11.542       85.470       88.944       41.942     7305.136     7910.973     1759.115        3.405        0.849      225.839       33.142        0.022      346.505       24.799      863.837
07/11/2014  23:10:00     -305.885       77.154      -13.452      132.852       81.861       69.731    17649.613     6701.282     4862.428        6.445        1.461      315.466       68.408        0.047      346.504       24.799      863.845
07/11/2014  23:11:00     -130.026      -42.104       -1.983       72.906       63.915       44.391     5315.309     4085.071     1970.603        1.502        0.569      136.673       36.059        0.070      346.506       24.804      863.850
07/11/2014  23:12:00     -204.447       10.943      -10.378      113.498       62.441       38.613    12881.709     3898.933     1490.947        3.015        0.914      204.739       44.455        0.047      346.485       24.764      863.863
07/11/2014  23:13:00     -281.494      -44.622      -16.181      145.674       97.493       60.061    21221.042     9504.938     3607.353        5.791        1.717      285.009       69.398        0.059      346.490       24.774      863.863
07/11/2014  23:14:00     -153.234      -27.959       -6.353       71.283       81.242       31.422     5081.272     6600.304      987.370        1.848        0.633      155.764       26.989        0.030      346.486       24.766      863.885
07/11/2014  23:15:00     -143.781        8.217       -4.120       90.212       78.139       39.260     8138.293     6105.692     1541.345        1.827        0.789      144.015       38.005        0.070      346.509       24.807      863.890
07/11/2014  23:16:00     -306.266      -31.898      -23.246       78.804       67.454       47.949     6210.018     4550.082     2299.073        5.421        0.653      307.922       40.074        0.017      346.514       24.815      863.882
07/11/2014  23:17:00     -200.443      -14.229      -14.483       69.971       87.051       40.672     4895.984     7577.939     1654.243        2.736        0.706      200.948       36.558        0.033      346.508       24.804      863.906
07/11/2014  23:18:00     -188.609       50.607       -8.928      101.979      110.230       45.553    10399.770    12150.631     2075.102        3.141        1.231      195.281       34.737        0.032      346.488       24.770      863.914
07/11/2014  23:19:00     -109.869       50.729       -4.600       52.287       73.481       41.517     2733.917     5399.512     1723.637        1.226        0.493      121.015       29.528        0.060      346.492       24.781      863.912
07/11/2014  23:20:00     -143.182      -50.427      -15.260      115.244       77.923       46.565    13281.204     6072.002     2168.342        2.239        1.076      151.802       44.967        0.088      346.511       24.812      863.923
07/11/2014  23:21:00     -237.134       43.972      -24.919       98.593      104.059       55.867     9720.521    10828.358     3121.072        4.122        1.183      241.176       48.894        0.041      346.496       24.784      863.934
07/11/2014  23:22:00     -202.006      -58.048      -19.387      121.284       69.615       44.982    14709.853     4846.188     2023.347        3.306        1.079      210.180       37.634        0.032      346.484       24.761      863.930
07/11/2014  23:23:00     -118.968      -66.634       14.054      127.422       88.614       60.687    16236.326     7852.406     3682.884        2.328        1.389      136.358       70.243        0.265      346.484       24.763      863.934
07/11/2014  23:24:00     -158.844       14.715      -19.720       62.969       52.609       34.141     3965.137     2767.725     1165.594        1.687        0.395      159.524       25.702        0.026      346.477       24.748      863.945
07/11/2014  23:25:00      -85.220       21.470        4.838       65.432       78.166       40.851     4281.407     6109.874     1668.802        0.990        0.603       87.883       30.856        0.123      346.476       24.749      863.977
07/11/2014  23:26:00     -159.488       13.515      -16.054      142.978       64.400       40.589    20442.616     4147.327     1647.486        2.605        1.312      160.060       45.361        0.080      346.473       24.744      864.015
07/11/2014  23:27:00     -269.223       65.266      -23.766      104.593       61.296       40.440    10939.685     3757.261     1635.376        4.682        0.817      277.021       46.459        0.028      346.465       24.729      864.020
07/11/2014  23:28:00     -122.220      -38.201       -8.127       53.534       40.213       28.681     2865.925     1617.087      822.600        1.088        0.265      128.051       23.849        0.035      346.462       24.725      864.013
07/11/2014  23:29:00     -108.579        8.327        8.711       98.164       87.176       52.152     9636.119     7599.711     2719.859        1.594        0.998      108.898       56.941        0.273      346.443       24.692      864.026
07/11/2014  23:30:00      -73.558        1.200       -2.218       50.677       43.479       32.383     2568.127     1890.391     1048.636        0.546        0.275       73.568       27.793        0.143      346.436       24.680      864.034
07/11/2014  23:31:00      -39.586      -14.417        8.726       36.664       41.038       27.739     1344.252     1684.138      769.461        0.282        0.190       42.129       21.876        0.270      346.440       24.688      864.050
07/11/2014  23:32:00      -98.104       54.947      -10.724       45.281       89.043       39.451     2050.353     7928.670     1556.417        1.214        0.577      112.443       37.514        0.111      346.440       24.688      864.057
07/11/2014  23:33:00      -96.599      133.247      -20.475       58.039       52.173       33.656     3368.526     2722.066     1132.725        1.736        0.361      164.578       25.793        0.025      346.391       24.603      864.059
07/11/2014  23:34:00     -118.573       71.816      -10.555       98.124       59.637       40.643     9628.383     3556.604     1651.825        1.708        0.742      138.626       47.139        0.116      346.384       24.591      864.062
07/11/2014  23:35:00     -202.659        6.641      -14.538       69.858       65.771       42.206     4880.199     4325.781     1781.305        2.615        0.549      202.767       40.767        0.040      346.393       24.605      864.071
07/11/2014  23:36:00     -119.835       93.914      -21.866       53.789       76.684       26.878     2893.274     5880.438      722.409        1.658        0.475      152.251       26.297        0.030      346.369       24.565      864.086
07/11/2014  23:37:00      -55.071       66.588       -8.331       38.236       56.962       29.244     1461.964     3244.647      855.220        0.655        0.278       86.410       17.760        0.042      346.352       24.538      864.083
07/11/2014  23:38:00     -172.759      135.214      -31.083       74.336       79.119       39.807     5525.840     6259.755     1584.634        3.123        0.669      219.382       37.094        0.029      346.379       24.580      864.075
07/11/2014  23:39:00      -76.590       57.522        1.832       66.621       53.374       32.811     4438.300     2848.818     1076.585        0.877        0.418       95.785       33.726        0.124      346.390       24.604      864.084
07/11/2014  23:40:00     -101.620       97.263      -13.447       75.552       35.488       30.564     5708.180     1259.408      934.185        1.393        0.395      140.665       26.594        0.036      346.408       24.635      864.100
07/11/2014  23:41:00      -51.411      106.393      -12.400       30.487       70.650       26.470      929.436     4991.408      700.669        1.037        0.331      118.164       32.188        0.074      346.401       24.622      864.122
07/11/2014  23:42:00     -127.915      -47.165       -7.198       75.588       50.594       30.812     5713.496     2559.751      949.396        1.393        0.461      136.333       19.686        0.021      346.407       24.631      864.137
07/11/2014  23:43:00     -127.272       86.847      -20.001       56.318       66.985       35.609     3171.681     4486.963     1268.020        1.653        0.446      154.080       31.229        0.041      346.401       24.621      864.144
07/11/2014  23:44:00      -34.476      153.175       -3.335       89.656       75.695       51.527     8038.181     5729.748     2654.982        2.054        0.821      157.006       51.310        0.107      346.387       24.597      864.132
07/11/2014  23:45:00      -53.356      121.985      -16.819       45.090       67.430       28.953     2033.063     4546.794      838.289        1.271        0.371      133.144       22.243        0.028      346.400       24.620      864.147
07/11/2014  23:46:00      -75.261       55.234       -6.171       59.350       44.104       30.426     3522.391     1945.150      925.748        0.757        0.320       93.354       30.400        0.106      346.416       24.649      864.152
07/11/2014  23:47:00      -67.699       99.163      -16.621       40.461       51.085       31.049     1637.079     2609.665      964.046        0.995        0.261      120.068       23.764        0.039      346.396       24.613      864.160
07/11/2014  23:48:00      -26.999       55.126       -4.986       17.008       42.648       15.672      289.261     1818.890      245.601        0.307        0.118       61.383       18.348        0.089      346.395       24.612      864.174
07/11/2014  23:49:00      -71.777       53.211      -19.438       42.499       49.623       23.691     1806.162     2462.482      561.243        0.659        0.241       89.349       29.466        0.109      346.419       24.653      864.185
07/11/2014  23:50:00      -88.192      129.606      -14.929       76.688       65.472       34.125     5881.082     4286.582     1164.486        1.806        0.567      156.765       22.202        0.020      346.396       24.611      864.193
07/11/2014  23:51:00      -78.927      -12.574        1.146       63.979       70.381       39.645     4093.277     4953.499     1571.688        0.850        0.531       79.922       19.193        0.058      346.398       24.615      864.194
07/11/2014  23:52:00     -148.034      -12.624        2.772       67.618       69.630       37.435     4572.241     4848.333     1401.409        1.645        0.541      148.571       36.995        0.062      346.375       24.576      864.213
07/11/2014  23:53:00     -117.272      -33.795        2.800       56.501       44.697       32.294     3192.326     1997.855     1042.928        1.057        0.312      122.044       28.137        0.053      346.378       24.582      864.236
07/11/2014  23:54:00      -69.540        0.120        0.006       43.342       33.906       23.227     1878.553     1149.638      539.480        0.420        0.178       69.540       20.909        0.090      346.353       24.540      864.250
07/11/2014  23:55:00      -24.890       51.332      -13.422       46.923       18.228       20.497     2201.724      332.260      420.110        0.319        0.148       57.048       19.431        0.116      346.341       24.519      864.252
07/11/2014  23:56:00       -1.633       79.899      -10.470       53.027       35.730       28.740     2811.895     1276.613      825.967        0.570        0.246       79.915       27.416        0.118      346.343       24.523      864.251
07/11/2014  23:57:00     -108.232      169.480      -25.887       61.734       89.867       37.614     3811.032     8076.051     1414.842        2.720        0.665      201.090       36.219        0.032      346.378       24.580      864.275
07/11/2014  23:58:00     -136.869       44.246      -10.122       54.871       43.886       36.281     3010.796     1925.996     1316.278        1.352        0.313      143.843       31.288        0.047      346.369       24.563      864.300
07/11/2014  23:59:00      -73.157       46.567      -10.253       23.064       25.309       15.788      531.963      640.542      249.252        0.452        0.071       86.720       13.929        0.026      346.371       24.570      864.312
